Time,TemperatureF,DewpointF,PressureIn,WindDirection,WindDirectionDegrees,WindSpeedMPH,WindSpeedGustMPH,Humidity,HourlyPrecipIn,Conditions,Clouds,dailyrainin,SolarRadiationWatts/m^2,SoftwareType,DateUTC
2013-03-04 00:00:00,51.9,47.5,30.01,SE,145,3.9,6.5,85,0.00,,-RA,0.00,0.00,VWS V14.01,2013-03-04 06:00:00,
2013-03-04 00:01:00,51.9,47.5,30.01,SE,145,0.0,9.1,85,0.00,,-RA,0.00,0.00,VWS V14.01,2013-03-04 06:01:00,
2013-03-04 00:02:00,51.9,47.5,30.01,SE,145,0.0,9.1,85,0.00,,-RA,0.00,0.00,VWS V14.01,2013-03-04 06:02:00,
2013-03-04 00:03:00,51.9,47.5,30.01,SE,145,5.2,7.8,85,0.00,,-RA,0.00,0.00,VWS V14.01,2013-03-04 06:03:00,
2013-03-04 00:04:00,51.9,47.5,30.01,SE,145,7.8,7.8,85,0.00,,-RA,0.00,0.00,VWS V14.01,2013-03-04 06:04:00,
2013-03-04 00:05:00,51.9,47.5,30.01,SE,145,0.0,9.1,85,0.00,,-RA,0.00,0.00,VWS V14.01,2013-03-04 06:05:00,
2013-03-04 00:06:00,51.8,47.4,30.01,SE,145,0.0,6.5,85,0.00,,-RA,0.00,0.00,VWS V14.01,2013-03-04 06:06:00,
2013-03-04 00:07:00,51.8,47.4,30.01,SE,145,0.0,6.5,85,0.00,,-RA,0.00,0.00,VWS V14.01,2013-03-04 06:07:00,
2013-03-04 00:08:00,51.8,47.4,30.01,SE,146,1.3,1.3,85,0.00,,-RA,0.00,0.00,VWS V14.01,2013-03-04 06:08:00,
2013-03-04 00:09:00,51.8,47.4,30.01,SE,146,1.3,5.2,85,0.00,,-RA,0.00,0.00,VWS V14.01,2013-03-04 06:09:00,
2013-03-04 00:10:00,51.8,47.4,30.01,SE,146,6.5,6.5,85,0.00,,-RA,0.00,0.00,VWS V14.01,2013-03-04 06:10:00,
2013-03-04 00:11:00,51.7,47.3,30.01,SE,146,5.2,5.2,85,0.00,,-RA,0.00,0.00,VWS V14.01,2013-03-04 06:11:00,
2013-03-04 00:12:00,51.7,47.3,30.01,SE,146,3.9,7.8,85,0.00,,-RA,0.00,0.00,VWS V14.01,2013-03-04 06:12:00,
2013-03-04 00:13:00,51.7,47.3,30.01,SE,146,0.0,6.5,85,0.00,,-RA,0.00,0.00,VWS V14.01,2013-03-04 06:13:00,
2013-03-04 00:14:00,51.7,47.3,30.01,SE,146,5.2,5.2,85,0.00,,-RA,0.00,0.00,VWS V14.01,2013-03-04 06:14:00,
2013-03-04 00:15:00,51.6,47.2,30.01,SSE,147,0.0,6.5,85,0.00,,-RA,0.00,0.00,VWS V14.01,2013-03-04 06:15:00,
2013-03-04 00:16:00,51.6,47.2,30.00,SSE,147,3.9,5.2,85,0.00,,-RA,0.00,0.00,VWS V14.01,2013-03-04 06:16:00,
2013-03-04 00:17:00,51.6,47.2,30.01,SSE,147,3.9,5.2,85,0.00,,-RA,0.00,0.00,VWS V14.01,2013-03-04 06:17:00,
2013-03-04 00:18:00,51.6,47.2,30.00,SSE,147,1.3,6.5,85,0.00,,-RA,0.00,0.00,VWS V14.01,2013-03-04 06:18:00,
2013-03-04 00:19:00,51.6,47.2,30.00,SSE,147,0.0,5.2,85,0.00,,-RA,0.00,0.00,VWS V14.01,2013-03-04 06:19:00,
2013-03-04 00:20:00,51.5,47.2,30.01,SSE,147,1.3,7.8,85,0.00,,-RA,0.00,0.00,VWS V14.01,2013-03-04 06:20:00,
2013-03-04 00:21:00,51.5,47.2,30.00,SSE,147,1.3,3.9,85,0.00,,-RA,0.00,0.00,VWS V14.01,2013-03-04 06:21:00,
2013-03-04 00:22:00,51.5,47.2,30.00,SSE,147,3.9,5.2,85,0.00,,-RA,0.00,0.00,VWS V14.01,2013-03-04 06:22:00,
2013-03-04 00:23:00,51.5,47.2,30.00,SSE,147,2.6,3.9,85,0.00,,-RA,0.00,0.00,VWS V14.01,2013-03-04 06:23:00,
2013-03-04 00:24:00,51.5,47.2,30.00,SSE,147,3.9,3.9,85,0.00,,-RA,0.00,0.00,VWS V14.01,2013-03-04 06:24:00,
2013-03-04 00:25:00,51.5,47.2,30.00,SSE,147,1.3,5.2,85,0.00,,-RA,0.00,0.00,VWS V14.01,2013-03-04 06:25:00,
2013-03-04 00:26:00,51.4,47.0,30.00,SSE,147,0.0,1.3,85,0.00,,-RA,0.00,0.00,VWS V14.01,2013-03-04 06:26:00,
2013-03-04 00:27:00,51.4,47.0,30.00,SSE,147,1.3,6.5,85,0.00,,-RA,0.00,0.00,VWS V14.01,2013-03-04 06:27:00,
2013-03-04 00:28:00,51.4,47.0,30.00,SSE,147,0.0,2.6,85,0.00,,-RA,0.00,0.00,VWS V14.01,2013-03-04 06:28:00,
2013-03-04 00:29:00,51.4,47.0,30.00,SSE,147,6.5,6.5,85,0.00,,-RA,0.00,0.00,VWS V14.01,2013-03-04 06:29:00,
2013-03-04 00:30:00,51.4,47.0,30.00,SSE,147,2.6,7.8,85,0.00,,-RA,0.00,0.00,VWS V14.01,2013-03-04 06:30:00,
2013-03-04 00:31:00,51.3,47.0,30.00,SSE,147,1.3,3.9,85,0.00,,-RA,0.00,0.00,VWS V14.01,2013-03-04 06:31:00,
2013-03-04 00:32:00,51.3,47.0,30.00,SSE,147,3.9,3.9,85,0.00,,-RA,0.00,0.00,VWS V14.01,2013-03-04 06:32:00,
2013-03-04 00:33:00,51.3,47.0,30.00,SSE,153,5.2,9.1,85,0.00,,-RA,0.00,0.00,VWS V14.01,2013-03-04 06:33:00,
2013-03-04 00:34:00,51.3,47.0,30.00,SSE,153,1.3,6.5,85,0.00,,-RA,0.00,0.00,VWS V14.01,2013-03-04 06:34:00,
2013-03-04 00:35:00,51.3,47.3,30.00,SSE,153,2.6,5.2,86,0.00,,-RA,0.00,0.00,VWS V14.01,2013-03-04 06:35:00,
2013-03-04 00:36:00,51.2,47.2,30.00,SSE,154,5.2,5.2,86,0.00,,-RA,0.00,0.00,VWS V14.01,2013-03-04 06:36:00,
2013-03-04 00:37:00,51.2,47.2,30.00,SSE,154,0.0,5.2,86,0.00,,-RA,0.00,0.00,VWS V14.01,2013-03-04 06:37:00,
2013-03-04 00:38:00,51.2,47.2,30.00,SSE,154,0.0,6.5,86,0.00,,-RA,0.00,0.00,VWS V14.01,2013-03-04 06:38:00,
2013-03-04 00:39:00,51.2,47.2,30.01,SSE,154,0.0,3.9,86,0.00,,-RA,0.00,0.00,VWS V14.01,2013-03-04 06:39:00,
2013-03-04 00:40:00,51.2,47.2,30.01,SSE,154,0.0,5.2,86,0.00,,-RA,0.00,0.00,VWS V14.01,2013-03-04 06:40:00,
2013-03-04 00:41:00,51.2,47.2,30.01,SSE,154,0.0,1.3,86,0.00,,-RA,0.00,0.00,VWS V14.01,2013-03-04 06:41:00,
2013-03-04 00:42:00,51.2,47.2,30.01,SSE,154,1.3,5.2,86,0.00,,-RA,0.00,0.00,VWS V14.01,2013-03-04 06:42:00,
2013-03-04 00:43:00,51.1,47.1,30.01,SSE,154,0.0,1.3,86,0.00,,-RA,0.00,0.00,VWS V14.01,2013-03-04 06:43:00,
2013-03-04 00:44:00,51.1,47.1,30.01,SSE,154,0.0,0.0,86,0.00,,-RA,0.00,0.00,VWS V14.01,2013-03-04 06:44:00,
2013-03-04 00:45:00,51.1,47.1,30.01,SSE,154,0.0,0.0,86,0.00,,-RA,0.00,0.00,VWS V14.01,2013-03-04 06:45:00,
2013-03-04 00:46:00,51.1,47.1,30.00,SSE,154,0.0,0.0,86,0.00,,-RA,0.00,0.00,VWS V14.01,2013-03-04 06:46:00,
2013-03-04 00:47:00,51.1,47.1,30.01,SSE,154,0.0,0.0,86,0.00,,-RA,0.00,0.00,VWS V14.01,2013-03-04 06:47:00,
2013-03-04 00:48:00,51.1,47.1,30.00,SSE,154,0.0,0.0,86,0.00,,-RA,0.00,0.00,VWS V14.01,2013-03-04 06:48:00,
2013-03-04 00:49:00,51.0,47.0,30.00,SSE,154,0.0,0.0,86,0.00,,-RA,0.00,0.00,VWS V14.01,2013-03-04 06:49:00,
2013-03-04 00:50:00,51.0,47.0,30.00,SSE,154,0.0,0.0,86,0.00,,-RA,0.00,0.00,VWS V14.01,2013-03-04 06:50:00,
2013-03-04 00:51:00,51.0,47.0,30.00,SSE,154,3.9,3.9,86,0.00,,-RA,0.00,0.00,VWS V14.01,2013-03-04 06:51:00,
2013-03-04 00:52:00,51.0,47.0,30.00,SSE,154,0.0,6.5,86,0.00,,-RA,0.00,0.00,VWS V14.01,2013-03-04 06:52:00,
2013-03-04 00:53:00,50.9,46.9,30.00,SSE,154,3.9,5.2,86,0.00,,-RA,0.00,0.00,VWS V14.01,2013-03-04 06:53:00,
2013-03-04 00:54:00,50.9,46.9,30.00,SSE,154,0.0,3.9,86,0.00,,-RA,0.00,0.00,VWS V14.01,2013-03-04 06:54:00,
2013-03-04 00:55:00,50.9,46.9,30.00,SSE,154,3.9,5.2,86,0.00,,-RA,0.00,0.00,VWS V14.01,2013-03-04 06:55:00,
2013-03-04 00:56:00,50.9,46.9,30.00,SSE,154,3.9,5.2,86,0.00,,-RA,0.00,0.00,VWS V14.01,2013-03-04 06:56:00,
2013-03-04 00:57:00,50.9,46.9,30.00,SSE,154,0.0,1.3,86,0.00,,-RA,0.00,0.00,VWS V14.01,2013-03-04 06:57:00,
2013-03-04 00:58:00,50.8,46.8,30.00,SSE,154,0.0,5.2,86,0.00,,-RA,0.00,0.00,VWS V14.01,2013-03-04 06:58:00,
2013-03-04 00:59:00,50.8,46.8,30.00,SSE,154,1.3,5.2,86,0.00,,-RA,0.00,0.00,VWS V14.01,2013-03-04 06:59:00,
2013-03-04 01:00:00,50.8,46.8,30.00,SSE,154,1.3,3.9,86,0.00,,-RA,0.00,0.00,VWS V14.01,2013-03-04 07:00:00,
2013-03-04 01:01:00,50.8,46.8,30.00,SSE,154,3.9,7.8,86,0.00,,-RA,0.00,0.00,VWS V14.01,2013-03-04 07:01:00,
2013-03-04 01:02:00,50.8,46.8,30.00,SSE,154,5.2,7.8,86,0.00,,-RA,0.00,0.00,VWS V14.01,2013-03-04 07:02:00,
2013-03-04 01:03:00,50.8,46.8,30.00,SSE,154,1.3,5.2,86,0.00,,-RA,0.00,0.00,VWS V14.01,2013-03-04 07:03:00,
2013-03-04 01:04:00,50.8,46.8,30.00,SSE,154,1.3,5.2,86,0.00,,-RA,0.00,0.00,VWS V14.01,2013-03-04 07:04:00,
2013-03-04 01:05:00,50.8,46.8,30.00,SSE,155,6.5,6.5,86,0.00,,-RA,0.00,0.00,VWS V14.01,2013-03-04 07:05:00,
2013-03-04 01:06:00,50.7,47.0,30.00,SSE,155,6.5,6.5,87,0.00,,-RA,0.00,0.00,VWS V14.01,2013-03-04 07:06:00,
2013-03-04 01:07:00,50.8,47.1,30.00,SSE,156,3.9,6.5,87,0.00,,-RA,0.00,0.00,VWS V14.01,2013-03-04 07:07:00,
2013-03-04 01:08:00,50.8,47.1,30.00,SSE,156,2.6,7.8,87,0.00,,-RA,0.00,0.00,VWS V14.01,2013-03-04 07:08:00,
2013-03-04 01:09:00,50.8,47.1,29.99,SSE,156,3.9,7.8,87,0.00,,-RA,0.00,0.00,VWS V14.01,2013-03-04 07:09:00,
2013-03-04 01:10:00,50.8,47.1,29.99,SSE,156,3.9,7.8,87,0.00,,-RA,0.00,0.00,VWS V14.01,2013-03-04 07:10:00,
2013-03-04 01:11:00,50.8,47.1,29.99,SSE,156,3.9,7.8,87,0.00,,-RA,0.00,0.00,VWS V14.01,2013-03-04 07:11:00,
2013-03-04 01:12:00,50.8,47.1,29.99,SSE,154,3.9,7.8,87,0.00,,-RA,0.00,0.00,VWS V14.01,2013-03-04 07:12:00,
2013-03-04 01:13:00,50.8,47.1,29.99,SSE,154,3.9,3.9,87,0.00,,-RA,0.00,0.00,VWS V14.01,2013-03-04 07:13:00,
2013-03-04 01:14:00,50.8,47.1,29.99,SSE,155,2.6,7.8,87,0.00,,-RA,0.00,0.00,VWS V14.01,2013-03-04 07:14:00,
2013-03-04 01:15:00,50.8,47.1,29.99,SSE,155,2.6,7.8,87,0.00,,-RA,0.00,0.00,VWS V14.01,2013-03-04 07:15:00,
2013-03-04 01:16:00,50.9,47.2,29.99,SSE,155,0.0,6.5,87,0.00,,-RA,0.00,0.00,VWS V14.01,2013-03-04 07:16:00,
2013-03-04 01:17:00,50.9,47.5,29.99,SSE,155,0.0,0.0,88,0.00,,-RA,0.00,0.00,VWS V14.01,2013-03-04 07:17:00,
2013-03-04 01:18:00,50.9,47.5,29.99,SSE,156,3.9,9.1,88,0.00,,-RA,0.00,0.00,VWS V14.01,2013-03-04 07:18:00,
2013-03-04 01:19:00,51.0,47.6,29.99,SSE,156,3.9,7.8,88,0.00,,-RA,0.00,0.00,VWS V14.01,2013-03-04 07:19:00,
2013-03-04 01:20:00,51.0,47.6,29.99,SSE,156,3.9,7.8,88,0.00,,-RA,0.00,0.00,VWS V14.01,2013-03-04 07:20:00,
2013-03-04 01:21:00,51.0,47.6,29.99,SSE,156,0.0,5.2,88,0.00,,-RA,0.00,0.00,VWS V14.01,2013-03-04 07:21:00,
2013-03-04 01:22:00,51.0,47.6,29.99,SSE,156,2.6,3.9,88,0.00,,-RA,0.00,0.00,VWS V14.01,2013-03-04 07:22:00,
2013-03-04 01:23:00,51.0,47.6,29.99,SSE,156,2.6,7.8,88,0.00,,-RA,0.00,0.00,VWS V14.01,2013-03-04 07:23:00,
2013-03-04 01:24:00,51.1,47.7,29.99,SSE,154,1.3,5.2,88,0.00,,-RA,0.00,0.00,VWS V14.01,2013-03-04 07:24:00,
2013-03-04 01:25:00,51.1,47.7,29.99,SSE,154,1.3,5.2,88,0.00,,-RA,0.00,0.00,VWS V14.01,2013-03-04 07:25:00,
2013-03-04 01:26:00,51.1,47.7,29.99,SSE,155,1.3,7.8,88,0.00,,-RA,0.00,0.00,VWS V14.01,2013-03-04 07:26:00,
2013-03-04 01:27:00,51.1,47.7,29.99,SSE,155,2.6,3.9,88,0.00,,-RA,0.00,0.00,VWS V14.01,2013-03-04 07:27:00,
2013-03-04 01:28:00,51.1,47.7,29.99,SSE,155,6.5,6.5,88,0.00,,-RA,0.00,0.00,VWS V14.01,2013-03-04 07:28:00,
2013-03-04 01:29:00,51.2,47.8,29.99,SSE,160,3.9,10.4,88,0.00,,-RA,0.00,0.00,VWS V14.01,2013-03-04 07:29:00,
2013-03-04 01:30:00,51.2,47.8,29.99,SSE,160,3.9,10.4,88,0.00,,-RA,0.00,0.00,VWS V14.01,2013-03-04 07:30:00,
2013-03-04 01:31:00,51.2,47.8,29.99,SSE,162,7.8,7.8,88,0.00,,-RA,0.00,0.00,VWS V14.01,2013-03-04 07:31:00,
2013-03-04 01:32:00,51.2,48.1,29.99,South,173,7.8,9.1,89,0.00,,-RA,0.00,0.00,VWS V14.01,2013-03-04 07:32:00,
2013-03-04 01:33:00,51.3,48.2,29.99,South,172,6.5,9.1,89,0.00,,-RA,0.00,0.00,VWS V14.01,2013-03-04 07:33:00,
2013-03-04 01:34:00,51.3,48.2,29.99,South,170,0.0,9.1,89,0.00,,-RA,0.00,0.00,VWS V14.01,2013-03-04 07:34:00,
2013-03-04 01:35:00,51.3,48.2,29.99,South,170,0.0,9.1,89,0.00,,-RA,0.00,0.00,VWS V14.01,2013-03-04 07:35:00,
2013-03-04 01:36:00,51.3,48.2,29.99,South,170,1.3,7.8,89,0.00,,-RA,0.00,0.00,VWS V14.01,2013-03-04 07:36:00,
2013-03-04 01:37:00,51.4,48.3,29.99,SSE,166,3.9,5.2,89,0.00,,-RA,0.00,0.00,VWS V14.01,2013-03-04 07:37:00,
2013-03-04 01:38:00,51.4,48.3,29.98,SSE,166,3.9,3.9,89,0.00,,-RA,0.00,0.00,VWS V14.01,2013-03-04 07:38:00,
2013-03-04 01:39:00,51.5,48.4,29.99,SSE,164,0.0,7.8,89,0.00,,-RA,0.00,0.00,VWS V14.01,2013-03-04 07:39:00,
2013-03-04 01:40:00,51.5,48.4,29.98,SSE,164,0.0,7.8,89,0.00,,-RA,0.00,0.00,VWS V14.01,2013-03-04 07:40:00,
2013-03-04 01:41:00,51.5,48.4,29.98,SSE,164,3.9,5.2,89,0.00,,-RA,0.00,0.00,VWS V14.01,2013-03-04 07:41:00,
2013-03-04 01:42:00,51.5,48.4,29.98,SSE,163,7.8,7.8,89,0.00,,-RA,0.00,0.00,VWS V14.01,2013-03-04 07:42:00,
2013-03-04 01:43:00,51.5,48.4,29.99,SSE,163,2.6,7.8,89,0.00,,-RA,0.00,0.00,VWS V14.01,2013-03-04 07:43:00,
2013-03-04 01:44:00,51.6,48.5,29.98,SSE,162,6.5,6.5,89,0.00,,-RA,0.00,0.00,VWS V14.01,2013-03-04 07:44:00,
2013-03-04 01:45:00,51.6,48.5,29.98,SSE,162,6.5,6.5,89,0.00,,-RA,0.00,0.00,VWS V14.01,2013-03-04 07:45:00,
2013-03-04 01:46:00,51.6,48.8,29.98,SSE,162,5.2,6.5,90,0.00,,-RA,0.00,0.00,VWS V14.01,2013-03-04 07:46:00,
2013-03-04 01:47:00,51.7,48.9,29.98,SSE,160,2.6,7.8,90,0.00,,-RA,0.00,0.00,VWS V14.01,2013-03-04 07:47:00,
2013-03-04 01:48:00,51.7,48.9,29.98,SSE,160,5.2,7.8,90,0.00,,-RA,0.00,0.00,VWS V14.01,2013-03-04 07:48:00,
2013-03-04 01:49:00,51.7,48.9,29.98,SSE,158,7.8,9.1,90,0.00,,-RA,0.00,0.00,VWS V14.01,2013-03-04 07:49:00,
2013-03-04 01:50:00,51.7,48.9,29.98,SSE,158,7.8,9.1,90,0.00,,-RA,0.00,0.00,VWS V14.01,2013-03-04 07:50:00,
2013-03-04 01:51:00,51.8,49.0,29.98,SSE,157,5.2,7.8,90,0.00,,-RA,0.00,0.00,VWS V14.01,2013-03-04 07:51:00,
2013-03-04 01:52:00,51.8,49.0,29.97,SSE,156,5.2,7.8,90,0.00,,-RA,0.00,0.00,VWS V14.01,2013-03-04 07:52:00,
2013-03-04 01:53:00,51.8,49.0,29.98,SSE,156,2.6,6.5,90,0.00,,-RA,0.00,0.00,VWS V14.01,2013-03-04 07:53:00,
2013-03-04 01:54:00,51.8,49.0,29.97,SSE,147,1.3,9.1,90,0.00,,-RA,0.00,0.00,VWS V14.01,2013-03-04 07:54:00,
2013-03-04 01:55:00,51.9,49.1,29.97,SSE,147,2.6,9.1,90,0.00,,-RA,0.00,0.00,VWS V14.01,2013-03-04 07:55:00,
2013-03-04 01:56:00,51.9,49.1,29.97,SSE,150,2.6,6.5,90,0.00,,-RA,0.00,0.00,VWS V14.01,2013-03-04 07:56:00,
2013-03-04 01:57:00,51.9,49.1,29.97,SSE,148,5.2,7.8,90,0.00,,-RA,0.00,0.00,VWS V14.01,2013-03-04 07:57:00,
2013-03-04 01:58:00,51.9,49.1,29.97,SSE,148,5.2,6.5,90,0.00,,-RA,0.00,0.00,VWS V14.01,2013-03-04 07:58:00,
2013-03-04 01:59:00,51.9,49.1,29.97,SSE,148,2.6,7.8,90,0.00,,-RA,0.00,0.00,VWS V14.01,2013-03-04 07:59:00,
2013-03-04 02:00:00,51.9,49.1,29.97,SSE,147,3.9,7.8,90,0.00,,-RA,0.00,0.00,VWS V14.01,2013-03-04 08:00:00,
2013-03-04 02:01:00,52.0,49.2,29.97,SE,145,6.5,7.8,90,0.00,,-RA,0.00,0.00,VWS V14.01,2013-03-04 08:01:00,
2013-03-04 02:02:00,52.0,49.2,29.97,SE,145,0.0,7.8,90,0.00,,-RA,0.00,0.00,VWS V14.01,2013-03-04 08:02:00,
2013-03-04 02:03:00,52.0,49.2,29.97,SE,145,5.2,6.5,90,0.00,,-RA,0.00,0.00,VWS V14.01,2013-03-04 08:03:00,
2013-03-04 02:04:00,52.1,49.3,29.97,SE,145,3.9,9.1,90,0.00,,-RA,0.00,0.00,VWS V14.01,2013-03-04 08:04:00,
2013-03-04 02:05:00,52.1,49.3,29.97,SE,145,2.6,9.1,90,0.00,,-RA,0.00,0.00,VWS V14.01,2013-03-04 08:05:00,
2013-03-04 02:06:00,52.1,49.3,29.97,SE,145,7.8,9.1,90,0.00,,-RA,0.00,0.00,VWS V14.01,2013-03-04 08:06:00,
2013-03-04 02:07:00,52.1,49.3,29.97,SE,145,3.9,7.8,90,0.00,,-RA,0.00,0.00,VWS V14.01,2013-03-04 08:07:00,
2013-03-04 02:08:00,52.1,49.3,29.97,SE,145,6.5,9.1,90,0.00,,-RA,0.00,0.00,VWS V14.01,2013-03-04 08:08:00,
2013-03-04 02:09:00,52.2,49.4,29.97,SE,145,5.2,7.8,90,0.00,,-RA,0.00,0.00,VWS V14.01,2013-03-04 08:09:00,
2013-03-04 02:10:00,52.2,49.4,29.97,SE,145,1.3,7.8,90,0.00,,-RA,0.00,0.00,VWS V14.01,2013-03-04 08:10:00,
2013-03-04 02:11:00,52.2,49.4,29.97,SE,145,2.6,6.5,90,0.00,,-RA,0.00,0.00,VWS V14.01,2013-03-04 08:11:00,
2013-03-04 02:12:00,52.2,49.4,29.97,SE,145,3.9,6.5,90,0.00,,-RA,0.00,0.00,VWS V14.01,2013-03-04 08:12:00,
2013-03-04 02:13:00,52.2,49.4,29.97,SE,145,3.9,6.5,90,0.00,,-RA,0.00,0.00,VWS V14.01,2013-03-04 08:13:00,
2013-03-04 02:14:00,52.3,49.5,29.97,SE,145,5.2,5.2,90,0.00,,-RA,0.00,0.00,VWS V14.01,2013-03-04 08:14:00,
2013-03-04 02:15:00,52.3,49.5,29.97,SE,145,6.5,6.5,90,0.00,,-RA,0.00,0.00,VWS V14.01,2013-03-04 08:15:00,
2013-03-04 02:16:00,52.3,49.5,29.97,SE,145,0.0,6.5,90,0.00,,-RA,0.00,0.00,VWS V14.01,2013-03-04 08:16:00,
2013-03-04 02:17:00,52.3,49.5,29.97,SE,145,3.9,3.9,90,0.00,,-RA,0.00,0.00,VWS V14.01,2013-03-04 08:17:00,
2013-03-04 02:18:00,52.3,49.5,29.97,SE,145,0.0,6.5,90,0.00,,-RA,0.00,0.00,VWS V14.01,2013-03-04 08:18:00,
2013-03-04 02:19:00,52.3,49.5,29.97,SE,145,0.0,2.6,90,0.00,,-RA,0.00,0.00,VWS V14.01,2013-03-04 08:19:00,
2013-03-04 02:20:00,52.3,49.5,29.97,SE,145,0.0,2.6,90,0.00,,-RA,0.00,0.00,VWS V14.01,2013-03-04 08:20:00,
2013-03-04 02:21:00,52.3,49.5,29.97,SE,145,5.2,6.5,90,0.00,,-RA,0.00,0.00,VWS V14.01,2013-03-04 08:21:00,
2013-03-04 02:22:00,52.3,49.5,29.97,SE,145,1.3,5.2,90,0.00,,-RA,0.00,0.00,VWS V14.01,2013-03-04 08:22:00,
2013-03-04 02:23:00,52.3,49.5,29.97,SE,145,0.0,5.2,90,0.00,,-RA,0.00,0.00,VWS V14.01,2013-03-04 08:23:00,
2013-03-04 02:24:00,52.3,49.5,29.98,SE,145,0.0,5.2,90,0.00,,-RA,0.00,0.00,VWS V14.01,2013-03-04 08:24:00,
2013-03-04 02:25:00,52.3,49.5,29.98,SE,145,0.0,5.2,90,0.00,,-RA,0.00,0.00,VWS V14.01,2013-03-04 08:25:00,
2013-03-04 02:26:00,52.3,49.5,29.98,SE,145,2.6,5.2,90,0.00,,-RA,0.00,0.00,VWS V14.01,2013-03-04 08:26:00,
2013-03-04 02:27:00,52.3,49.5,29.97,SE,145,3.9,3.9,90,0.00,,-RA,0.00,0.00,VWS V14.01,2013-03-04 08:27:00,
2013-03-04 02:28:00,52.3,49.5,29.97,SSE,147,3.9,9.1,90,0.00,,-RA,0.00,0.00,VWS V14.01,2013-03-04 08:28:00,
2013-03-04 02:29:00,52.3,49.5,29.97,SSE,147,0.0,1.3,90,0.00,,-RA,0.00,0.00,VWS V14.01,2013-03-04 08:29:00,
2013-03-04 02:30:00,52.3,49.5,29.97,SSE,147,6.5,6.5,90,0.00,,-RA,0.00,0.00,VWS V14.01,2013-03-04 08:30:00,
2013-03-04 02:31:00,52.3,49.5,29.97,SSE,147,2.6,7.8,90,0.00,,-RA,0.00,0.00,VWS V14.01,2013-03-04 08:31:00,
2013-03-04 02:32:00,52.3,49.5,29.97,SSE,147,1.3,5.2,90,0.00,,-RA,0.00,0.00,VWS V14.01,2013-03-04 08:32:00,
2013-03-04 02:33:00,52.3,49.5,29.97,SSE,147,5.2,6.5,90,0.00,,-RA,0.00,0.00,VWS V14.01,2013-03-04 08:33:00,
2013-03-04 02:34:00,52.3,49.5,29.97,SSE,147,2.6,9.1,90,0.00,,-RA,0.00,0.00,VWS V14.01,2013-03-04 08:34:00,
2013-03-04 02:35:00,52.3,49.5,29.97,SSE,147,2.6,9.1,90,0.00,,-RA,0.00,0.00,VWS V14.01,2013-03-04 08:35:00,
2013-03-04 02:36:00,52.3,49.5,29.97,SSE,150,2.6,9.1,90,0.00,,-RA,0.00,0.00,VWS V14.01,2013-03-04 08:36:00,
2013-03-04 02:37:00,52.3,49.5,29.97,SSE,150,2.6,6.5,90,0.00,,-RA,0.00,0.00,VWS V14.01,2013-03-04 08:37:00,
2013-03-04 02:38:00,52.3,49.5,29.97,SSE,150,3.9,3.9,90,0.00,,-RA,0.00,0.00,VWS V14.01,2013-03-04 08:38:00,
2013-03-04 02:39:00,52.4,49.6,29.97,SSE,150,5.2,7.8,90,0.00,,-RA,0.00,0.00,VWS V14.01,2013-03-04 08:39:00,
2013-03-04 02:40:00,52.4,49.6,29.97,SSE,150,2.6,7.8,90,0.00,,-RA,0.00,0.00,VWS V14.01,2013-03-04 08:40:00,
2013-03-04 02:41:00,52.4,49.6,29.97,SSE,151,5.2,9.1,90,0.00,,-RA,0.00,0.00,VWS V14.01,2013-03-04 08:41:00,
2013-03-04 02:42:00,52.4,49.6,29.97,SSE,151,0.0,5.2,90,0.00,,-RA,0.00,0.00,VWS V14.01,2013-03-04 08:42:00,
2013-03-04 02:43:00,52.4,49.6,29.97,SSE,150,7.8,7.8,90,0.00,,-RA,0.00,0.00,VWS V14.01,2013-03-04 08:43:00,
2013-03-04 02:44:00,52.4,49.6,29.96,SSE,150,1.3,5.2,90,0.00,,-RA,0.00,0.00,VWS V14.01,2013-03-04 08:44:00,
2013-03-04 02:45:00,52.4,49.6,29.96,SSE,150,3.9,5.2,90,0.00,,-RA,0.00,0.00,VWS V14.01,2013-03-04 08:45:00,
2013-03-04 02:46:00,52.4,49.6,29.96,SSE,150,1.3,5.2,90,0.00,,-RA,0.00,0.00,VWS V14.01,2013-03-04 08:46:00,
2013-03-04 02:47:00,52.4,49.6,29.96,SSE,150,0.0,1.3,90,0.00,,-RA,0.00,0.00,VWS V14.01,2013-03-04 08:47:00,
2013-03-04 02:48:00,52.4,49.6,29.96,SSE,150,1.3,5.2,90,0.00,,-RA,0.00,0.00,VWS V14.01,2013-03-04 08:48:00,
2013-03-04 02:49:00,52.5,49.7,29.96,SSE,150,1.3,5.2,90,0.00,,-RA,0.00,0.00,VWS V14.01,2013-03-04 08:49:00,
2013-03-04 02:50:00,52.5,49.7,29.96,SSE,150,1.3,5.2,90,0.00,,-RA,0.00,0.00,VWS V14.01,2013-03-04 08:50:00,
2013-03-04 02:51:00,52.5,49.7,29.96,SSE,151,0.0,7.8,90,0.00,,-RA,0.00,0.00,VWS V14.01,2013-03-04 08:51:00,
2013-03-04 02:52:00,52.5,49.7,29.96,SSE,151,1.3,5.2,90,0.00,,-RA,0.00,0.00,VWS V14.01,2013-03-04 08:52:00,
2013-03-04 02:53:00,52.4,49.6,29.96,SSE,151,5.2,6.5,90,0.00,,-RA,0.00,0.00,VWS V14.01,2013-03-04 08:53:00,
2013-03-04 02:54:00,52.5,49.7,29.96,SSE,151,0.0,6.5,90,0.00,,-RA,0.00,0.00,VWS V14.01,2013-03-04 08:54:00,
2013-03-04 02:55:00,52.5,49.7,29.96,SSE,151,0.0,6.5,90,0.00,,-RA,0.00,0.00,VWS V14.01,2013-03-04 08:55:00,
2013-03-04 02:56:00,52.5,49.7,29.96,SSE,151,6.5,6.5,90,0.00,,-RA,0.00,0.00,VWS V14.01,2013-03-04 08:56:00,
2013-03-04 02:57:00,52.5,49.7,29.96,SSE,151,5.2,6.5,90,0.00,,-RA,0.00,0.00,VWS V14.01,2013-03-04 08:57:00,
2013-03-04 02:58:00,52.5,49.7,29.96,SSE,151,3.9,5.2,90,0.00,,-RA,0.00,0.00,VWS V14.01,2013-03-04 08:58:00,
2013-03-04 02:59:00,52.5,49.7,29.96,SSE,151,6.5,6.5,90,0.00,,-RA,0.00,0.00,VWS V14.01,2013-03-04 08:59:00,
2013-03-04 03:00:00,52.5,49.7,29.96,SSE,151,3.9,6.5,90,0.00,,-RA,0.00,0.00,VWS V14.01,2013-03-04 09:00:00,
2013-03-04 03:01:00,52.5,49.7,29.96,SSE,152,7.8,7.8,90,0.00,,-RA,0.00,0.00,VWS V14.01,2013-03-04 09:01:00,
2013-03-04 03:02:00,52.5,49.7,29.96,SSE,157,2.6,7.8,90,0.00,,-RA,0.00,0.00,VWS V14.01,2013-03-04 09:02:00,
2013-03-04 03:03:00,52.5,49.7,29.96,SSE,156,6.5,6.5,90,0.00,,-RA,0.00,0.00,VWS V14.01,2013-03-04 09:03:00,
2013-03-04 03:04:00,52.5,49.7,29.96,SSE,157,1.3,6.5,90,0.00,,-RA,0.00,0.00,VWS V14.01,2013-03-04 09:04:00,
2013-03-04 03:05:00,52.5,49.7,29.96,SSE,157,1.3,6.5,90,0.00,,-RA,0.00,0.00,VWS V14.01,2013-03-04 09:05:00,
2013-03-04 03:06:00,52.5,49.7,29.96,SSE,157,3.9,3.9,90,0.00,,-RA,0.00,0.00,VWS V14.01,2013-03-04 09:06:00,
2013-03-04 03:07:00,52.5,49.7,29.96,SSE,157,0.0,6.5,90,0.00,,-RA,0.00,0.00,VWS V14.01,2013-03-04 09:07:00,
2013-03-04 03:08:00,52.5,49.7,29.96,SSE,157,0.0,0.0,90,0.00,,-RA,0.00,0.00,VWS V14.01,2013-03-04 09:08:00,
2013-03-04 03:09:00,52.5,49.7,29.96,SSE,157,0.0,3.9,90,0.00,,-RA,0.00,0.00,VWS V14.01,2013-03-04 09:09:00,
2013-03-04 03:10:00,52.5,49.7,29.96,SSE,157,0.0,3.9,90,0.00,,-RA,0.00,0.00,VWS V14.01,2013-03-04 09:10:00,
2013-03-04 03:11:00,52.5,49.7,29.96,SSE,157,5.2,5.2,90,0.00,,-RA,0.00,0.00,VWS V14.01,2013-03-04 09:11:00,
2013-03-04 03:12:00,52.5,49.7,29.96,SSE,157,0.0,6.5,90,0.00,,-RA,0.00,0.00,VWS V14.01,2013-03-04 09:12:00,
2013-03-04 03:13:00,52.5,49.7,29.96,SSE,157,0.0,6.5,90,0.00,,-RA,0.00,0.00,VWS V14.01,2013-03-04 09:13:00,
2013-03-04 03:14:00,52.5,49.7,29.96,SSE,157,0.0,0.0,90,0.00,,-RA,0.00,0.00,VWS V14.01,2013-03-04 09:14:00,
2013-03-04 03:15:00,52.5,49.7,29.96,SSE,157,0.0,0.0,90,0.00,,-RA,0.00,0.00,VWS V14.01,2013-03-04 09:15:00,
2013-03-04 03:16:00,52.5,49.7,29.96,SSE,157,1.3,1.3,90,0.00,,-RA,0.00,0.00,VWS V14.01,2013-03-04 09:16:00,
2013-03-04 03:17:00,52.5,49.7,29.96,SSE,157,0.0,6.5,90,0.00,,-RA,0.00,0.00,VWS V14.01,2013-03-04 09:17:00,
2013-03-04 03:18:00,52.5,49.7,29.96,SSE,158,5.2,5.2,90,0.00,,-RA,0.00,0.00,VWS V14.01,2013-03-04 09:18:00,
2013-03-04 03:19:00,52.5,49.7,29.96,SSE,159,2.6,6.5,90,0.00,,-RA,0.00,0.00,VWS V14.01,2013-03-04 09:19:00,
2013-03-04 03:20:00,52.5,49.7,29.96,SSE,159,2.6,6.5,90,0.00,,-RA,0.00,0.00,VWS V14.01,2013-03-04 09:20:00,
2013-03-04 03:21:00,52.5,49.7,29.96,SSE,159,0.0,6.5,90,0.00,,-RA,0.00,0.00,VWS V14.01,2013-03-04 09:21:00,
2013-03-04 03:22:00,52.5,49.7,29.96,SSE,160,5.2,6.5,90,0.00,,-RA,0.00,0.00,VWS V14.01,2013-03-04 09:22:00,
2013-03-04 03:23:00,52.5,49.7,29.96,SSE,160,0.0,5.2,90,0.00,,-RA,0.00,0.00,VWS V14.01,2013-03-04 09:23:00,
2013-03-04 03:24:00,52.5,49.7,29.96,SSE,159,0.0,5.2,90,0.00,,-RA,0.00,0.00,VWS V14.01,2013-03-04 09:24:00,
2013-03-04 03:25:00,52.5,49.7,29.96,SSE,159,0.0,5.2,90,0.00,,-RA,0.00,0.00,VWS V14.01,2013-03-04 09:25:00,
2013-03-04 03:26:00,52.4,49.6,29.96,SSE,158,0.0,6.5,90,0.00,,-RA,0.00,0.00,VWS V14.01,2013-03-04 09:26:00,
2013-03-04 03:27:00,52.5,49.7,29.96,SSE,158,7.8,7.8,90,0.00,,-RA,0.00,0.00,VWS V14.01,2013-03-04 09:27:00,
2013-03-04 03:28:00,52.4,49.6,29.96,SSE,158,1.3,7.8,90,0.00,,-RA,0.00,0.00,VWS V14.01,2013-03-04 09:28:00,
2013-03-04 03:29:00,52.4,49.6,29.96,SSE,158,0.0,5.2,90,0.00,,-RA,0.00,0.00,VWS V14.01,2013-03-04 09:29:00,
2013-03-04 03:30:00,52.4,49.6,29.96,SSE,158,0.0,5.2,90,0.00,,-RA,0.00,0.00,VWS V14.01,2013-03-04 09:30:00,
2013-03-04 03:31:00,52.4,49.6,29.96,SSE,158,3.9,5.2,90,0.00,,-RA,0.00,0.00,VWS V14.01,2013-03-04 09:31:00,
2013-03-04 03:32:00,52.4,49.6,29.96,SSE,158,0.0,6.5,90,0.00,,-RA,0.00,0.00,VWS V14.01,2013-03-04 09:32:00,
2013-03-04 03:33:00,52.4,49.6,29.96,SSE,158,3.9,5.2,90,0.00,,-RA,0.00,0.00,VWS V14.01,2013-03-04 09:33:00,
2013-03-04 03:34:00,52.4,49.8,29.96,SSE,158,0.0,0.0,91,0.00,,-RA,0.00,0.00,VWS V14.01,2013-03-04 09:34:00,
2013-03-04 03:35:00,52.4,49.8,29.96,SSE,158,0.0,0.0,91,0.00,,-RA,0.00,0.00,VWS V14.01,2013-03-04 09:35:00,
2013-03-04 03:36:00,52.4,49.8,29.95,SSE,158,0.0,3.9,91,0.00,,-RA,0.00,0.00,VWS V14.01,2013-03-04 09:36:00,
2013-03-04 03:37:00,52.4,49.8,29.95,SSE,157,6.5,6.5,91,0.00,,-RA,0.00,0.00,VWS V14.01,2013-03-04 09:37:00,
2013-03-04 03:38:00,52.4,49.8,29.95,SSE,155,1.3,7.8,91,0.00,,-RA,0.00,0.00,VWS V14.01,2013-03-04 09:38:00,
2013-03-04 03:39:00,52.4,49.8,29.95,SSE,154,2.6,6.5,91,0.00,,-RA,0.00,0.00,VWS V14.01,2013-03-04 09:39:00,
2013-03-04 03:40:00,52.4,49.8,29.95,SSE,154,2.6,6.5,91,0.00,,-RA,0.00,0.00,VWS V14.01,2013-03-04 09:40:00,
2013-03-04 03:41:00,52.4,49.8,29.95,SSE,155,3.9,5.2,91,0.00,,-RA,0.00,0.00,VWS V14.01,2013-03-04 09:41:00,
2013-03-04 03:42:00,52.4,49.8,29.95,SSE,154,0.0,5.2,91,0.00,,-RA,0.00,0.00,VWS V14.01,2013-03-04 09:42:00,
2013-03-04 03:43:00,52.4,49.8,29.95,SSE,154,2.6,6.5,91,0.00,,-RA,0.00,0.00,VWS V14.01,2013-03-04 09:43:00,
2013-03-04 03:44:00,52.4,49.6,29.95,SSE,154,2.6,6.5,90,0.00,,-RA,0.00,0.00,VWS V14.01,2013-03-04 09:44:00,
2013-03-04 03:45:00,52.3,49.5,29.95,SSE,154,1.3,6.5,90,0.00,,-RA,0.00,0.00,VWS V14.01,2013-03-04 09:45:00,
2013-03-04 03:46:00,52.3,49.8,29.95,SSE,154,5.2,6.5,91,0.00,,-RA,0.00,0.00,VWS V14.01,2013-03-04 09:46:00,
2013-03-04 03:47:00,52.3,49.8,29.95,SSE,154,5.2,6.5,91,0.00,,-RA,0.00,0.00,VWS V14.01,2013-03-04 09:47:00,
2013-03-04 03:48:00,52.3,49.8,29.95,SSE,154,3.9,5.2,91,0.00,,-RA,0.00,0.00,VWS V14.01,2013-03-04 09:48:00,
2013-03-04 03:49:00,52.3,49.8,29.95,SSE,154,1.3,6.5,91,0.00,,-RA,0.00,0.00,VWS V14.01,2013-03-04 09:49:00,
2013-03-04 03:50:00,52.3,49.8,29.95,SSE,154,1.3,6.5,91,0.00,,-RA,0.00,0.00,VWS V14.01,2013-03-04 09:50:00,
2013-03-04 03:51:00,52.3,49.8,29.95,SSE,154,2.6,5.2,91,0.00,,-RA,0.00,0.00,VWS V14.01,2013-03-04 09:51:00,
2013-03-04 03:52:00,52.3,49.8,29.95,SSE,154,1.3,2.6,91,0.00,,-RA,0.00,0.00,VWS V14.01,2013-03-04 09:52:00,
2013-03-04 03:53:00,52.3,49.8,29.95,SSE,154,3.9,3.9,91,0.00,,-RA,0.00,0.00,VWS V14.01,2013-03-04 09:53:00,
2013-03-04 03:54:00,52.3,49.8,29.95,SSE,154,0.0,5.2,91,0.00,,-RA,0.00,0.00,VWS V14.01,2013-03-04 09:54:00,
2013-03-04 03:55:00,52.3,49.8,29.95,SSE,154,0.0,5.2,91,0.00,,-RA,0.00,0.00,VWS V14.01,2013-03-04 09:55:00,
2013-03-04 03:56:00,52.3,49.8,29.95,SSE,155,3.9,9.1,91,0.00,,-RA,0.00,0.00,VWS V14.01,2013-03-04 09:56:00,
2013-03-04 03:57:00,52.3,49.8,29.95,SSE,154,2.6,6.5,91,0.00,,-RA,0.00,0.00,VWS V14.01,2013-03-04 09:57:00,
2013-03-04 03:58:00,52.3,49.8,29.94,SSE,155,1.3,5.2,91,0.00,,-RA,0.00,0.00,VWS V14.01,2013-03-04 09:58:00,
2013-03-04 03:59:00,52.3,49.8,29.94,SSE,156,2.6,3.9,91,0.00,,-RA,0.00,0.00,VWS V14.01,2013-03-04 09:59:00,
2013-03-04 04:00:00,52.3,49.8,29.94,SSE,156,3.9,3.9,91,0.00,,-RA,0.00,0.00,VWS V14.01,2013-03-04 10:00:00,
2013-03-04 04:01:00,52.3,49.8,29.94,SSE,156,3.9,7.8,91,0.00,,-RA,0.00,0.00,VWS V14.01,2013-03-04 10:01:00,
2013-03-04 04:02:00,52.3,49.8,29.95,SSE,156,1.3,7.8,91,0.00,,-RA,0.00,0.00,VWS V14.01,2013-03-04 10:02:00,
2013-03-04 04:03:00,52.3,49.8,29.95,SSE,156,5.2,6.5,91,0.00,,-RA,0.00,0.00,VWS V14.01,2013-03-04 10:03:00,
2013-03-04 04:04:00,52.3,49.8,29.95,SSE,157,5.2,7.8,91,0.00,,-RA,0.00,0.00,VWS V14.01,2013-03-04 10:04:00,
2013-03-04 04:05:00,52.3,49.8,29.95,SSE,157,7.8,7.8,91,0.00,,-RA,0.00,0.00,VWS V14.01,2013-03-04 10:05:00,
2013-03-04 04:06:00,52.3,49.8,29.95,SSE,157,6.5,7.8,91,0.00,,-RA,0.00,0.00,VWS V14.01,2013-03-04 10:06:00,
2013-03-04 04:07:00,52.3,49.8,29.95,SSE,157,3.9,7.8,91,0.00,,-RA,0.00,0.00,VWS V14.01,2013-03-04 10:07:00,
2013-03-04 04:08:00,52.3,49.8,29.95,SSE,157,3.9,5.2,91,0.00,,-RA,0.00,0.00,VWS V14.01,2013-03-04 10:08:00,
2013-03-04 04:09:00,52.3,49.8,29.94,SSE,155,6.5,7.8,91,0.00,,-RA,0.00,0.00,VWS V14.01,2013-03-04 10:09:00,
2013-03-04 04:10:00,52.3,49.8,29.94,SSE,155,7.8,7.8,91,0.00,,-RA,0.00,0.00,VWS V14.01,2013-03-04 10:10:00,
2013-03-04 04:11:00,52.3,49.8,29.94,SSE,155,3.9,7.8,91,0.00,,-RA,0.00,0.00,VWS V14.01,2013-03-04 10:11:00,
2013-03-04 04:12:00,52.3,49.8,29.94,SSE,156,0.0,7.8,91,0.00,,-RA,0.00,0.00,VWS V14.01,2013-03-04 10:12:00,
2013-03-04 04:13:00,52.4,49.8,29.94,SSE,156,7.8,11.7,91,0.00,,-RA,0.00,0.00,VWS V14.01,2013-03-04 10:13:00,
2013-03-04 04:14:00,52.4,49.8,29.94,SSE,156,1.3,1.3,91,0.00,,-RA,0.00,0.00,VWS V14.01,2013-03-04 10:14:00,
2013-03-04 04:15:00,52.4,49.8,29.94,SSE,156,0.0,11.7,91,0.00,,-RA,0.00,0.00,VWS V14.01,2013-03-04 10:15:00,
2013-03-04 04:16:00,52.4,49.8,29.94,SSE,156,3.9,7.8,91,0.00,,-RA,0.00,0.00,VWS V14.01,2013-03-04 10:16:00,
2013-03-04 04:17:00,52.4,49.8,29.94,SSE,156,6.5,7.8,91,0.00,,-RA,0.00,0.00,VWS V14.01,2013-03-04 10:17:00,
2013-03-04 04:18:00,52.4,49.8,29.94,SSE,155,0.0,7.8,91,0.00,,-RA,0.00,0.00,VWS V14.01,2013-03-04 10:18:00,
2013-03-04 04:19:00,52.5,50.0,29.94,SSE,155,2.6,6.5,91,0.00,,-RA,0.00,0.00,VWS V14.01,2013-03-04 10:19:00,
2013-03-04 04:20:00,52.4,49.8,29.94,SSE,155,6.5,6.5,91,0.00,,-RA,0.00,0.00,VWS V14.01,2013-03-04 10:20:00,
2013-03-04 04:21:00,52.5,50.0,29.94,SSE,156,6.5,7.8,91,0.00,,-RA,0.00,0.00,VWS V14.01,2013-03-04 10:21:00,
2013-03-04 04:22:00,52.5,50.0,29.94,SSE,156,9.1,9.1,91,0.00,,-RA,0.00,0.00,VWS V14.01,2013-03-04 10:22:00,
2013-03-04 04:23:00,52.5,50.0,29.94,SSE,158,2.6,9.1,91,0.00,,-RA,0.00,0.00,VWS V14.01,2013-03-04 10:23:00,
2013-03-04 04:24:00,52.5,50.0,29.95,SSE,158,3.9,5.2,91,0.00,,-RA,0.00,0.00,VWS V14.01,2013-03-04 10:24:00,
2013-03-04 04:25:00,52.5,50.0,29.94,SSE,158,5.2,6.5,91,0.00,,-RA,0.00,0.00,VWS V14.01,2013-03-04 10:25:00,
2013-03-04 04:26:00,52.6,50.0,29.95,SSE,158,0.0,5.2,91,0.00,,-RA,0.00,0.00,VWS V14.01,2013-03-04 10:26:00,
2013-03-04 04:27:00,52.6,50.0,29.94,SSE,158,3.9,5.2,91,0.00,,-RA,0.00,0.00,VWS V14.01,2013-03-04 10:27:00,
2013-03-04 04:28:00,52.6,50.0,29.95,SSE,158,2.6,6.5,91,0.00,,-RA,0.00,0.00,VWS V14.01,2013-03-04 10:28:00,
2013-03-04 04:29:00,52.7,50.2,29.94,SSE,160,6.5,6.5,91,0.00,,-RA,0.00,0.00,VWS V14.01,2013-03-04 10:29:00,
2013-03-04 04:30:00,52.7,50.2,29.95,SSE,160,2.6,7.8,91,0.00,,-RA,0.00,0.00,VWS V14.01,2013-03-04 10:30:00,
2013-03-04 04:31:00,52.7,50.2,29.94,SSE,160,6.5,6.5,91,0.00,,-RA,0.00,0.00,VWS V14.01,2013-03-04 10:31:00,
2013-03-04 04:32:00,52.7,50.2,29.94,SSE,160,1.3,7.8,91,0.00,,-RA,0.00,0.00,VWS V14.01,2013-03-04 10:32:00,
2013-03-04 04:33:00,52.7,50.2,29.94,SSE,162,7.8,9.1,91,0.00,,-RA,0.00,0.00,VWS V14.01,2013-03-04 10:33:00,
2013-03-04 04:34:00,52.8,50.2,29.94,SSE,157,7.8,9.1,91,0.00,,-RA,0.00,0.00,VWS V14.01,2013-03-04 10:34:00,
2013-03-04 04:35:00,52.8,50.2,29.94,SSE,163,9.1,9.1,91,0.00,,-RA,0.00,0.00,VWS V14.01,2013-03-04 10:35:00,
2013-03-04 04:36:00,52.8,50.2,29.94,SSE,157,0.0,9.1,91,0.00,,-RA,0.00,0.00,VWS V14.01,2013-03-04 10:36:00,
2013-03-04 04:37:00,52.8,50.2,29.94,SSE,160,5.2,7.8,91,0.00,,-RA,0.00,0.00,VWS V14.01,2013-03-04 10:37:00,
2013-03-04 04:38:00,52.8,50.2,29.94,SSE,160,1.3,7.8,91,0.00,,-RA,0.00,0.00,VWS V14.01,2013-03-04 10:38:00,
2013-03-04 04:39:00,52.8,50.2,29.94,SSE,160,0.0,3.9,91,0.00,,-RA,0.00,0.00,VWS V14.01,2013-03-04 10:39:00,
2013-03-04 04:40:00,52.8,50.2,29.94,SSE,160,3.9,6.5,91,0.00,,-RA,0.00,0.00,VWS V14.01,2013-03-04 10:40:00,
2013-03-04 04:41:00,52.8,50.5,29.94,SSE,160,5.2,5.2,92,0.00,,-RA,0.00,0.00,VWS V14.01,2013-03-04 10:41:00,
2013-03-04 04:42:00,52.8,50.5,29.94,SSE,160,0.0,7.8,92,0.00,,-RA,0.00,0.00,VWS V14.01,2013-03-04 10:42:00,
2013-03-04 04:43:00,52.8,50.2,29.94,SSE,160,6.5,7.8,91,0.00,,-RA,0.00,0.00,VWS V14.01,2013-03-04 10:43:00,
2013-03-04 04:44:00,52.9,50.6,29.94,SSE,161,7.8,7.8,92,0.00,,-RA,0.00,0.00,VWS V14.01,2013-03-04 10:44:00,
2013-03-04 04:45:00,52.8,50.5,29.94,SSE,161,5.2,9.1,92,0.00,,-RA,0.00,0.00,VWS V14.01,2013-03-04 10:45:00,
2013-03-04 04:46:00,52.8,50.5,29.94,SSE,160,7.8,7.8,92,0.00,,-RA,0.00,0.00,VWS V14.01,2013-03-04 10:46:00,
2013-03-04 04:47:00,52.9,50.6,29.94,SSE,161,6.5,9.1,92,0.00,,-RA,0.00,0.00,VWS V14.01,2013-03-04 10:47:00,
2013-03-04 04:48:00,52.9,50.6,29.94,SSE,161,7.8,7.8,92,0.00,,-RA,0.00,0.00,VWS V14.01,2013-03-04 10:48:00,
2013-03-04 04:49:00,52.9,50.6,29.93,SSE,160,7.8,7.8,92,0.00,,-RA,0.00,0.00,VWS V14.01,2013-03-04 10:49:00,
2013-03-04 04:50:00,52.9,50.6,29.94,SSE,160,7.8,9.1,92,0.00,,-RA,0.00,0.00,VWS V14.01,2013-03-04 10:50:00,
2013-03-04 04:51:00,52.9,50.6,29.93,SSE,159,6.5,7.8,92,0.00,,-RA,0.00,0.00,VWS V14.01,2013-03-04 10:51:00,
2013-03-04 04:52:00,52.9,50.6,29.93,SSE,159,3.9,7.8,92,0.00,,-RA,0.00,0.00,VWS V14.01,2013-03-04 10:52:00,
2013-03-04 04:53:00,53.0,50.7,29.93,SSE,158,5.2,7.8,92,0.00,,-RA,0.00,0.00,VWS V14.01,2013-03-04 10:53:00,
2013-03-04 04:54:00,53.0,50.7,29.94,SSE,160,5.2,9.1,92,0.00,,-RA,0.00,0.00,VWS V14.01,2013-03-04 10:54:00,
2013-03-04 04:55:00,52.9,50.6,29.94,SSE,160,6.5,9.1,92,0.00,,-RA,0.00,0.00,VWS V14.01,2013-03-04 10:55:00,
2013-03-04 04:56:00,53.0,50.7,29.94,SSE,149,7.8,13.0,92,0.00,,-RA,0.00,0.00,VWS V14.01,2013-03-04 10:56:00,
2013-03-04 04:57:00,53.0,50.7,29.94,SSE,151,3.9,7.8,92,0.00,,-RA,0.00,0.00,VWS V14.01,2013-03-04 10:57:00,
2013-03-04 04:58:00,53.0,50.7,29.93,SSE,151,6.5,6.5,92,0.00,,-RA,0.00,0.00,VWS V14.01,2013-03-04 10:58:00,
2013-03-04 04:59:00,53.0,50.7,29.93,SSE,151,11.7,11.7,92,0.00,,-RA,0.00,0.00,VWS V14.01,2013-03-04 10:59:00,
2013-03-04 05:00:00,53.0,50.7,29.93,SSE,151,6.5,9.1,92,0.00,,-RA,0.00,0.00,VWS V14.01,2013-03-04 11:00:00,
2013-03-04 05:01:00,53.1,50.8,29.93,SSE,151,7.8,11.7,92,0.00,,-RA,0.00,0.00,VWS V14.01,2013-03-04 11:01:00,
2013-03-04 05:02:00,53.0,50.7,29.93,SSE,152,2.6,10.4,92,0.00,,-RA,0.00,0.00,VWS V14.01,2013-03-04 11:02:00,
2013-03-04 05:03:00,53.1,50.8,29.93,SSE,152,3.9,9.1,92,0.00,,-RA,0.00,0.00,VWS V14.01,2013-03-04 11:03:00,
2013-03-04 05:04:00,53.1,50.8,29.93,SSE,152,3.9,6.5,92,0.00,,-RA,0.00,0.00,VWS V14.01,2013-03-04 11:04:00,
2013-03-04 05:05:00,53.1,50.8,29.93,SSE,152,6.5,11.7,92,0.00,,-RA,0.00,0.00,VWS V14.01,2013-03-04 11:05:00,
2013-03-04 05:06:00,53.1,50.8,29.93,SSE,152,6.5,6.5,92,0.00,,-RA,0.00,0.00,VWS V14.01,2013-03-04 11:06:00,
2013-03-04 05:07:00,53.1,50.8,29.93,SSE,151,5.2,10.4,92,0.00,,-RA,0.00,0.00,VWS V14.01,2013-03-04 11:07:00,
2013-03-04 05:08:00,53.1,50.8,29.93,SSE,151,2.6,5.2,92,0.00,,-RA,0.00,0.00,VWS V14.01,2013-03-04 11:08:00,
2013-03-04 05:09:00,53.1,50.8,29.93,SSE,151,6.5,7.8,92,0.00,,-RA,0.00,0.00,VWS V14.01,2013-03-04 11:09:00,
2013-03-04 05:10:00,53.1,50.8,29.93,SSE,152,5.2,9.1,92,0.00,,-RA,0.00,0.00,VWS V14.01,2013-03-04 11:10:00,
2013-03-04 05:11:00,53.1,50.8,29.93,SSE,151,6.5,7.8,92,0.00,,-RA,0.00,0.00,VWS V14.01,2013-03-04 11:11:00,
2013-03-04 05:12:00,53.2,50.9,29.93,SSE,152,1.3,11.7,92,0.00,,-RA,0.00,0.00,VWS V14.01,2013-03-04 11:12:00,
2013-03-04 05:13:00,53.2,50.9,29.93,SSE,152,5.2,9.1,92,0.00,,-RA,0.00,0.00,VWS V14.01,2013-03-04 11:13:00,
2013-03-04 05:14:00,53.2,50.9,29.93,SSE,152,0.0,6.5,92,0.00,,-RA,0.00,0.00,VWS V14.01,2013-03-04 11:14:00,
2013-03-04 05:15:00,53.2,50.9,29.93,SSE,152,2.6,9.1,92,0.00,,-RA,0.00,0.00,VWS V14.01,2013-03-04 11:15:00,
2013-03-04 05:16:00,53.2,50.9,29.93,SSE,155,9.1,9.1,92,0.00,,-RA,0.00,0.00,VWS V14.01,2013-03-04 11:16:00,
2013-03-04 05:17:00,53.2,50.9,29.93,SSE,156,3.9,9.1,92,0.00,,-RA,0.00,0.00,VWS V14.01,2013-03-04 11:17:00,
2013-03-04 05:18:00,53.2,50.9,29.93,SSE,156,7.8,9.1,92,0.00,,-RA,0.00,0.00,VWS V14.01,2013-03-04 11:18:00,
2013-03-04 05:19:00,53.2,50.9,29.93,SSE,152,7.8,7.8,92,0.00,,-RA,0.00,0.00,VWS V14.01,2013-03-04 11:19:00,
2013-03-04 05:20:00,53.2,50.9,29.93,SSE,150,0.0,10.4,92,0.00,,-RA,0.00,0.00,VWS V14.01,2013-03-04 11:20:00,
2013-03-04 05:21:00,53.3,51.0,29.93,SSE,161,9.1,11.7,92,0.00,,-RA,0.00,0.00,VWS V14.01,2013-03-04 11:21:00,
2013-03-04 05:22:00,53.3,51.0,29.92,SSE,147,7.8,14.3,92,0.00,,-RA,0.00,0.00,VWS V14.01,2013-03-04 11:22:00,
2013-03-04 05:23:00,53.3,51.0,29.92,SSE,150,5.2,9.1,92,0.00,,-RA,0.00,0.00,VWS V14.01,2013-03-04 11:23:00,
2013-03-04 05:24:00,53.3,51.0,29.93,SSE,158,6.5,6.5,92,0.00,,-RA,0.00,0.00,VWS V14.01,2013-03-04 11:24:00,
2013-03-04 05:25:00,53.3,51.0,29.92,SSE,158,6.5,7.8,92,0.00,,-RA,0.00,0.00,VWS V14.01,2013-03-04 11:25:00,
2013-03-04 05:26:00,53.3,51.0,29.93,SSE,158,7.8,7.8,92,0.00,,-RA,0.00,0.00,VWS V14.01,2013-03-04 11:26:00,
2013-03-04 05:27:00,53.4,51.1,29.92,SSE,158,9.1,9.1,92,0.00,,-RA,0.00,0.00,VWS V14.01,2013-03-04 11:27:00,
2013-03-04 05:28:00,53.4,51.1,29.93,SSE,157,3.9,9.1,92,0.00,,-RA,0.00,0.00,VWS V14.01,2013-03-04 11:28:00,
2013-03-04 05:29:00,53.4,51.1,29.92,SSE,156,11.7,11.7,92,0.00,,-RA,0.00,0.00,VWS V14.01,2013-03-04 11:29:00,
2013-03-04 05:30:00,53.4,51.1,29.92,SSE,158,5.2,7.8,92,0.00,,-RA,0.00,0.00,VWS V14.01,2013-03-04 11:30:00,
2013-03-04 05:31:00,53.4,51.1,29.92,SSE,158,9.1,11.7,92,0.00,,-RA,0.00,0.00,VWS V14.01,2013-03-04 11:31:00,
2013-03-04 05:32:00,53.4,51.1,29.92,SSE,156,2.6,9.1,92,0.00,,-RA,0.00,0.00,VWS V14.01,2013-03-04 11:32:00,
2013-03-04 05:33:00,53.5,51.2,29.92,SSE,155,5.2,9.1,92,0.00,,-RA,0.00,0.00,VWS V14.01,2013-03-04 11:33:00,
2013-03-04 05:34:00,53.5,51.2,29.92,SSE,153,3.9,9.1,92,0.00,,-RA,0.00,0.00,VWS V14.01,2013-03-04 11:34:00,
2013-03-04 05:35:00,53.5,51.2,29.92,SSE,152,6.5,6.5,92,0.00,,-RA,0.00,0.00,VWS V14.01,2013-03-04 11:35:00,
2013-03-04 05:36:00,53.6,51.3,29.92,SSE,150,6.5,9.1,92,0.00,,-RA,0.00,0.00,VWS V14.01,2013-03-04 11:36:00,
2013-03-04 05:37:00,53.6,51.3,29.92,SE,142,7.8,11.7,92,0.00,,-RA,0.00,0.00,VWS V14.01,2013-03-04 11:37:00,
2013-03-04 05:38:00,53.6,51.3,29.92,SSE,148,1.3,9.1,92,0.00,,-RA,0.00,0.00,VWS V14.01,2013-03-04 11:38:00,
2013-03-04 05:39:00,53.6,51.3,29.91,SSE,154,7.8,13.0,92,0.00,,-RA,0.00,0.00,VWS V14.01,2013-03-04 11:39:00,
2013-03-04 05:40:00,53.7,51.4,29.91,SSE,161,3.9,15.6,92,0.00,,-RA,0.00,0.00,VWS V14.01,2013-03-04 11:40:00,
2013-03-04 05:41:00,53.7,51.4,29.91,SE,129,6.5,15.6,92,0.00,,-RA,0.00,0.00,VWS V14.01,2013-03-04 11:41:00,
2013-03-04 05:42:00,53.7,51.4,29.91,SSE,162,13.0,15.6,92,0.00,,-RA,0.00,0.00,VWS V14.01,2013-03-04 11:42:00,
2013-03-04 05:43:00,53.7,51.4,29.91,South,180,11.7,15.6,92,0.00,,-RA,0.00,0.00,VWS V14.01,2013-03-04 11:43:00,
2013-03-04 05:44:00,53.8,51.5,29.92,SSE,150,5.2,11.7,92,0.00,,-RA,0.00,0.00,VWS V14.01,2013-03-04 11:44:00,
2013-03-04 05:45:00,53.8,51.5,29.92,SSE,153,7.8,13.0,92,0.00,,-RA,0.00,0.00,VWS V14.01,2013-03-04 11:45:00,
2013-03-04 05:46:00,53.9,51.6,29.92,SSE,154,5.2,13.0,92,0.00,,-RA,0.00,0.00,VWS V14.01,2013-03-04 11:46:00,
2013-03-04 05:47:00,53.9,51.6,29.92,South,172,9.1,13.0,92,0.00,,-RA,0.00,0.00,VWS V14.01,2013-03-04 11:47:00,
2013-03-04 05:48:00,54.0,51.7,29.92,South,179,14.3,15.6,92,0.00,,-RA,0.00,0.00,VWS V14.01,2013-03-04 11:48:00,
2013-03-04 05:49:00,54.0,51.7,29.92,South,169,5.2,14.3,92,0.00,,-RA,0.00,0.00,VWS V14.01,2013-03-04 11:49:00,
2013-03-04 05:50:00,54.1,51.8,29.92,SSE,154,7.8,11.7,92,0.00,,-RA,0.00,0.00,VWS V14.01,2013-03-04 11:50:00,
2013-03-04 05:51:00,54.1,51.8,29.92,SSE,160,3.9,11.7,92,0.00,,-RA,0.00,0.00,VWS V14.01,2013-03-04 11:51:00,
2013-03-04 05:52:00,54.1,51.8,29.92,South,181,7.8,19.5,92,0.00,,-RA,0.00,0.00,VWS V14.01,2013-03-04 11:52:00,
2013-03-04 05:53:00,54.2,51.9,29.92,South,180,5.2,14.3,92,0.00,,-RA,0.00,0.00,VWS V14.01,2013-03-04 11:53:00,
2013-03-04 05:54:00,54.3,52.0,29.92,South,184,13.0,13.0,92,0.00,,-RA,0.00,0.00,VWS V14.01,2013-03-04 11:54:00,
2013-03-04 05:55:00,54.4,52.1,29.93,South,170,5.2,6.5,92,0.00,,-RA,0.00,0.00,VWS V14.01,2013-03-04 11:55:00,
2013-03-04 05:56:00,54.3,52.0,29.93,South,170,3.9,6.5,92,0.00,,-RA,0.00,0.00,VWS V14.01,2013-03-04 11:56:00,
2013-03-04 05:57:00,54.4,52.1,29.93,South,169,11.7,14.3,92,0.00,,-RA,0.00,0.00,VWS V14.01,2013-03-04 11:57:00,
2013-03-04 05:58:00,54.4,52.1,29.93,South,171,6.5,11.7,92,0.00,,-RA,0.00,0.00,VWS V14.01,2013-03-04 11:58:00,
2013-03-04 05:59:00,54.4,52.1,29.93,South,174,11.7,11.7,92,0.00,,-RA,0.00,0.00,VWS V14.01,2013-03-04 11:59:00,
2013-03-04 06:00:00,54.5,52.2,29.93,South,170,5.2,10.4,92,0.00,,-RA,0.00,0.00,VWS V14.01,2013-03-04 12:00:00,
2013-03-04 06:01:00,54.5,52.2,29.93,South,170,6.5,10.4,92,0.00,,-RA,0.00,0.00,VWS V14.01,2013-03-04 12:01:00,
2013-03-04 06:02:00,54.6,52.3,29.93,South,175,7.8,11.7,92,0.00,,-RA,0.00,0.00,VWS V14.01,2013-03-04 12:02:00,
2013-03-04 06:03:00,54.6,52.3,29.93,South,175,5.2,7.8,92,0.00,,-RA,0.00,0.00,VWS V14.01,2013-03-04 12:03:00,
2013-03-04 06:04:00,54.6,52.3,29.93,SSE,166,10.4,13.0,92,0.00,,-RA,0.00,0.00,VWS V14.01,2013-03-04 12:04:00,
2013-03-04 06:05:00,54.7,52.4,29.93,SSE,168,6.5,9.1,92,0.00,,-RA,0.00,0.00,VWS V14.01,2013-03-04 12:05:00,
2013-03-04 06:06:00,54.7,52.4,29.93,South,171,11.7,11.7,92,0.00,,-RA,0.00,0.00,VWS V14.01,2013-03-04 12:06:00,
2013-03-04 06:07:00,54.7,52.4,29.93,South,174,7.8,13.0,92,0.00,,-RA,0.00,0.00,VWS V14.01,2013-03-04 12:07:00,
2013-03-04 06:08:00,54.8,52.5,29.93,SSE,154,5.2,14.3,92,0.00,,-RA,0.00,0.00,VWS V14.01,2013-03-04 12:08:00,
2013-03-04 06:09:00,54.8,52.5,29.93,South,183,2.6,15.6,92,0.00,,-RA,0.00,0.00,VWS V14.01,2013-03-04 12:09:00,
2013-03-04 06:10:00,54.8,52.2,29.93,South,175,3.9,13.0,91,0.00,,-RA,0.00,0.00,VWS V14.01,2013-03-04 12:10:00,
2013-03-04 06:11:00,54.8,52.2,29.93,South,185,10.4,13.0,91,0.00,,-RA,0.00,0.00,VWS V14.01,2013-03-04 12:11:00,
2013-03-04 06:12:00,54.8,52.2,29.93,South,183,7.8,10.4,91,0.00,,-RA,0.00,0.00,VWS V14.01,2013-03-04 12:12:00,
2013-03-04 06:13:00,54.8,52.2,29.93,South,187,6.5,14.3,91,0.00,,-RA,0.00,0.00,VWS V14.01,2013-03-04 12:13:00,
2013-03-04 06:14:00,54.8,52.2,29.93,South,187,5.2,6.5,91,0.00,,-RA,0.00,0.00,VWS V14.01,2013-03-04 12:14:00,
2013-03-04 06:15:00,54.9,52.3,29.93,South,181,3.9,9.1,91,0.00,,-RA,0.00,0.00,VWS V14.01,2013-03-04 12:15:00,
2013-03-04 06:16:00,54.9,52.3,29.93,South,181,3.9,9.1,91,0.00,,-RA,0.00,0.00,VWS V14.01,2013-03-04 12:16:00,
2013-03-04 06:17:00,54.9,52.3,29.93,South,180,5.2,13.0,91,0.00,,-RA,0.00,0.00,VWS V14.01,2013-03-04 12:17:00,
2013-03-04 06:18:00,54.9,52.3,29.93,South,190,3.9,11.7,91,0.00,,-RA,0.00,0.00,VWS V14.01,2013-03-04 12:18:00,
2013-03-04 06:19:00,54.9,52.3,29.93,South,180,7.8,13.0,91,0.00,,-RA,0.00,0.00,VWS V14.01,2013-03-04 12:19:00,
2013-03-04 06:20:00,55.0,52.4,29.93,South,172,2.6,7.8,91,0.00,,-RA,0.00,0.00,VWS V14.01,2013-03-04 12:20:00,
2013-03-04 06:21:00,55.0,52.4,29.93,South,172,2.6,7.8,91,0.00,,-RA,0.00,0.00,VWS V14.01,2013-03-04 12:21:00,
2013-03-04 06:22:00,55.0,52.4,29.93,South,175,3.9,9.1,91,0.00,,-RA,0.00,0.00,VWS V14.01,2013-03-04 12:22:00,
2013-03-04 06:23:00,55.0,52.4,29.93,South,177,9.1,9.1,91,0.00,,-RA,0.00,0.00,VWS V14.01,2013-03-04 12:23:00,
2013-03-04 06:24:00,55.0,52.4,29.93,South,177,2.6,9.1,91,0.00,,-RA,0.00,0.00,VWS V14.01,2013-03-04 12:24:00,
2013-03-04 06:25:00,55.0,52.4,29.93,South,177,3.9,7.8,91,0.00,,-RA,0.00,0.00,VWS V14.01,2013-03-04 12:25:00,
2013-03-04 06:26:00,55.0,52.4,29.93,South,177,3.9,7.8,91,0.00,,-RA,0.00,0.00,VWS V14.01,2013-03-04 12:26:00,
2013-03-04 06:27:00,55.0,52.4,29.93,South,179,6.5,7.8,91,0.00,,-RA,0.00,0.00,VWS V14.01,2013-03-04 12:27:00,
2013-03-04 06:28:00,55.0,52.4,29.93,South,180,5.2,10.4,91,0.00,,-RA,0.00,0.00,VWS V14.01,2013-03-04 12:28:00,
2013-03-04 06:29:00,55.0,52.4,29.93,South,178,3.9,7.8,91,0.00,,-RA,0.00,0.00,VWS V14.01,2013-03-04 12:29:00,
2013-03-04 06:30:00,55.0,52.4,29.93,South,172,1.3,6.5,91,0.00,,-RA,0.00,0.00,VWS V14.01,2013-03-04 12:30:00,
2013-03-04 06:31:00,55.0,52.4,29.93,South,172,1.3,6.5,91,0.00,,-RA,0.00,0.00,VWS V14.01,2013-03-04 12:31:00,
2013-03-04 06:32:00,55.0,52.4,29.93,South,172,5.2,9.1,91,0.00,,-RA,0.00,0.00,VWS V14.01,2013-03-04 12:32:00,
2013-03-04 06:33:00,55.0,52.4,29.93,South,172,5.2,6.5,91,0.00,,-RA,0.00,0.00,VWS V14.01,2013-03-04 12:33:00,
2013-03-04 06:34:00,55.0,52.4,29.93,South,172,0.0,5.2,91,0.00,,-RA,0.00,0.00,VWS V14.01,2013-03-04 12:34:00,
2013-03-04 06:35:00,55.0,52.4,29.93,South,172,6.5,6.5,91,0.00,,-RA,0.00,0.00,VWS V14.01,2013-03-04 12:35:00,
2013-03-04 06:36:00,55.0,52.4,29.93,South,172,6.5,6.5,91,0.00,,-RA,0.00,0.00,VWS V14.01,2013-03-04 12:36:00,
2013-03-04 06:37:00,55.0,52.1,29.93,South,171,3.9,11.7,90,0.00,,-RA,0.00,0.00,VWS V14.01,2013-03-04 12:37:00,
2013-03-04 06:38:00,55.0,52.4,29.93,South,171,6.5,11.7,91,0.00,,-RA,0.00,0.00,VWS V14.01,2013-03-04 12:38:00,
2013-03-04 06:39:00,55.0,52.4,29.93,South,170,1.3,7.8,91,0.00,,-RA,0.00,0.00,VWS V14.01,2013-03-04 12:39:00,
2013-03-04 06:40:00,55.0,52.1,29.93,South,171,1.3,7.8,90,0.00,,-RA,0.00,0.00,VWS V14.01,2013-03-04 12:40:00,
2013-03-04 06:41:00,55.0,52.1,29.93,South,171,1.3,7.8,90,0.00,,-RA,0.00,0.00,VWS V14.01,2013-03-04 12:41:00,
2013-03-04 06:42:00,55.0,52.1,29.93,South,171,2.6,6.5,90,0.00,,-RA,0.00,0.00,VWS V14.01,2013-03-04 12:42:00,
2013-03-04 06:43:00,55.0,52.1,29.93,South,170,3.9,7.8,90,0.00,,-RA,0.00,0.00,VWS V14.01,2013-03-04 12:43:00,
2013-03-04 06:44:00,54.9,52.0,29.93,South,170,6.5,7.8,90,0.00,,-RA,0.00,0.00,VWS V14.01,2013-03-04 12:44:00,
2013-03-04 06:45:00,55.0,52.1,29.93,South,171,5.2,7.8,90,0.00,,-RA,0.00,5.00,VWS V14.01,2013-03-04 12:45:00,
2013-03-04 06:46:00,55.0,52.1,29.93,South,171,5.2,7.8,90,0.00,,-RA,0.00,5.00,VWS V14.01,2013-03-04 12:46:00,
2013-03-04 06:47:00,54.9,52.0,29.93,South,170,6.5,9.1,90,0.00,,-RA,0.00,5.00,VWS V14.01,2013-03-04 12:47:00,
2013-03-04 06:48:00,54.9,52.0,29.93,SSE,167,7.8,7.8,90,0.00,,-RA,0.00,5.00,VWS V14.01,2013-03-04 12:48:00,
2013-03-04 06:49:00,54.9,52.0,29.93,South,170,3.9,11.7,90,0.00,,-RA,0.00,7.00,VWS V14.01,2013-03-04 12:49:00,
2013-03-04 06:50:00,54.9,52.0,29.93,South,169,3.9,3.9,90,0.00,,-RA,0.00,7.00,VWS V14.01,2013-03-04 12:50:00,
2013-03-04 06:51:00,54.9,52.0,29.93,South,169,3.9,7.8,90,0.00,,-RA,0.00,7.00,VWS V14.01,2013-03-04 12:51:00,
2013-03-04 06:52:00,54.9,52.0,29.93,SSE,168,3.9,6.5,90,0.00,,-RA,0.00,9.00,VWS V14.01,2013-03-04 12:52:00,
2013-03-04 06:53:00,54.9,52.0,29.93,SSE,168,5.2,7.8,90,0.00,,-RA,0.00,11.00,VWS V14.01,2013-03-04 12:53:00,
2013-03-04 06:54:00,54.9,52.0,29.93,SSE,168,6.5,9.1,90,0.00,,-RA,0.00,11.00,VWS V14.01,2013-03-04 12:54:00,
2013-03-04 06:55:00,54.9,52.0,29.93,SSE,167,6.5,7.8,90,0.00,,-RA,0.00,12.00,VWS V14.01,2013-03-04 12:55:00,
2013-03-04 06:56:00,54.9,52.0,29.93,SSE,167,7.8,9.1,90,0.00,,-RA,0.00,12.00,VWS V14.01,2013-03-04 12:56:00,
2013-03-04 06:57:00,54.9,52.0,29.93,SSE,166,7.8,7.8,90,0.00,,-RA,0.00,12.00,VWS V14.01,2013-03-04 12:57:00,
2013-03-04 06:58:00,54.9,52.0,29.93,SSE,166,0.0,7.8,90,0.00,,-RA,0.00,14.00,VWS V14.01,2013-03-04 12:58:00,
2013-03-04 06:59:00,54.9,52.0,29.93,SSE,161,7.8,13.0,90,0.00,,-RA,0.00,14.00,VWS V14.01,2013-03-04 12:59:00,
2013-03-04 07:00:00,54.9,52.0,29.93,SSE,164,11.7,11.7,90,0.00,,-RA,0.00,16.00,VWS V14.01,2013-03-04 13:00:00,
2013-03-04 07:01:00,54.9,52.0,29.93,SSE,163,0.0,11.7,90,0.00,,-RA,0.00,16.00,VWS V14.01,2013-03-04 13:01:00,
2013-03-04 07:02:00,54.9,52.0,29.93,SSE,164,7.8,11.7,90,0.00,,-RA,0.00,16.00,VWS V14.01,2013-03-04 13:02:00,
2013-03-04 07:03:00,54.9,52.0,29.92,SSE,165,6.5,7.8,90,0.00,,-RA,0.00,18.00,VWS V14.01,2013-03-04 13:03:00,
2013-03-04 07:04:00,54.9,52.0,29.93,SSE,162,6.5,11.7,90,0.00,,-RA,0.00,18.00,VWS V14.01,2013-03-04 13:04:00,
2013-03-04 07:05:00,55.0,52.1,29.93,SSE,166,7.8,7.8,90,0.00,,-RA,0.00,19.00,VWS V14.01,2013-03-04 13:05:00,
2013-03-04 07:06:00,55.0,52.1,29.93,SSE,164,3.9,9.1,90,0.00,,-RA,0.00,19.00,VWS V14.01,2013-03-04 13:06:00,
2013-03-04 07:07:00,55.0,52.1,29.92,SSE,168,2.6,7.8,90,0.00,,-RA,0.00,19.00,VWS V14.01,2013-03-04 13:07:00,
2013-03-04 07:08:00,55.0,52.1,29.92,SSE,166,7.8,11.7,90,0.00,,-RA,0.00,21.00,VWS V14.01,2013-03-04 13:08:00,
2013-03-04 07:09:00,55.0,52.1,29.93,SSE,168,7.8,11.7,90,0.00,,-RA,0.00,21.00,VWS V14.01,2013-03-04 13:09:00,
2013-03-04 07:10:00,55.1,52.2,29.93,South,169,2.6,5.2,90,0.00,,-RA,0.00,23.00,VWS V14.01,2013-03-04 13:10:00,
2013-03-04 07:11:00,55.1,52.2,29.92,South,169,5.2,7.8,90,0.00,,-RA,0.00,23.00,VWS V14.01,2013-03-04 13:11:00,
2013-03-04 07:12:00,55.1,52.2,29.92,South,170,6.5,7.8,90,0.00,,-RA,0.00,23.00,VWS V14.01,2013-03-04 13:12:00,
2013-03-04 07:13:00,55.1,52.2,29.92,South,171,7.8,10.4,90,0.00,,-RA,0.00,25.00,VWS V14.01,2013-03-04 13:13:00,
2013-03-04 07:14:00,55.1,52.2,29.93,South,171,6.5,7.8,90,0.00,,-RA,0.00,25.00,VWS V14.01,2013-03-04 13:14:00,
2013-03-04 07:15:00,55.2,52.3,29.93,SSE,168,1.3,5.2,90,0.00,,-RA,0.00,26.00,VWS V14.01,2013-03-04 13:15:00,
2013-03-04 07:16:00,55.2,52.3,29.93,SSE,168,3.9,9.1,90,0.00,,-RA,0.00,26.00,VWS V14.01,2013-03-04 13:16:00,
2013-03-04 07:17:00,55.2,52.3,29.92,South,169,5.2,7.8,90,0.00,,-RA,0.00,26.00,VWS V14.01,2013-03-04 13:17:00,
2013-03-04 07:18:00,55.2,52.3,29.93,South,170,6.5,11.7,90,0.00,,-RA,0.00,26.00,VWS V14.01,2013-03-04 13:18:00,
2013-03-04 07:19:00,55.2,52.3,29.92,SSE,167,7.8,10.4,90,0.00,,-RA,0.00,28.00,VWS V14.01,2013-03-04 13:19:00,
2013-03-04 07:20:00,55.3,52.4,29.92,South,170,11.7,11.7,90,0.00,,-RA,0.00,30.00,VWS V14.01,2013-03-04 13:20:00,
2013-03-04 07:21:00,55.3,52.4,29.92,SSE,166,7.8,11.7,90,0.00,,-RA,0.00,30.00,VWS V14.01,2013-03-04 13:21:00,
2013-03-04 07:22:00,55.3,52.4,29.92,South,170,3.9,11.7,90,0.00,,-RA,0.00,30.00,VWS V14.01,2013-03-04 13:22:00,
2013-03-04 07:23:00,55.3,52.4,29.92,South,173,5.2,10.4,90,0.00,,-RA,0.00,30.00,VWS V14.01,2013-03-04 13:23:00,
2013-03-04 07:24:00,55.4,52.8,29.92,SSE,168,6.5,13.0,91,0.00,,-RA,0.00,32.00,VWS V14.01,2013-03-04 13:24:00,
2013-03-04 07:25:00,55.5,52.9,29.92,South,172,11.7,11.7,91,0.00,,-RA,0.00,33.00,VWS V14.01,2013-03-04 13:25:00,
2013-03-04 07:26:00,55.5,52.9,29.92,South,171,11.7,11.7,91,0.00,,-RA,0.00,33.00,VWS V14.01,2013-03-04 13:26:00,
2013-03-04 07:27:00,55.5,52.9,29.92,South,171,9.1,11.7,91,0.00,,-RA,0.00,33.00,VWS V14.01,2013-03-04 13:27:00,
2013-03-04 07:28:00,55.5,52.9,29.92,South,170,3.9,11.7,91,0.00,,-RA,0.00,33.00,VWS V14.01,2013-03-04 13:28:00,
2013-03-04 07:29:00,55.6,53.0,29.92,SSE,165,6.5,11.7,91,0.00,,-RA,0.00,35.00,VWS V14.01,2013-03-04 13:29:00,
2013-03-04 07:30:00,55.7,53.1,29.92,SSE,162,5.2,9.1,91,0.00,,-RA,0.00,39.00,VWS V14.01,2013-03-04 13:30:00,
2013-03-04 07:31:00,55.7,53.1,29.92,SSE,162,9.1,15.6,91,0.00,,-RA,0.00,35.00,VWS V14.01,2013-03-04 13:31:00,
2013-03-04 07:32:00,55.8,53.2,29.92,SSE,163,2.6,9.1,91,0.00,,-RA,0.00,47.00,VWS V14.01,2013-03-04 13:32:00,
2013-03-04 07:33:00,55.8,53.2,29.92,SSE,165,11.7,11.7,91,0.00,,-RA,0.00,53.00,VWS V14.01,2013-03-04 13:33:00,
2013-03-04 07:34:00,55.8,53.2,29.92,South,171,13.0,13.0,91,0.00,,-RA,0.00,51.00,VWS V14.01,2013-03-04 13:34:00,
2013-03-04 07:35:00,55.9,53.3,29.92,South,170,7.8,9.1,91,0.00,,-RA,0.00,58.00,VWS V14.01,2013-03-04 13:35:00,
2013-03-04 07:36:00,55.9,53.3,29.92,South,173,7.8,14.3,91,0.00,,-RA,0.00,53.00,VWS V14.01,2013-03-04 13:36:00,
2013-03-04 07:37:00,56.0,53.4,29.92,SSE,166,6.5,9.1,91,0.00,,-RA,0.00,58.00,VWS V14.01,2013-03-04 13:37:00,
2013-03-04 07:38:00,56.1,53.5,29.92,SSE,166,7.8,13.0,91,0.00,,-RA,0.00,63.00,VWS V14.01,2013-03-04 13:38:00,
2013-03-04 07:39:00,56.1,53.5,29.92,SSE,165,5.2,14.3,91,0.00,,-RA,0.00,65.00,VWS V14.01,2013-03-04 13:39:00,
2013-03-04 07:40:00,56.3,53.7,29.92,SSE,148,9.1,16.9,91,0.00,,-RA,0.00,76.00,VWS V14.01,2013-03-04 13:40:00,
2013-03-04 07:41:00,56.3,53.7,29.92,South,171,7.8,13.0,91,0.00,,-RA,0.00,76.00,VWS V14.01,2013-03-04 13:41:00,
2013-03-04 07:42:00,56.4,53.8,29.92,SSE,168,6.5,16.9,91,0.00,,-RA,0.00,77.00,VWS V14.01,2013-03-04 13:42:00,
2013-03-04 07:43:00,56.4,53.8,29.92,SSE,162,5.2,15.6,91,0.00,,-RA,0.00,77.00,VWS V14.01,2013-03-04 13:43:00,
2013-03-04 07:44:00,56.5,53.9,29.92,South,179,0.0,13.0,91,0.00,,-RA,0.00,83.00,VWS V14.01,2013-03-04 13:44:00,
2013-03-04 07:45:00,56.8,54.2,29.93,South,169,9.1,9.1,91,0.00,,-RA,0.00,102.00,VWS V14.01,2013-03-04 13:45:00,
2013-03-04 07:46:00,56.7,54.1,29.92,SSE,168,5.2,14.3,91,0.00,,-RA,0.00,102.00,VWS V14.01,2013-03-04 13:46:00,
2013-03-04 07:47:00,56.8,54.2,29.92,SSE,158,7.8,11.7,91,0.00,,-RA,0.00,111.00,VWS V14.01,2013-03-04 13:47:00,
2013-03-04 07:48:00,56.9,54.3,29.92,South,176,14.3,15.6,91,0.00,,-RA,0.00,118.00,VWS V14.01,2013-03-04 13:48:00,
2013-03-04 07:49:00,57.1,54.5,29.92,SSE,167,7.8,14.3,91,0.00,,-RA,0.00,121.00,VWS V14.01,2013-03-04 13:49:00,
2013-03-04 07:50:00,57.3,54.7,29.93,South,175,15.6,15.6,91,0.00,,-RA,0.00,130.00,VWS V14.01,2013-03-04 13:50:00,
2013-03-04 07:51:00,57.3,54.7,29.92,SSE,168,11.7,15.6,91,0.00,,-RA,0.00,130.00,VWS V14.01,2013-03-04 13:51:00,
2013-03-04 07:52:00,57.4,54.8,29.93,South,174,7.8,16.9,91,0.00,,-RA,0.00,134.00,VWS V14.01,2013-03-04 13:52:00,
2013-03-04 07:53:00,57.5,54.9,29.93,SSE,168,7.8,16.9,91,0.00,,-RA,0.00,137.00,VWS V14.01,2013-03-04 13:53:00,
2013-03-04 07:54:00,57.6,55.0,29.93,SSE,166,7.8,14.3,91,0.00,,-RA,0.00,141.00,VWS V14.01,2013-03-04 13:54:00,
2013-03-04 07:55:00,58.0,55.1,29.93,South,177,15.6,15.6,90,0.00,,-RA,0.00,151.00,VWS V14.01,2013-03-04 13:55:00,
2013-03-04 07:56:00,57.9,55.0,29.93,South,172,9.1,18.2,90,0.00,,-RA,0.00,151.00,VWS V14.01,2013-03-04 13:56:00,
2013-03-04 07:57:00,58.1,55.2,29.93,South,171,7.8,15.6,90,0.00,,-RA,0.00,155.00,VWS V14.01,2013-03-04 13:57:00,
2013-03-04 07:58:00,58.2,55.3,29.93,South,185,11.7,11.7,90,0.00,,-RA,0.00,156.00,VWS V14.01,2013-03-04 13:58:00,
2013-03-04 07:59:00,58.4,55.5,29.93,South,185,15.6,15.6,90,0.00,,-RA,0.00,160.00,VWS V14.01,2013-03-04 13:59:00,
2013-03-04 08:00:00,58.6,55.7,29.93,SSE,157,13.0,15.6,90,0.00,,-RA,0.00,169.00,VWS V14.01,2013-03-04 14:00:00,
2013-03-04 08:01:00,58.6,55.7,29.93,South,172,11.7,15.6,90,0.00,,-RA,0.00,165.00,VWS V14.01,2013-03-04 14:01:00,
2013-03-04 08:02:00,58.8,55.9,29.93,South,185,7.8,15.6,90,0.00,,-RA,0.00,172.00,VWS V14.01,2013-03-04 14:02:00,
2013-03-04 08:03:00,58.9,55.7,29.93,South,189,13.0,13.0,89,0.00,,-RA,0.00,174.00,VWS V14.01,2013-03-04 14:03:00,
2013-03-04 08:04:00,59.0,55.8,29.93,South,172,6.5,15.6,89,0.00,,-RA,0.00,178.00,VWS V14.01,2013-03-04 14:04:00,
2013-03-04 08:05:00,59.4,56.2,29.93,SSE,158,11.7,15.6,89,0.00,,-RA,0.00,186.00,VWS V14.01,2013-03-04 14:05:00,
2013-03-04 08:06:00,59.3,56.1,29.93,South,185,15.6,22.1,89,0.00,,-RA,0.00,185.00,VWS V14.01,2013-03-04 14:06:00,
2013-03-04 08:07:00,59.4,55.8,29.93,SSW,197,15.6,15.6,88,0.00,,-RA,0.00,190.00,VWS V14.01,2013-03-04 14:07:00,
2013-03-04 08:08:00,59.5,56.0,29.93,South,191,6.5,16.9,88,0.00,,-RA,0.00,193.00,VWS V14.01,2013-03-04 14:08:00,
2013-03-04 08:09:00,59.7,56.2,29.92,South,177,7.8,16.9,88,0.00,,-RA,0.00,197.00,VWS V14.01,2013-03-04 14:09:00,
2013-03-04 08:10:00,60.0,56.1,29.93,South,183,15.6,15.6,87,0.00,,-RA,0.00,207.00,VWS V14.01,2013-03-04 14:10:00,
2013-03-04 08:11:00,60.0,56.1,29.92,South,177,7.8,15.6,87,0.00,,-RA,0.00,204.00,VWS V14.01,2013-03-04 14:11:00,
2013-03-04 08:12:00,60.2,56.3,29.93,SSW,208,15.6,18.2,87,0.00,,-RA,0.00,207.00,VWS V14.01,2013-03-04 14:12:00,
2013-03-04 08:13:00,60.3,56.4,29.92,South,175,18.2,19.5,87,0.00,,-RA,0.00,213.00,VWS V14.01,2013-03-04 14:13:00,
2013-03-04 08:14:00,60.4,56.5,29.92,South,191,7.8,19.5,87,0.00,,-RA,0.00,216.00,VWS V14.01,2013-03-04 14:14:00,
2013-03-04 08:15:00,60.8,56.6,29.92,SSE,162,22.1,22.1,86,0.00,,-RA,0.00,227.00,VWS V14.01,2013-03-04 14:15:00,
2013-03-04 08:16:00,60.7,56.5,29.92,South,182,14.3,19.5,86,0.00,,-RA,0.00,223.00,VWS V14.01,2013-03-04 14:16:00,
2013-03-04 08:17:00,60.9,56.7,29.92,SSE,152,9.1,22.1,86,0.00,,-RA,0.00,227.00,VWS V14.01,2013-03-04 14:17:00,
2013-03-04 08:18:00,61.0,56.8,29.92,South,172,11.7,18.2,86,0.00,,-RA,0.00,229.00,VWS V14.01,2013-03-04 14:18:00,
2013-03-04 08:19:00,61.2,57.0,29.93,South,191,14.3,15.6,86,0.00,,-RA,0.00,236.00,VWS V14.01,2013-03-04 14:19:00,
2013-03-04 08:20:00,61.5,57.0,29.92,South,185,18.2,26.0,85,0.00,,-RA,0.00,243.00,VWS V14.01,2013-03-04 14:20:00,
2013-03-04 08:21:00,61.5,57.0,29.92,South,176,14.3,18.2,85,0.00,,-RA,0.00,241.00,VWS V14.01,2013-03-04 14:21:00,
2013-03-04 08:22:00,61.6,57.0,29.92,South,172,14.3,26.0,85,0.00,,-RA,0.00,243.00,VWS V14.01,2013-03-04 14:22:00,
2013-03-04 08:23:00,61.7,56.8,29.92,South,182,23.4,26.0,84,0.00,,-RA,0.00,246.00,VWS V14.01,2013-03-04 14:23:00,
2013-03-04 08:24:00,61.9,57.0,29.92,SSW,198,19.5,26.0,84,0.00,,-RA,0.00,248.00,VWS V14.01,2013-03-04 14:24:00,
2013-03-04 08:25:00,62.2,57.3,29.92,South,181,20.8,23.4,84,0.00,,-RA,0.00,255.00,VWS V14.01,2013-03-04 14:25:00,
2013-03-04 08:26:00,62.1,57.2,29.92,South,183,15.6,23.4,84,0.00,,-RA,0.00,255.00,VWS V14.01,2013-03-04 14:26:00,
2013-03-04 08:27:00,62.2,57.3,29.92,South,184,15.6,23.4,84,0.00,,-RA,0.00,258.00,VWS V14.01,2013-03-04 14:27:00,
2013-03-04 08:28:00,62.4,57.2,29.92,South,172,6.5,16.9,83,0.00,,-RA,0.00,264.00,VWS V14.01,2013-03-04 14:28:00,
2013-03-04 08:29:00,62.5,57.3,29.92,South,172,20.8,20.8,83,0.00,,-RA,0.00,265.00,VWS V14.01,2013-03-04 14:29:00,
2013-03-04 08:30:00,62.9,57.7,29.92,South,178,10.4,16.9,83,0.00,,-RA,0.00,272.00,VWS V14.01,2013-03-04 14:30:00,
2013-03-04 08:31:00,62.8,57.6,29.92,South,188,14.3,16.9,83,0.00,,-RA,0.00,272.00,VWS V14.01,2013-03-04 14:31:00,
2013-03-04 08:32:00,63.0,57.8,29.92,SSW,198,15.6,16.9,83,0.00,,-RA,0.00,274.00,VWS V14.01,2013-03-04 14:32:00,
2013-03-04 08:33:00,63.1,57.9,29.92,SSE,154,16.9,20.8,83,0.00,,-RA,0.00,278.00,VWS V14.01,2013-03-04 14:33:00,
2013-03-04 08:34:00,63.2,57.6,29.92,SSE,151,18.2,24.7,82,0.00,,-RA,0.00,283.00,VWS V14.01,2013-03-04 14:34:00,
2013-03-04 08:35:00,63.5,57.6,29.92,South,191,19.5,22.1,81,0.00,,-RA,0.00,294.00,VWS V14.01,2013-03-04 14:35:00,
2013-03-04 08:36:00,63.4,57.8,29.92,SSE,166,20.8,22.1,82,0.00,,-RA,0.00,294.00,VWS V14.01,2013-03-04 14:36:00,
2013-03-04 08:37:00,63.5,57.6,29.92,SSW,208,19.5,22.1,81,0.00,,-RA,0.00,297.00,VWS V14.01,2013-03-04 14:37:00,
2013-03-04 08:38:00,63.6,57.7,29.92,South,169,11.7,23.4,81,0.00,,-RA,0.00,301.00,VWS V14.01,2013-03-04 14:38:00,
2013-03-04 08:39:00,63.8,57.9,29.92,SSE,150,18.2,24.7,81,0.00,,-RA,0.00,299.00,VWS V14.01,2013-03-04 14:39:00,
2013-03-04 08:40:00,64.0,58.1,29.91,South,179,16.9,18.2,81,0.00,,-RA,0.00,315.00,VWS V14.01,2013-03-04 14:40:00,
2013-03-04 08:41:00,64.0,58.1,29.92,South,187,18.2,24.7,81,0.00,,-RA,0.00,311.00,VWS V14.01,2013-03-04 14:41:00,
2013-03-04 08:42:00,64.0,58.1,29.91,South,177,13.0,18.2,81,0.00,,-RA,0.00,315.00,VWS V14.01,2013-03-04 14:42:00,
2013-03-04 08:43:00,64.2,58.3,29.92,South,183,24.7,29.9,81,0.00,,-RA,0.00,315.00,VWS V14.01,2013-03-04 14:43:00,
2013-03-04 08:44:00,64.3,58.3,29.92,SSE,161,15.6,27.3,81,0.00,,-RA,0.00,325.00,VWS V14.01,2013-03-04 14:44:00,
2013-03-04 08:45:00,64.4,58.1,29.92,SSW,203,24.7,26.0,80,0.00,,-RA,0.00,329.00,VWS V14.01,2013-03-04 14:45:00,
2013-03-04 08:46:00,64.6,58.3,29.92,South,179,22.1,27.3,80,0.00,,-RA,0.00,338.00,VWS V14.01,2013-03-04 14:46:00,
2013-03-04 08:47:00,64.6,58.0,29.92,SSE,158,16.9,28.6,79,0.00,,-RA,0.00,338.00,VWS V14.01,2013-03-04 14:47:00,
2013-03-04 08:48:00,64.7,58.0,29.91,SSW,199,13.0,24.7,79,0.00,,-RA,0.00,343.00,VWS V14.01,2013-03-04 14:48:00,
2013-03-04 08:49:00,64.7,58.0,29.92,South,181,14.3,18.2,79,0.00,,-RA,0.00,346.00,VWS V14.01,2013-03-04 14:49:00,
2013-03-04 08:50:00,64.8,58.1,29.92,South,182,26.0,31.2,79,0.00,,-RA,0.00,359.00,VWS V14.01,2013-03-04 14:50:00,
2013-03-04 08:51:00,65.0,58.3,29.92,SSW,199,27.3,27.3,79,0.00,,-RA,0.00,315.00,VWS V14.01,2013-03-04 14:51:00,
2013-03-04 08:52:00,65.0,58.3,29.92,South,185,18.2,33.8,79,0.00,,-RA,0.00,315.00,VWS V14.01,2013-03-04 14:52:00,
2013-03-04 08:53:00,65.1,58.4,29.92,South,179,26.0,29.9,79,0.00,,-RA,0.00,359.00,VWS V14.01,2013-03-04 14:53:00,
2013-03-04 08:54:00,65.2,58.2,29.92,SSW,213,23.4,32.5,78,0.00,,-RA,0.00,380.00,VWS V14.01,2013-03-04 14:54:00,
2013-03-04 08:55:00,65.3,58.3,29.92,South,181,20.8,28.6,78,0.00,,-RA,0.00,369.00,VWS V14.01,2013-03-04 14:55:00,
2013-03-04 08:56:00,65.4,58.4,29.92,South,187,18.2,29.9,78,0.00,,-RA,0.00,380.00,VWS V14.01,2013-03-04 14:56:00,
2013-03-04 08:57:00,65.4,58.4,29.92,SSW,202,29.9,29.9,78,0.00,,-RA,0.00,380.00,VWS V14.01,2013-03-04 14:57:00,
2013-03-04 08:58:00,65.5,58.5,29.92,South,189,11.7,29.9,78,0.00,,-RA,0.00,378.00,VWS V14.01,2013-03-04 14:58:00,
2013-03-04 08:59:00,65.6,58.6,29.92,South,183,19.5,27.3,78,0.00,,-RA,0.00,406.00,VWS V14.01,2013-03-04 14:59:00,
2013-03-04 09:00:00,65.6,58.6,29.92,SSE,160,10.4,20.8,78,0.00,,-RA,0.00,399.00,VWS V14.01,2013-03-04 15:00:00,
2013-03-04 09:01:00,65.9,58.9,29.92,South,177,11.7,24.7,78,0.00,,-RA,0.00,401.00,VWS V14.01,2013-03-04 15:01:00,
2013-03-04 09:02:00,65.9,58.8,29.92,SSW,197,3.9,24.7,78,0.00,,-RA,0.00,401.00,VWS V14.01,2013-03-04 15:02:00,
2013-03-04 09:03:00,66.0,59.0,29.92,SSW,193,27.3,27.3,78,0.00,,-RA,0.00,258.00,VWS V14.01,2013-03-04 15:03:00,
2013-03-04 09:04:00,66.2,58.8,29.92,South,185,14.3,33.8,77,0.00,,-RA,0.00,258.00,VWS V14.01,2013-03-04 15:04:00,
2013-03-04 09:05:00,66.3,58.9,29.92,SSW,200,5.2,23.4,77,0.00,,-RA,0.00,418.00,VWS V14.01,2013-03-04 15:05:00,
2013-03-04 09:06:00,66.5,59.1,29.92,SSE,159,26.0,27.3,77,0.00,,-RA,0.00,341.00,VWS V14.01,2013-03-04 15:06:00,
2013-03-04 09:07:00,66.6,59.2,29.92,South,189,27.3,27.3,77,0.00,,-RA,0.00,341.00,VWS V14.01,2013-03-04 15:07:00,
2013-03-04 09:08:00,66.7,58.9,29.92,South,191,18.2,27.3,76,0.00,,-RA,0.00,420.00,VWS V14.01,2013-03-04 15:08:00,
2013-03-04 09:09:00,66.8,59.0,29.92,SW,222,20.8,24.7,76,0.00,,-RA,0.00,434.00,VWS V14.01,2013-03-04 15:09:00,
2013-03-04 09:10:00,66.9,59.1,29.92,South,187,19.5,26.0,76,0.00,,-RA,0.00,427.00,VWS V14.01,2013-03-04 15:10:00,
2013-03-04 09:11:00,67.1,58.9,29.92,SSW,204,16.9,29.9,75,0.00,,-RA,0.00,408.00,VWS V14.01,2013-03-04 15:11:00,
2013-03-04 09:12:00,67.1,58.9,29.92,SSE,151,9.1,29.9,75,0.00,,-RA,0.00,408.00,VWS V14.01,2013-03-04 15:12:00,
2013-03-04 09:13:00,67.2,59.0,29.92,South,185,15.6,22.1,75,0.00,,-RA,0.00,462.00,VWS V14.01,2013-03-04 15:13:00,
2013-03-04 09:14:00,67.3,59.1,29.92,SSW,195,32.5,42.9,75,0.00,,-RA,0.00,448.00,VWS V14.01,2013-03-04 15:14:00,
2013-03-04 09:15:00,67.3,58.7,29.92,South,171,18.2,32.5,74,0.00,,-RA,0.00,387.00,VWS V14.01,2013-03-04 15:15:00,
2013-03-04 09:16:00,67.4,58.8,29.91,South,188,23.4,31.2,74,0.00,,-RA,0.00,448.00,VWS V14.01,2013-03-04 15:16:00,
2013-03-04 09:17:00,67.4,58.8,29.91,SSE,158,19.5,31.2,74,0.00,,-RA,0.00,448.00,VWS V14.01,2013-03-04 15:17:00,
2013-03-04 09:18:00,67.5,58.9,29.91,South,170,24.7,39.0,74,0.00,,-RA,0.00,448.00,VWS V14.01,2013-03-04 15:18:00,
2013-03-04 09:19:00,67.6,59.0,29.91,South,173,14.3,29.9,74,0.00,,-RA,0.00,448.00,VWS V14.01,2013-03-04 15:19:00,
2013-03-04 09:20:00,67.6,59.0,29.91,South,171,27.3,32.5,74,0.00,,-RA,0.00,461.00,VWS V14.01,2013-03-04 15:20:00,
2013-03-04 09:21:00,67.8,58.8,29.91,South,189,24.7,32.5,73,0.00,,-RA,0.00,482.00,VWS V14.01,2013-03-04 15:21:00,
2013-03-04 09:22:00,67.8,58.8,29.91,SSW,195,20.8,32.5,73,0.00,,-RA,0.00,482.00,VWS V14.01,2013-03-04 15:22:00,
2013-03-04 09:23:00,67.9,58.9,29.91,SSW,194,15.6,35.1,73,0.00,,-RA,0.00,475.00,VWS V14.01,2013-03-04 15:23:00,
2013-03-04 09:24:00,68.0,59.0,29.91,South,178,27.3,27.3,73,0.00,,-RA,0.00,378.00,VWS V14.01,2013-03-04 15:24:00,
2013-03-04 09:25:00,68.0,59.0,29.91,SSW,197,29.9,40.3,73,0.00,,-RA,0.00,378.00,VWS V14.01,2013-03-04 15:25:00,
2013-03-04 09:26:00,68.1,58.7,29.91,South,191,28.6,49.4,72,0.00,,-RA,0.00,485.00,VWS V14.01,2013-03-04 15:26:00,
2013-03-04 09:27:00,68.1,58.7,29.91,South,180,35.1,49.4,72,0.00,,-RA,0.00,485.00,VWS V14.01,2013-03-04 15:27:00,
2013-03-04 09:28:00,68.2,58.8,29.92,SSW,192,23.4,36.4,72,0.00,,-RA,0.00,473.00,VWS V14.01,2013-03-04 15:28:00,
2013-03-04 09:29:00,68.2,58.8,29.91,SW,226,19.5,32.5,72,0.00,,-RA,0.00,492.00,VWS V14.01,2013-03-04 15:29:00,
2013-03-04 09:30:00,68.3,58.9,29.91,SSW,197,16.9,41.6,72,0.00,,-RA,0.00,501.00,VWS V14.01,2013-03-04 15:30:00,
2013-03-04 09:31:00,68.5,59.1,29.91,SSW,193,26.0,32.5,72,0.00,,-RA,0.00,473.00,VWS V14.01,2013-03-04 15:31:00,
2013-03-04 09:32:00,68.5,59.1,29.91,South,180,22.1,32.5,72,0.00,,-RA,0.00,473.00,VWS V14.01,2013-03-04 15:32:00,
2013-03-04 09:33:00,68.5,58.7,29.91,SSE,167,23.4,24.7,71,0.00,,-RA,0.00,473.00,VWS V14.01,2013-03-04 15:33:00,
2013-03-04 09:34:00,68.6,58.8,29.91,South,182,6.5,27.3,71,0.00,,-RA,0.00,336.00,VWS V14.01,2013-03-04 15:34:00,
2013-03-04 09:35:00,68.7,59.3,29.91,South,184,14.3,16.9,72,0.00,,-RA,0.00,373.00,VWS V14.01,2013-03-04 15:35:00,
2013-03-04 09:36:00,68.8,59.0,29.91,South,183,28.6,28.6,71,0.00,,-RA,0.00,387.00,VWS V14.01,2013-03-04 15:36:00,
2013-03-04 09:37:00,68.8,59.0,29.91,South,183,28.6,28.6,71,0.00,,-RA,0.00,387.00,VWS V14.01,2013-03-04 15:37:00,
2013-03-04 09:38:00,68.8,58.6,29.91,SSE,157,18.2,35.1,70,0.00,,-RA,0.00,476.00,VWS V14.01,2013-03-04 15:38:00,
2013-03-04 09:39:00,68.9,58.7,29.91,SSW,196,18.2,24.7,70,0.00,,-RA,0.00,436.00,VWS V14.01,2013-03-04 15:39:00,
2013-03-04 09:40:00,68.9,58.7,29.91,South,183,31.2,37.7,70,0.00,,-RA,0.00,429.00,VWS V14.01,2013-03-04 15:40:00,
2013-03-04 09:41:00,69.0,58.8,29.91,SSW,193,11.7,26.0,70,0.00,,-RA,0.00,524.00,VWS V14.01,2013-03-04 15:41:00,
2013-03-04 09:42:00,69.0,58.8,29.91,SSW,193,11.7,26.0,70,0.00,,-RA,0.00,524.00,VWS V14.01,2013-03-04 15:42:00,
2013-03-04 09:43:00,69.1,58.9,29.91,South,187,19.5,24.7,70,0.00,,-RA,0.00,526.00,VWS V14.01,2013-03-04 15:43:00,
2013-03-04 09:44:00,69.2,59.0,29.91,SW,219,15.6,19.5,70,0.00,,-RA,0.00,524.00,VWS V14.01,2013-03-04 15:44:00,
2013-03-04 09:45:00,69.3,59.1,29.91,SSW,206,18.2,36.4,70,0.00,,-RA,0.00,524.00,VWS V14.01,2013-03-04 15:45:00,
2013-03-04 09:46:00,69.6,59.4,29.91,South,191,19.5,23.4,70,0.00,,-RA,0.00,526.00,VWS V14.01,2013-03-04 15:46:00,
2013-03-04 09:47:00,69.6,59.4,29.91,South,191,19.5,23.4,70,0.00,,-RA,0.00,526.00,VWS V14.01,2013-03-04 15:47:00,
2013-03-04 09:48:00,69.7,59.5,29.91,South,189,16.9,29.9,70,0.00,,-RA,0.00,527.00,VWS V14.01,2013-03-04 15:48:00,
2013-03-04 09:49:00,69.9,59.3,29.91,South,191,29.9,36.4,69,0.00,,-RA,0.00,533.00,VWS V14.01,2013-03-04 15:49:00,
2013-03-04 09:50:00,69.9,58.9,29.91,South,187,14.3,29.9,68,0.00,,-RA,0.00,531.00,VWS V14.01,2013-03-04 15:50:00,
2013-03-04 09:51:00,70.1,59.1,29.91,SSW,200,19.5,19.5,68,0.00,,-RA,0.00,534.00,VWS V14.01,2013-03-04 15:51:00,
2013-03-04 09:52:00,70.1,59.1,29.91,SSW,200,19.5,19.5,68,0.00,,-RA,0.00,534.00,VWS V14.01,2013-03-04 15:52:00,
2013-03-04 09:53:00,70.2,59.2,29.91,SSW,206,14.3,26.0,68,0.00,,-RA,0.00,552.00,VWS V14.01,2013-03-04 15:53:00,
2013-03-04 09:54:00,70.4,59.3,29.91,SSW,194,28.6,28.6,68,0.00,,-RA,0.00,545.00,VWS V14.01,2013-03-04 15:54:00,
2013-03-04 09:55:00,70.5,59.4,29.91,SSW,195,10.4,28.6,68,0.00,,-RA,0.00,554.00,VWS V14.01,2013-03-04 15:55:00,
2013-03-04 09:56:00,70.8,59.3,29.91,South,181,14.3,35.1,67,0.00,,-RA,0.00,548.00,VWS V14.01,2013-03-04 15:56:00,
2013-03-04 09:57:00,70.8,59.3,29.91,South,181,14.3,35.1,67,0.00,,-RA,0.00,548.00,VWS V14.01,2013-03-04 15:57:00,
2013-03-04 09:58:00,70.9,59.4,29.91,South,185,32.5,32.5,67,0.00,,-RA,0.00,563.00,VWS V14.01,2013-03-04 15:58:00,
2013-03-04 09:59:00,70.9,59.0,29.91,SSW,195,23.4,36.4,66,0.00,,-RA,0.00,557.00,VWS V14.01,2013-03-04 15:59:00,
2013-03-04 10:00:00,71.0,59.1,29.91,South,175,18.2,27.3,66,0.00,,-RA,0.00,564.00,VWS V14.01,2013-03-04 16:00:00,
2013-03-04 10:01:00,71.0,59.1,29.91,SSE,166,22.1,40.3,66,0.00,,-RA,0.00,563.00,VWS V14.01,2013-03-04 16:01:00,
2013-03-04 10:02:00,71.0,59.1,29.91,SSE,166,22.1,40.3,66,0.00,,-RA,0.00,563.00,VWS V14.01,2013-03-04 16:02:00,
2013-03-04 10:03:00,71.0,59.1,29.91,SSW,207,16.9,40.3,66,0.00,,-RA,0.00,578.00,VWS V14.01,2013-03-04 16:03:00,
2013-03-04 10:04:00,71.1,58.8,29.91,South,179,18.2,22.1,65,0.00,,-RA,0.00,612.00,VWS V14.01,2013-03-04 16:04:00,
2013-03-04 10:05:00,71.1,58.8,29.91,South,187,29.9,29.9,65,0.00,,-RA,0.00,584.00,VWS V14.01,2013-03-04 16:05:00,
2013-03-04 10:06:00,71.2,58.8,29.91,SSW,196,16.9,16.9,65,0.00,,-RA,0.00,584.00,VWS V14.01,2013-03-04 16:06:00,
2013-03-04 10:07:00,71.2,58.8,29.91,SSW,198,14.3,40.3,65,0.00,,-RA,0.00,584.00,VWS V14.01,2013-03-04 16:07:00,
2013-03-04 10:08:00,71.2,58.8,29.91,SSW,195,16.9,36.4,65,0.00,,-RA,0.00,599.00,VWS V14.01,2013-03-04 16:08:00,
2013-03-04 10:09:00,71.2,58.4,29.91,South,170,14.3,37.7,64,0.00,,-RA,0.00,608.00,VWS V14.01,2013-03-04 16:09:00,
2013-03-04 10:10:00,71.2,58.4,29.91,South,179,23.4,32.5,64,0.00,,-RA,0.00,587.00,VWS V14.01,2013-03-04 16:10:00,
2013-03-04 10:11:00,71.3,58.9,29.91,South,189,22.1,22.1,65,0.00,,-RA,0.00,596.00,VWS V14.01,2013-03-04 16:11:00,
2013-03-04 10:12:00,71.3,58.9,29.91,SW,215,16.9,37.7,65,0.00,,-RA,0.00,596.00,VWS V14.01,2013-03-04 16:12:00,
2013-03-04 10:13:00,71.3,58.9,29.91,SSW,207,26.0,26.0,65,0.00,,-RA,0.00,599.00,VWS V14.01,2013-03-04 16:13:00,
2013-03-04 10:14:00,71.4,59.0,29.91,South,188,7.8,31.2,65,0.00,,-RA,0.00,601.00,VWS V14.01,2013-03-04 16:14:00,
2013-03-04 10:15:00,71.4,59.0,29.91,SSE,162,23.4,32.5,65,0.00,,-RA,0.00,617.00,VWS V14.01,2013-03-04 16:15:00,
2013-03-04 10:16:00,71.5,58.7,29.91,South,172,16.9,40.3,64,0.00,,-RA,0.00,598.00,VWS V14.01,2013-03-04 16:16:00,
2013-03-04 10:17:00,71.5,58.7,29.91,South,185,40.3,40.3,64,0.00,,-RA,0.00,598.00,VWS V14.01,2013-03-04 16:17:00,
2013-03-04 10:18:00,71.5,58.7,29.91,South,191,26.0,40.3,64,0.00,,-RA,0.00,606.00,VWS V14.01,2013-03-04 16:18:00,
2013-03-04 10:19:00,71.5,58.7,29.91,South,189,23.4,26.0,64,0.00,,-RA,0.00,606.00,VWS V14.01,2013-03-04 16:19:00,
2013-03-04 10:20:00,71.6,59.2,29.91,SSE,154,22.1,29.9,65,0.00,,-RA,0.00,628.00,VWS V14.01,2013-03-04 16:20:00,
2013-03-04 10:21:00,71.7,59.3,29.91,South,176,11.7,22.1,65,0.00,,-RA,0.00,566.00,VWS V14.01,2013-03-04 16:21:00,
2013-03-04 10:22:00,71.7,59.3,29.91,SSE,161,22.1,27.3,65,0.00,,-RA,0.00,566.00,VWS V14.01,2013-03-04 16:22:00,
2013-03-04 10:23:00,71.8,59.4,29.91,SSW,201,28.6,29.9,65,0.00,,-RA,0.00,626.00,VWS V14.01,2013-03-04 16:23:00,
2013-03-04 10:24:00,71.9,59.5,29.91,South,182,19.5,29.9,65,0.00,,-RA,0.00,626.00,VWS V14.01,2013-03-04 16:24:00,
2013-03-04 10:25:00,72.0,59.6,29.91,South,185,23.4,23.4,65,0.00,,-RA,0.00,626.00,VWS V14.01,2013-03-04 16:25:00,
2013-03-04 10:26:00,72.3,59.5,29.91,South,191,18.2,20.8,64,0.00,,-RA,0.00,652.00,VWS V14.01,2013-03-04 16:26:00,
2013-03-04 10:27:00,72.2,59.4,29.91,South,177,20.8,28.6,64,0.00,,-RA,0.00,636.00,VWS V14.01,2013-03-04 16:27:00,
2013-03-04 10:28:00,72.4,59.5,29.91,SSW,199,16.9,22.1,64,0.00,,-RA,0.00,671.00,VWS V14.01,2013-03-04 16:28:00,
2013-03-04 10:29:00,72.5,59.6,29.91,South,175,24.7,28.6,64,0.00,,-RA,0.00,663.00,VWS V14.01,2013-03-04 16:29:00,
2013-03-04 10:30:00,72.7,59.4,29.91,South,191,22.1,27.3,63,0.00,,-RA,0.00,666.00,VWS V14.01,2013-03-04 16:30:00,
2013-03-04 10:31:00,72.8,59.0,29.91,South,183,15.6,16.9,62,0.00,,-RA,0.00,661.00,VWS V14.01,2013-03-04 16:31:00,
2013-03-04 10:32:00,72.8,59.0,29.91,SSW,198,16.9,27.3,62,0.00,,-RA,0.00,664.00,VWS V14.01,2013-03-04 16:32:00,
2013-03-04 10:33:00,72.9,59.1,29.91,South,191,24.7,31.2,62,0.00,,-RA,0.00,661.00,VWS V14.01,2013-03-04 16:33:00,
2013-03-04 10:34:00,73.0,59.2,29.91,South,189,28.6,28.6,62,0.00,,-RA,0.00,671.00,VWS V14.01,2013-03-04 16:34:00,
2013-03-04 10:35:00,73.0,58.8,29.91,SSW,201,20.8,33.8,61,0.00,,-RA,0.00,663.00,VWS V14.01,2013-03-04 16:35:00,
2013-03-04 10:36:00,73.0,58.8,29.91,SSE,168,11.7,19.5,61,0.00,,-RA,0.00,663.00,VWS V14.01,2013-03-04 16:36:00,
2013-03-04 10:37:00,73.0,58.8,29.92,SSW,194,19.5,42.9,61,0.00,,-RA,0.00,663.00,VWS V14.01,2013-03-04 16:37:00,
2013-03-04 10:38:00,73.0,58.8,29.91,South,188,20.8,35.1,61,0.00,,-RA,0.00,693.00,VWS V14.01,2013-03-04 16:38:00,
2013-03-04 10:39:00,73.0,59.2,29.91,South,188,20.8,27.3,62,0.00,,-RA,0.00,691.00,VWS V14.01,2013-03-04 16:39:00,
2013-03-04 10:40:00,73.0,59.2,29.91,SSW,208,22.1,37.7,62,0.00,,-RA,0.00,691.00,VWS V14.01,2013-03-04 16:40:00,
2013-03-04 10:41:00,73.0,58.8,29.91,SW,217,36.4,36.4,61,0.00,,-RA,0.00,679.00,VWS V14.01,2013-03-04 16:41:00,
2013-03-04 10:42:00,73.0,58.8,29.91,South,183,19.5,31.2,61,0.00,,-RA,0.00,679.00,VWS V14.01,2013-03-04 16:42:00,
2013-03-04 10:43:00,72.9,58.7,29.91,South,183,16.9,36.4,61,0.00,,-RA,0.00,682.00,VWS V14.01,2013-03-04 16:43:00,
2013-03-04 10:44:00,72.9,58.7,29.91,SSW,205,28.6,28.6,61,0.00,,-RA,0.00,682.00,VWS V14.01,2013-03-04 16:44:00,
2013-03-04 10:45:00,72.9,59.1,29.91,South,185,29.9,35.1,62,0.00,,-RA,0.00,633.00,VWS V14.01,2013-03-04 16:45:00,
2013-03-04 10:46:00,72.8,58.6,29.91,SSW,213,35.1,35.1,61,0.00,,-RA,0.00,633.00,VWS V14.01,2013-03-04 16:46:00,
2013-03-04 10:47:00,72.8,58.6,29.91,SSW,203,18.2,35.1,61,0.00,,-RA,0.00,633.00,VWS V14.01,2013-03-04 16:47:00,
2013-03-04 10:48:00,72.8,58.6,29.91,South,183,41.6,41.6,61,0.00,,-RA,0.00,691.00,VWS V14.01,2013-03-04 16:48:00,
2013-03-04 10:49:00,72.8,58.6,29.91,South,181,27.3,41.6,61,0.00,,-RA,0.00,691.00,VWS V14.01,2013-03-04 16:49:00,
2013-03-04 10:50:00,72.7,58.5,29.91,South,176,19.5,27.3,61,0.00,,-RA,0.00,174.00,VWS V14.01,2013-03-04 16:50:00,
2013-03-04 10:51:00,72.6,58.8,29.91,SSW,211,14.3,19.5,62,0.00,,-RA,0.00,744.00,VWS V14.01,2013-03-04 16:51:00,
2013-03-04 10:52:00,72.6,58.8,29.91,SSW,210,18.2,33.8,62,0.00,,-RA,0.00,744.00,VWS V14.01,2013-03-04 16:52:00,
2013-03-04 10:53:00,72.6,58.8,29.91,South,186,22.1,22.1,62,0.00,,-RA,0.00,744.00,VWS V14.01,2013-03-04 16:53:00,
2013-03-04 10:54:00,72.6,58.8,29.91,SSW,199,36.4,37.7,62,0.00,,-RA,0.00,744.00,VWS V14.01,2013-03-04 16:54:00,
2013-03-04 10:55:00,72.5,59.2,29.91,SSW,210,26.0,36.4,63,0.00,,-RA,0.00,744.00,VWS V14.01,2013-03-04 16:55:00,
2013-03-04 10:56:00,72.4,59.1,29.91,South,186,23.4,23.4,63,0.00,,-RA,0.00,791.00,VWS V14.01,2013-03-04 16:56:00,
2013-03-04 10:57:00,72.5,59.2,29.91,South,185,22.1,32.5,63,0.00,,-RA,0.00,791.00,VWS V14.01,2013-03-04 16:57:00,
2013-03-04 10:58:00,72.5,59.2,29.91,South,185,16.9,28.6,63,0.00,,-RA,0.00,731.00,VWS V14.01,2013-03-04 16:58:00,
2013-03-04 10:59:00,72.6,59.7,29.91,South,187,14.3,16.9,64,0.00,,-RA,0.00,775.00,VWS V14.01,2013-03-04 16:59:00,
2013-03-04 11:00:00,72.7,59.4,29.91,SSW,198,22.1,22.1,63,0.00,,-RA,0.00,775.00,VWS V14.01,2013-03-04 17:00:00,
2013-03-04 11:01:00,73.0,59.7,29.91,SSW,199,28.6,28.6,63,0.00,,-RA,0.00,833.00,VWS V14.01,2013-03-04 17:01:00,
2013-03-04 11:02:00,72.9,59.6,29.91,SSW,196,28.6,28.6,63,0.00,,-RA,0.00,626.00,VWS V14.01,2013-03-04 17:02:00,
2013-03-04 11:03:00,73.0,59.2,29.91,SSW,196,18.2,31.2,62,0.00,,-RA,0.00,798.00,VWS V14.01,2013-03-04 17:03:00,
2013-03-04 11:04:00,73.1,59.3,29.91,South,170,23.4,39.0,62,0.00,,-RA,0.00,763.00,VWS V14.01,2013-03-04 17:04:00,
2013-03-04 11:05:00,73.2,59.4,29.91,SSW,199,14.3,29.9,62,0.00,,-RA,0.00,765.00,VWS V14.01,2013-03-04 17:05:00,
2013-03-04 11:06:00,73.4,59.6,29.91,SSW,194,24.7,24.7,62,0.00,,-RA,0.00,759.00,VWS V14.01,2013-03-04 17:06:00,
2013-03-04 11:07:00,73.4,59.6,29.91,SSW,197,16.9,40.3,62,0.00,,-RA,0.00,759.00,VWS V14.01,2013-03-04 17:07:00,
2013-03-04 11:08:00,73.4,59.6,29.91,South,182,11.7,24.7,62,0.00,,-RA,0.00,759.00,VWS V14.01,2013-03-04 17:08:00,
2013-03-04 11:09:00,73.5,59.2,29.91,SSW,193,16.9,23.4,61,0.00,,-RA,0.00,232.00,VWS V14.01,2013-03-04 17:09:00,
2013-03-04 11:10:00,73.5,59.2,29.91,South,178,22.1,35.1,61,0.00,,-RA,0.00,169.00,VWS V14.01,2013-03-04 17:10:00,
2013-03-04 11:11:00,73.4,58.7,29.91,SSE,167,22.1,22.1,60,0.00,,-RA,0.00,371.00,VWS V14.01,2013-03-04 17:11:00,
2013-03-04 11:12:00,73.4,58.7,29.91,SW,214,14.3,20.8,60,0.00,,-RA,0.00,174.00,VWS V14.01,2013-03-04 17:12:00,
2013-03-04 11:13:00,73.4,58.7,29.91,SW,224,10.4,22.1,60,0.00,,-RA,0.00,371.00,VWS V14.01,2013-03-04 17:13:00,
2013-03-04 11:14:00,73.3,58.6,29.91,SSW,199,16.9,36.4,60,0.00,,-RA,0.00,315.00,VWS V14.01,2013-03-04 17:14:00,
2013-03-04 11:15:00,73.3,58.6,29.92,SSW,193,16.9,35.1,60,0.00,,-RA,0.00,315.00,VWS V14.01,2013-03-04 17:15:00,
2013-03-04 11:16:00,73.1,58.4,29.92,SSE,168,22.1,26.0,60,0.00,,-RA,0.00,315.00,VWS V14.01,2013-03-04 17:16:00,
2013-03-04 11:17:00,73.1,58.4,29.92,SSW,205,16.9,36.4,60,0.00,,-RA,0.00,315.00,VWS V14.01,2013-03-04 17:17:00,
2013-03-04 11:18:00,73.0,58.3,29.92,South,183,31.2,39.0,60,0.00,,-RA,0.00,315.00,VWS V14.01,2013-03-04 17:18:00,
2013-03-04 11:19:00,73.0,58.3,29.92,SSW,196,20.8,44.2,60,0.00,,-RA,0.00,315.00,VWS V14.01,2013-03-04 17:19:00,
2013-03-04 11:20:00,73.0,58.8,29.92,SSW,208,14.3,28.6,61,0.00,,-RA,0.00,768.00,VWS V14.01,2013-03-04 17:20:00,
2013-03-04 11:21:00,73.2,59.0,29.91,SW,225,15.6,32.5,61,0.00,,-RA,0.00,777.00,VWS V14.01,2013-03-04 17:21:00,
2013-03-04 11:22:00,73.2,59.0,29.91,SSW,197,23.4,31.2,61,0.00,,-RA,0.00,777.00,VWS V14.01,2013-03-04 17:22:00,
2013-03-04 11:23:00,73.3,59.0,29.91,SSW,193,13.0,32.5,61,0.00,,-RA,0.00,772.00,VWS V14.01,2013-03-04 17:23:00,
2013-03-04 11:24:00,73.5,59.2,29.91,SSW,198,22.1,28.6,61,0.00,,-RA,0.00,765.00,VWS V14.01,2013-03-04 17:24:00,
2013-03-04 11:25:00,73.6,59.3,29.91,South,184,18.2,36.4,61,0.00,,-RA,0.00,759.00,VWS V14.01,2013-03-04 17:25:00,
2013-03-04 11:26:00,73.9,59.2,29.91,SSW,201,42.9,42.9,60,0.00,,-RA,0.00,761.00,VWS V14.01,2013-03-04 17:26:00,
2013-03-04 11:27:00,73.9,59.2,29.91,South,175,32.5,41.6,60,0.00,,-RA,0.00,761.00,VWS V14.01,2013-03-04 17:27:00,
2013-03-04 11:28:00,73.9,59.2,29.91,South,187,37.7,42.9,60,0.00,,-RA,0.00,775.00,VWS V14.01,2013-03-04 17:28:00,
2013-03-04 11:29:00,73.9,58.7,29.91,South,182,24.7,42.9,59,0.00,,-RA,0.00,773.00,VWS V14.01,2013-03-04 17:29:00,
2013-03-04 11:30:00,74.0,59.2,29.90,South,180,26.0,26.0,60,0.00,,-RA,0.00,772.00,VWS V14.01,2013-03-04 17:30:00,
2013-03-04 11:31:00,74.2,59.4,29.90,South,176,3.9,20.8,60,0.00,,-RA,0.00,758.00,VWS V14.01,2013-03-04 17:31:00,
2013-03-04 11:32:00,74.2,59.4,29.90,South,185,20.8,27.3,60,0.00,,-RA,0.00,758.00,VWS V14.01,2013-03-04 17:32:00,
2013-03-04 11:33:00,74.3,59.5,29.90,SSW,197,11.7,22.1,60,0.00,,-RA,0.00,756.00,VWS V14.01,2013-03-04 17:33:00,
2013-03-04 11:34:00,74.4,59.6,29.90,SSE,150,23.4,27.3,60,0.00,,-RA,0.00,756.00,VWS V14.01,2013-03-04 17:34:00,
2013-03-04 11:35:00,74.4,59.6,29.90,South,191,14.3,32.5,60,0.00,,-RA,0.00,749.00,VWS V14.01,2013-03-04 17:35:00,
2013-03-04 11:36:00,74.6,59.3,29.90,SSW,201,7.8,15.6,59,0.00,,-RA,0.00,765.00,VWS V14.01,2013-03-04 17:36:00,
2013-03-04 11:37:00,74.6,59.3,29.90,South,175,14.3,23.4,59,0.00,,-RA,0.00,763.00,VWS V14.01,2013-03-04 17:37:00,
2013-03-04 11:38:00,74.6,59.3,29.90,South,178,27.3,27.3,59,0.00,,-RA,0.00,788.00,VWS V14.01,2013-03-04 17:38:00,
2013-03-04 11:39:00,74.7,59.4,29.90,South,182,11.7,35.1,59,0.00,,-RA,0.00,796.00,VWS V14.01,2013-03-04 17:39:00,
2013-03-04 11:40:00,74.8,59.5,29.90,South,179,13.0,16.9,59,0.00,,-RA,0.00,821.00,VWS V14.01,2013-03-04 17:40:00,
2013-03-04 11:41:00,75.0,59.7,29.90,SSW,200,29.9,29.9,59,0.00,,-RA,0.00,802.00,VWS V14.01,2013-03-04 17:41:00,
2013-03-04 11:42:00,75.0,59.7,29.90,South,185,22.1,26.0,59,0.00,,-RA,0.00,782.00,VWS V14.01,2013-03-04 17:42:00,
2013-03-04 11:43:00,75.2,59.9,29.90,SSW,207,19.5,29.9,59,0.00,,-RA,0.00,802.00,VWS V14.01,2013-03-04 17:43:00,
2013-03-04 11:44:00,75.3,60.0,29.90,South,189,16.9,23.4,59,0.00,,-RA,0.00,802.00,VWS V14.01,2013-03-04 17:44:00,
2013-03-04 11:45:00,75.5,60.2,29.90,South,187,33.8,36.4,59,0.00,,-RA,0.00,802.00,VWS V14.01,2013-03-04 17:45:00,
2013-03-04 11:46:00,75.6,59.8,29.89,South,183,14.3,16.9,58,0.00,,-RA,0.00,784.00,VWS V14.01,2013-03-04 17:46:00,
2013-03-04 11:47:00,75.6,59.8,29.90,SSW,194,16.9,24.7,58,0.00,,-RA,0.00,784.00,VWS V14.01,2013-03-04 17:47:00,
2013-03-04 11:48:00,75.6,59.8,29.89,South,189,16.9,18.2,58,0.00,,-RA,0.00,784.00,VWS V14.01,2013-03-04 17:48:00,
2013-03-04 11:49:00,75.7,59.9,29.89,SSW,204,14.3,27.3,58,0.00,,-RA,0.00,784.00,VWS V14.01,2013-03-04 17:49:00,
2013-03-04 11:50:00,75.7,59.9,29.89,South,187,26.0,29.9,58,0.00,,-RA,0.00,786.00,VWS V14.01,2013-03-04 17:50:00,
2013-03-04 11:51:00,75.8,59.5,29.89,SW,214,7.8,24.7,57,0.00,,-RA,0.00,809.00,VWS V14.01,2013-03-04 17:51:00,
2013-03-04 11:52:00,75.8,60.0,29.89,SSW,208,15.6,32.5,58,0.00,,-RA,0.00,809.00,VWS V14.01,2013-03-04 17:52:00,
2013-03-04 11:53:00,75.8,60.0,29.89,SSW,195,26.0,37.7,58,0.00,,-RA,0.00,814.00,VWS V14.01,2013-03-04 17:53:00,
2013-03-04 11:54:00,75.8,59.5,29.89,SSW,210,11.7,39.0,57,0.00,,-RA,0.00,812.00,VWS V14.01,2013-03-04 17:54:00,
2013-03-04 11:55:00,75.8,59.0,29.89,SSW,212,18.2,28.6,56,0.00,,-RA,0.00,835.00,VWS V14.01,2013-03-04 17:55:00,
2013-03-04 11:56:00,75.6,58.8,29.89,SW,216,20.8,23.4,56,0.00,,-RA,0.00,819.00,VWS V14.01,2013-03-04 17:56:00,
2013-03-04 11:57:00,75.7,58.9,29.89,South,191,13.0,32.5,56,0.00,,-RA,0.00,819.00,VWS V14.01,2013-03-04 17:57:00,
2013-03-04 11:58:00,75.6,58.8,29.89,SSW,193,29.9,35.1,56,0.00,,-RA,0.00,819.00,VWS V14.01,2013-03-04 17:58:00,
2013-03-04 11:59:00,75.6,58.8,29.89,SSW,211,29.9,36.4,56,0.00,,-RA,0.00,819.00,VWS V14.01,2013-03-04 17:59:00,
2013-03-04 12:00:00,75.6,58.8,29.89,South,190,29.9,29.9,56,0.00,,-RA,0.00,819.00,VWS V14.01,2013-03-04 18:00:00,
2013-03-04 12:01:00,75.7,59.4,29.89,SSW,198,16.9,27.3,57,0.00,,-RA,0.00,796.00,VWS V14.01,2013-03-04 18:01:00,
2013-03-04 12:02:00,75.6,58.8,29.88,SW,222,19.5,22.1,56,0.00,,-RA,0.00,796.00,VWS V14.01,2013-03-04 18:02:00,
2013-03-04 12:03:00,75.7,59.4,29.89,SW,214,24.7,27.3,57,0.00,,-RA,0.00,802.00,VWS V14.01,2013-03-04 18:03:00,
2013-03-04 12:04:00,75.8,59.5,29.89,SSW,199,24.7,36.4,57,0.00,,-RA,0.00,809.00,VWS V14.01,2013-03-04 18:04:00,
2013-03-04 12:05:00,75.8,59.0,29.88,South,179,24.7,36.4,56,0.00,,-RA,0.00,823.00,VWS V14.01,2013-03-04 18:05:00,
2013-03-04 12:06:00,75.8,59.5,29.88,South,190,22.1,28.6,57,0.00,,-RA,0.00,814.00,VWS V14.01,2013-03-04 18:06:00,
2013-03-04 12:07:00,75.8,59.5,29.88,WSW,244,7.8,33.8,57,0.00,,-RA,0.00,814.00,VWS V14.01,2013-03-04 18:07:00,
2013-03-04 12:08:00,75.8,59.5,29.88,South,185,19.5,28.6,57,0.00,,-RA,0.00,805.00,VWS V14.01,2013-03-04 18:08:00,
2013-03-04 12:09:00,75.9,59.1,29.88,SW,219,6.5,31.2,56,0.00,,-RA,0.00,788.00,VWS V14.01,2013-03-04 18:09:00,
2013-03-04 12:10:00,75.9,59.6,29.88,South,181,15.6,28.6,57,0.00,,-RA,0.00,793.00,VWS V14.01,2013-03-04 18:10:00,
2013-03-04 12:11:00,75.9,59.6,29.88,SSW,194,23.4,35.1,57,0.00,,-RA,0.00,802.00,VWS V14.01,2013-03-04 18:11:00,
2013-03-04 12:12:00,75.9,59.6,29.88,South,189,35.1,35.1,57,0.00,,-RA,0.00,793.00,VWS V14.01,2013-03-04 18:12:00,
2013-03-04 12:13:00,75.9,59.1,29.88,South,182,15.6,35.1,56,0.00,,-RA,0.00,791.00,VWS V14.01,2013-03-04 18:13:00,
2013-03-04 12:14:00,76.0,59.2,29.88,South,172,33.8,33.8,56,0.00,,-RA,0.00,846.00,VWS V14.01,2013-03-04 18:14:00,
2013-03-04 12:15:00,76.0,59.7,29.88,SSE,154,19.5,40.3,57,0.00,,-RA,0.00,888.00,VWS V14.01,2013-03-04 18:15:00,
2013-03-04 12:16:00,76.1,59.8,29.87,SSW,193,19.5,28.6,57,0.00,,-RA,0.00,809.00,VWS V14.01,2013-03-04 18:16:00,
2013-03-04 12:17:00,76.1,59.8,29.87,South,180,28.6,32.5,57,0.00,,-RA,0.00,823.00,VWS V14.01,2013-03-04 18:17:00,
2013-03-04 12:18:00,76.1,59.8,29.87,SSW,199,19.5,28.6,57,0.00,,-RA,0.00,809.00,VWS V14.01,2013-03-04 18:18:00,
2013-03-04 12:19:00,76.2,59.4,29.87,South,187,27.3,35.1,56,0.00,,-RA,0.00,796.00,VWS V14.01,2013-03-04 18:19:00,
2013-03-04 12:20:00,76.3,59.5,29.87,SSW,204,26.0,36.4,56,0.00,,-RA,0.00,779.00,VWS V14.01,2013-03-04 18:20:00,
2013-03-04 12:21:00,76.2,59.4,29.87,SSE,162,14.3,26.0,56,0.00,,-RA,0.00,791.00,VWS V14.01,2013-03-04 18:21:00,
2013-03-04 12:22:00,76.3,59.5,29.87,South,189,15.6,28.6,56,0.00,,-RA,0.00,798.00,VWS V14.01,2013-03-04 18:22:00,
2013-03-04 12:23:00,76.4,60.1,29.87,SW,218,6.5,28.6,57,0.00,,-RA,0.00,798.00,VWS V14.01,2013-03-04 18:23:00,
2013-03-04 12:24:00,76.5,59.7,29.87,SSW,204,16.9,23.4,56,0.00,,-RA,0.00,800.00,VWS V14.01,2013-03-04 18:24:00,
2013-03-04 12:25:00,76.6,59.8,29.87,South,183,10.4,22.1,56,0.00,,-RA,0.00,807.00,VWS V14.01,2013-03-04 18:25:00,
2013-03-04 12:26:00,76.8,59.9,29.87,SSW,199,26.0,31.2,56,0.00,,-RA,0.00,803.00,VWS V14.01,2013-03-04 18:26:00,
2013-03-04 12:27:00,77.0,59.1,29.87,South,187,28.6,33.8,54,0.00,,-RA,0.00,816.00,VWS V14.01,2013-03-04 18:27:00,
2013-03-04 12:28:00,77.0,59.1,29.87,SSW,195,20.8,40.3,54,0.00,,-RA,0.00,816.00,VWS V14.01,2013-03-04 18:28:00,
2013-03-04 12:29:00,77.0,59.1,29.87,SSW,203,19.5,24.7,54,0.00,,-RA,0.00,793.00,VWS V14.01,2013-03-04 18:29:00,
2013-03-04 12:30:00,77.0,59.1,29.87,SSW,194,15.6,28.6,54,0.00,,-RA,0.00,795.00,VWS V14.01,2013-03-04 18:30:00,
2013-03-04 12:31:00,77.1,59.2,29.87,SSW,204,27.3,27.3,54,0.00,,-RA,0.00,807.00,VWS V14.01,2013-03-04 18:31:00,
2013-03-04 12:32:00,77.1,59.2,29.87,SSW,207,14.3,27.3,54,0.00,,-RA,0.00,802.00,VWS V14.01,2013-03-04 18:32:00,
2013-03-04 12:33:00,77.1,59.2,29.87,South,183,15.6,16.9,54,0.00,,-RA,0.00,796.00,VWS V14.01,2013-03-04 18:33:00,
2013-03-04 12:34:00,77.4,59.5,29.87,SSW,204,19.5,22.1,54,0.00,,-RA,0.00,810.00,VWS V14.01,2013-03-04 18:34:00,
2013-03-04 12:35:00,77.3,59.4,29.87,South,179,16.9,24.7,54,0.00,,-RA,0.00,796.00,VWS V14.01,2013-03-04 18:35:00,
2013-03-04 12:36:00,77.4,60.0,29.87,SSW,199,15.6,29.9,55,0.00,,-RA,0.00,802.00,VWS V14.01,2013-03-04 18:36:00,
2013-03-04 12:37:00,77.5,59.6,29.87,SSW,208,23.4,26.0,54,0.00,,-RA,0.00,802.00,VWS V14.01,2013-03-04 18:37:00,
2013-03-04 12:38:00,77.5,59.6,29.87,South,183,23.4,37.7,54,0.00,,-RA,0.00,802.00,VWS V14.01,2013-03-04 18:38:00,
2013-03-04 12:39:00,77.3,59.4,29.86,SSW,194,22.1,22.1,54,0.00,,-RA,0.00,809.00,VWS V14.01,2013-03-04 18:39:00,
2013-03-04 12:40:00,77.4,59.5,29.86,SW,214,16.9,31.2,54,0.00,,-RA,0.00,798.00,VWS V14.01,2013-03-04 18:40:00,
2013-03-04 12:41:00,77.3,59.4,29.86,SSW,197,5.2,22.1,54,0.00,,-RA,0.00,809.00,VWS V14.01,2013-03-04 18:41:00,
2013-03-04 12:42:00,77.3,59.9,29.86,South,189,22.1,22.1,55,0.00,,-RA,0.00,800.00,VWS V14.01,2013-03-04 18:42:00,
2013-03-04 12:43:00,77.4,60.0,29.86,SSE,165,23.4,29.9,55,0.00,,-RA,0.00,798.00,VWS V14.01,2013-03-04 18:43:00,
2013-03-04 12:44:00,77.5,59.6,29.86,South,180,22.1,26.0,54,0.00,,-RA,0.00,796.00,VWS V14.01,2013-03-04 18:44:00,
2013-03-04 12:45:00,77.5,59.6,29.86,SSE,168,18.2,20.8,54,0.00,,-RA,0.00,796.00,VWS V14.01,2013-03-04 18:45:00,
2013-03-04 12:46:00,77.5,59.6,29.86,South,183,44.2,44.2,54,0.00,,-RA,0.00,796.00,VWS V14.01,2013-03-04 18:46:00,
2013-03-04 12:47:00,77.4,59.0,29.86,South,191,32.5,44.2,53,0.00,,-RA,0.00,798.00,VWS V14.01,2013-03-04 18:47:00,
2013-03-04 12:48:00,77.3,59.4,29.86,SSE,150,15.6,32.5,54,0.00,,-RA,0.00,803.00,VWS V14.01,2013-03-04 18:48:00,
2013-03-04 12:49:00,77.2,59.8,29.86,SSE,162,20.8,26.0,55,0.00,,-RA,0.00,803.00,VWS V14.01,2013-03-04 18:49:00,
2013-03-04 12:50:00,77.3,59.9,29.86,SSE,163,18.2,22.1,55,0.00,,-RA,0.00,802.00,VWS V14.01,2013-03-04 18:50:00,
2013-03-04 12:51:00,77.3,59.9,29.86,South,172,15.6,26.0,55,0.00,,-RA,0.00,803.00,VWS V14.01,2013-03-04 18:51:00,
2013-03-04 12:52:00,77.3,59.9,29.86,SSW,208,6.5,22.1,55,0.00,,-RA,0.00,803.00,VWS V14.01,2013-03-04 18:52:00,
2013-03-04 12:53:00,77.3,59.9,29.85,South,179,22.1,24.7,55,0.00,,-RA,0.00,805.00,VWS V14.01,2013-03-04 18:53:00,
2013-03-04 12:54:00,77.5,60.1,29.85,South,169,19.5,19.5,55,0.00,,-RA,0.00,807.00,VWS V14.01,2013-03-04 18:54:00,
2013-03-04 12:55:00,77.5,59.6,29.85,South,185,15.6,24.7,54,0.00,,-RA,0.00,807.00,VWS V14.01,2013-03-04 18:55:00,
2013-03-04 12:56:00,77.6,60.2,29.86,South,179,28.6,28.6,55,0.00,,-RA,0.00,795.00,VWS V14.01,2013-03-04 18:56:00,
2013-03-04 12:57:00,77.7,60.3,29.85,SSW,193,19.5,28.6,55,0.00,,-RA,0.00,795.00,VWS V14.01,2013-03-04 18:57:00,
2013-03-04 12:58:00,77.6,59.7,29.85,SSW,205,28.6,28.6,54,0.00,,-RA,0.00,798.00,VWS V14.01,2013-03-04 18:58:00,
2013-03-04 12:59:00,77.5,59.0,29.85,South,189,31.2,45.5,53,0.00,,-RA,0.00,800.00,VWS V14.01,2013-03-04 18:59:00,
2013-03-04 13:00:00,77.5,59.0,29.85,SSW,205,16.9,44.2,53,0.00,,-RA,0.00,800.00,VWS V14.01,2013-03-04 19:00:00,
2013-03-04 13:01:00,77.4,59.0,29.85,South,179,27.3,45.5,53,0.00,,-RA,0.00,803.00,VWS V14.01,2013-03-04 19:01:00,
2013-03-04 13:02:00,77.3,58.8,29.85,South,175,15.6,36.4,53,0.00,,-RA,0.00,802.00,VWS V14.01,2013-03-04 19:02:00,
2013-03-04 13:03:00,77.2,59.3,29.85,South,179,19.5,36.4,54,0.00,,-RA,0.00,798.00,VWS V14.01,2013-03-04 19:03:00,
2013-03-04 13:04:00,77.1,59.2,29.85,South,186,20.8,27.3,54,0.00,,-RA,0.00,796.00,VWS V14.01,2013-03-04 19:04:00,
2013-03-04 13:05:00,77.1,59.2,29.85,SSE,166,5.2,16.9,54,0.00,,-RA,0.00,784.00,VWS V14.01,2013-03-04 19:05:00,
2013-03-04 13:06:00,77.1,59.2,29.85,South,181,20.8,29.9,54,0.00,,-RA,0.00,788.00,VWS V14.01,2013-03-04 19:06:00,
2013-03-04 13:07:00,77.0,59.6,29.85,South,191,15.6,26.0,55,0.00,,-RA,0.00,795.00,VWS V14.01,2013-03-04 19:07:00,
2013-03-04 13:08:00,77.0,59.6,29.85,South,185,23.4,24.7,55,0.00,,-RA,0.00,819.00,VWS V14.01,2013-03-04 19:08:00,
2013-03-04 13:09:00,77.0,59.6,29.85,South,187,22.1,28.6,55,0.00,,-RA,0.00,791.00,VWS V14.01,2013-03-04 19:09:00,
2013-03-04 13:10:00,77.1,59.7,29.85,SSW,193,35.1,35.1,55,0.00,,-RA,0.00,791.00,VWS V14.01,2013-03-04 19:10:00,
2013-03-04 13:11:00,77.2,60.3,29.85,SSW,193,35.1,35.1,56,0.00,,-RA,0.00,791.00,VWS V14.01,2013-03-04 19:11:00,
2013-03-04 13:12:00,77.3,59.4,29.84,South,182,29.9,39.0,54,0.00,,-RA,0.00,793.00,VWS V14.01,2013-03-04 19:12:00,
2013-03-04 13:13:00,77.4,59.0,29.84,South,175,15.6,33.8,53,0.00,,-RA,0.00,793.00,VWS V14.01,2013-03-04 19:13:00,
2013-03-04 13:14:00,77.3,59.4,29.84,SSW,205,16.9,35.1,54,0.00,,-RA,0.00,795.00,VWS V14.01,2013-03-04 19:14:00,
2013-03-04 13:15:00,77.3,59.4,29.84,SE,137,35.1,35.1,54,0.00,,-RA,0.00,788.00,VWS V14.01,2013-03-04 19:15:00,
2013-03-04 13:16:00,77.3,58.8,29.84,SSW,211,13.0,35.1,53,0.00,,-RA,0.00,788.00,VWS V14.01,2013-03-04 19:16:00,
2013-03-04 13:17:00,77.2,58.8,29.84,South,190,27.3,37.7,53,0.00,,-RA,0.00,784.00,VWS V14.01,2013-03-04 19:17:00,
2013-03-04 13:18:00,77.1,58.7,29.84,South,189,31.2,31.2,53,0.00,,-RA,0.00,784.00,VWS V14.01,2013-03-04 19:18:00,
2013-03-04 13:19:00,77.1,58.7,29.84,SSW,199,18.2,35.1,53,0.00,,-RA,0.00,777.00,VWS V14.01,2013-03-04 19:19:00,
2013-03-04 13:20:00,77.2,58.8,29.84,South,190,33.8,33.8,53,0.00,,-RA,0.00,775.00,VWS V14.01,2013-03-04 19:20:00,
2013-03-04 13:21:00,77.1,58.7,29.84,South,176,18.2,36.4,53,0.00,,-RA,0.00,775.00,VWS V14.01,2013-03-04 19:21:00,
2013-03-04 13:22:00,77.2,58.8,29.84,South,189,28.6,35.1,53,0.00,,-RA,0.00,779.00,VWS V14.01,2013-03-04 19:22:00,
2013-03-04 13:23:00,77.1,58.7,29.84,SSW,211,15.6,36.4,53,0.00,,-RA,0.00,775.00,VWS V14.01,2013-03-04 19:23:00,
2013-03-04 13:24:00,77.1,58.7,29.84,South,177,24.7,29.9,53,0.00,,-RA,0.00,779.00,VWS V14.01,2013-03-04 19:24:00,
2013-03-04 13:25:00,77.1,59.2,29.84,South,184,18.2,22.1,54,0.00,,-RA,0.00,779.00,VWS V14.01,2013-03-04 19:25:00,
2013-03-04 13:26:00,77.1,59.2,29.84,South,187,11.7,27.3,54,0.00,,-RA,0.00,779.00,VWS V14.01,2013-03-04 19:26:00,
2013-03-04 13:27:00,77.1,58.7,29.84,SSW,206,29.9,29.9,53,0.00,,-RA,0.00,775.00,VWS V14.01,2013-03-04 19:27:00,
2013-03-04 13:28:00,77.2,58.2,29.84,South,173,15.6,32.5,52,0.00,,-RA,0.00,775.00,VWS V14.01,2013-03-04 19:28:00,
2013-03-04 13:29:00,77.2,58.8,29.84,SSW,206,29.9,32.5,53,0.00,,-RA,0.00,777.00,VWS V14.01,2013-03-04 19:29:00,
2013-03-04 13:30:00,77.3,58.8,29.84,SSE,163,14.3,22.1,53,0.00,,-RA,0.00,773.00,VWS V14.01,2013-03-04 19:30:00,
2013-03-04 13:31:00,77.3,58.8,29.84,SSW,197,13.0,22.1,53,0.00,,-RA,0.00,770.00,VWS V14.01,2013-03-04 19:31:00,
2013-03-04 13:32:00,77.5,59.6,29.84,SSW,196,33.8,33.8,54,0.00,,-RA,0.00,772.00,VWS V14.01,2013-03-04 19:32:00,
2013-03-04 13:33:00,77.6,59.1,29.84,SSW,193,20.8,33.8,53,0.00,,-RA,0.00,773.00,VWS V14.01,2013-03-04 19:33:00,
2013-03-04 13:34:00,77.7,59.2,29.83,SW,231,18.2,32.5,53,0.00,,-RA,0.00,772.00,VWS V14.01,2013-03-04 19:34:00,
2013-03-04 13:35:00,77.7,58.7,29.83,SSW,193,18.2,22.1,52,0.00,,-RA,0.00,770.00,VWS V14.01,2013-03-04 19:35:00,
2013-03-04 13:36:00,77.7,58.7,29.83,SW,234,15.6,22.1,52,0.00,,-RA,0.00,765.00,VWS V14.01,2013-03-04 19:36:00,
2013-03-04 13:37:00,77.7,59.2,29.83,SSW,193,28.6,28.6,53,0.00,,-RA,0.00,766.00,VWS V14.01,2013-03-04 19:37:00,
2013-03-04 13:38:00,77.7,59.2,29.84,SSW,208,31.2,32.5,53,0.00,,-RA,0.00,765.00,VWS V14.01,2013-03-04 19:38:00,
2013-03-04 13:39:00,77.7,58.7,29.83,South,183,33.8,33.8,52,0.00,,-RA,0.00,768.00,VWS V14.01,2013-03-04 19:39:00,
2013-03-04 13:40:00,77.7,59.2,29.83,SSW,195,15.6,27.3,53,0.00,,-RA,0.00,766.00,VWS V14.01,2013-03-04 19:40:00,
2013-03-04 13:41:00,77.7,59.2,29.83,SSW,203,15.6,27.3,53,0.00,,-RA,0.00,765.00,VWS V14.01,2013-03-04 19:41:00,
2013-03-04 13:42:00,77.7,59.2,29.83,SSW,210,7.8,20.8,53,0.00,,-RA,0.00,759.00,VWS V14.01,2013-03-04 19:42:00,
2013-03-04 13:43:00,77.9,59.9,29.83,SSW,204,24.7,28.6,54,0.00,,-RA,0.00,763.00,VWS V14.01,2013-03-04 19:43:00,
2013-03-04 13:44:00,78.0,59.0,29.83,SSW,193,14.3,24.7,52,0.00,,-RA,0.00,761.00,VWS V14.01,2013-03-04 19:44:00,
2013-03-04 13:45:00,78.1,59.1,29.83,SSW,196,15.6,23.4,52,0.00,,-RA,0.00,761.00,VWS V14.01,2013-03-04 19:45:00,
2013-03-04 13:46:00,78.1,59.1,29.83,South,191,14.3,23.4,52,0.00,,-RA,0.00,761.00,VWS V14.01,2013-03-04 19:46:00,
2013-03-04 13:47:00,78.2,59.2,29.83,SSW,202,16.9,20.8,52,0.00,,-RA,0.00,752.00,VWS V14.01,2013-03-04 19:47:00,
2013-03-04 13:48:00,78.2,59.2,29.83,SSW,206,14.3,24.7,52,0.00,,-RA,0.00,759.00,VWS V14.01,2013-03-04 19:48:00,
2013-03-04 13:49:00,78.2,59.2,29.83,SSW,199,23.4,32.5,52,0.00,,-RA,0.00,756.00,VWS V14.01,2013-03-04 19:49:00,
2013-03-04 13:50:00,78.2,59.2,29.83,SSW,193,35.1,35.1,52,0.00,,-RA,0.00,752.00,VWS V14.01,2013-03-04 19:50:00,
2013-03-04 13:51:00,78.2,59.7,29.83,SSW,195,27.3,35.1,53,0.00,,-RA,0.00,752.00,VWS V14.01,2013-03-04 19:51:00,
2013-03-04 13:52:00,78.2,59.7,29.83,South,170,13.0,31.2,53,0.00,,-RA,0.00,738.00,VWS V14.01,2013-03-04 19:52:00,
2013-03-04 13:53:00,78.2,59.7,29.83,SSE,157,27.3,27.3,53,0.00,,-RA,0.00,747.00,VWS V14.01,2013-03-04 19:53:00,
2013-03-04 13:54:00,78.2,59.2,29.83,SSW,205,13.0,29.9,52,0.00,,-RA,0.00,749.00,VWS V14.01,2013-03-04 19:54:00,
2013-03-04 13:55:00,78.0,58.4,29.83,South,188,22.1,35.1,51,0.00,,-RA,0.00,744.00,VWS V14.01,2013-03-04 19:55:00,
2013-03-04 13:56:00,78.0,59.0,29.83,South,189,23.4,35.1,52,0.00,,-RA,0.00,744.00,VWS V14.01,2013-03-04 19:56:00,
2013-03-04 13:57:00,77.9,58.9,29.82,South,177,32.5,33.8,52,0.00,,-RA,0.00,744.00,VWS V14.01,2013-03-04 19:57:00,
2013-03-04 13:58:00,77.8,58.8,29.82,SSE,149,16.9,32.5,52,0.00,,-RA,0.00,742.00,VWS V14.01,2013-03-04 19:58:00,
2013-03-04 13:59:00,77.8,58.8,29.82,South,170,14.3,28.6,52,0.00,,-RA,0.00,735.00,VWS V14.01,2013-03-04 19:59:00,
2013-03-04 14:00:00,77.8,59.3,29.82,South,180,16.9,20.8,53,0.00,,-RA,0.00,735.00,VWS V14.01,2013-03-04 20:00:00,
2013-03-04 14:01:00,77.9,59.4,29.82,SSE,166,9.1,20.8,53,0.00,,-RA,0.00,735.00,VWS V14.01,2013-03-04 20:01:00,
2013-03-04 14:02:00,77.9,58.9,29.82,SW,215,11.7,35.1,52,0.00,,-RA,0.00,733.00,VWS V14.01,2013-03-04 20:02:00,
2013-03-04 14:03:00,77.9,58.9,29.82,SE,140,22.1,22.1,52,0.00,,-RA,0.00,735.00,VWS V14.01,2013-03-04 20:03:00,
2013-03-04 14:04:00,77.9,58.9,29.82,South,172,18.2,26.0,52,0.00,,-RA,0.00,742.00,VWS V14.01,2013-03-04 20:04:00,
2013-03-04 14:05:00,77.9,58.9,29.82,SW,224,23.4,37.7,52,0.00,,-RA,0.00,735.00,VWS V14.01,2013-03-04 20:05:00,
2013-03-04 14:06:00,77.9,58.9,29.82,SSW,203,28.6,37.7,52,0.00,,-RA,0.00,735.00,VWS V14.01,2013-03-04 20:06:00,
2013-03-04 14:07:00,77.9,58.9,29.82,SSE,168,24.7,35.1,52,0.00,,-RA,0.00,731.00,VWS V14.01,2013-03-04 20:07:00,
2013-03-04 14:08:00,77.8,58.8,29.82,South,183,22.1,28.6,52,0.00,,-RA,0.00,726.00,VWS V14.01,2013-03-04 20:08:00,
2013-03-04 14:09:00,77.8,59.3,29.82,SSE,165,15.6,22.1,53,0.00,,-RA,0.00,724.00,VWS V14.01,2013-03-04 20:09:00,
2013-03-04 14:10:00,77.9,59.4,29.81,SSW,193,14.3,28.6,53,0.00,,-RA,0.00,724.00,VWS V14.01,2013-03-04 20:10:00,
2013-03-04 14:11:00,77.9,59.4,29.81,SSW,208,16.9,28.6,53,0.00,,-RA,0.00,724.00,VWS V14.01,2013-03-04 20:11:00,
2013-03-04 14:12:00,77.9,59.4,29.82,SSW,193,19.5,20.8,53,0.00,,-RA,0.00,719.00,VWS V14.01,2013-03-04 20:12:00,
2013-03-04 14:13:00,77.9,59.4,29.82,South,185,28.6,31.2,53,0.00,,-RA,0.00,726.00,VWS V14.01,2013-03-04 20:13:00,
2013-03-04 14:14:00,77.9,58.9,29.81,South,179,20.8,35.1,52,0.00,,-RA,0.00,721.00,VWS V14.01,2013-03-04 20:14:00,
2013-03-04 14:15:00,77.8,58.8,29.82,SSW,208,14.3,22.1,52,0.00,,-RA,0.00,717.00,VWS V14.01,2013-03-04 20:15:00,
2013-03-04 14:16:00,77.8,58.8,29.82,SSW,209,23.4,26.0,52,0.00,,-RA,0.00,714.00,VWS V14.01,2013-03-04 20:16:00,
2013-03-04 14:17:00,77.8,58.8,29.81,South,182,23.4,41.6,52,0.00,,-RA,0.00,708.00,VWS V14.01,2013-03-04 20:17:00,
2013-03-04 14:18:00,77.7,58.7,29.81,SSW,198,18.2,39.0,52,0.00,,-RA,0.00,714.00,VWS V14.01,2013-03-04 20:18:00,
2013-03-04 14:19:00,77.6,58.6,29.82,SSW,213,20.8,28.6,52,0.00,,-RA,0.00,710.00,VWS V14.01,2013-03-04 20:19:00,
2013-03-04 14:20:00,77.5,58.5,29.81,South,189,19.5,27.3,52,0.00,,-RA,0.00,708.00,VWS V14.01,2013-03-04 20:20:00,
2013-03-04 14:21:00,77.5,58.5,29.81,SSW,193,33.8,33.8,52,0.00,,-RA,0.00,708.00,VWS V14.01,2013-03-04 20:21:00,
2013-03-04 14:22:00,77.5,58.5,29.81,South,191,20.8,33.8,52,0.00,,-RA,0.00,705.00,VWS V14.01,2013-03-04 20:22:00,
2013-03-04 14:23:00,77.4,58.4,29.81,SSE,165,23.4,31.2,52,0.00,,-RA,0.00,698.00,VWS V14.01,2013-03-04 20:23:00,
2013-03-04 14:24:00,77.5,58.5,29.81,SSW,211,15.6,39.0,52,0.00,,-RA,0.00,698.00,VWS V14.01,2013-03-04 20:24:00,
2013-03-04 14:25:00,77.5,58.5,29.81,South,178,11.7,26.0,52,0.00,,-RA,0.00,682.00,VWS V14.01,2013-03-04 20:25:00,
2013-03-04 14:26:00,77.5,58.5,29.81,South,170,22.1,26.0,52,0.00,,-RA,0.00,682.00,VWS V14.01,2013-03-04 20:26:00,
2013-03-04 14:27:00,77.6,58.6,29.81,SSW,198,15.6,22.1,52,0.00,,-RA,0.00,689.00,VWS V14.01,2013-03-04 20:27:00,
2013-03-04 14:28:00,77.7,59.2,29.81,SSW,193,22.1,22.1,53,0.00,,-RA,0.00,689.00,VWS V14.01,2013-03-04 20:28:00,
2013-03-04 14:29:00,77.9,59.4,29.81,South,178,26.0,28.6,53,0.00,,-RA,0.00,686.00,VWS V14.01,2013-03-04 20:29:00,
2013-03-04 14:30:00,78.1,60.6,29.81,South,183,18.2,39.0,55,0.00,,-RA,0.00,677.00,VWS V14.01,2013-03-04 20:30:00,
2013-03-04 14:31:00,78.1,60.1,29.81,SSW,193,18.2,39.0,54,0.00,,-RA,0.00,677.00,VWS V14.01,2013-03-04 20:31:00,
2013-03-04 14:32:00,78.1,60.1,29.81,South,175,20.8,28.6,54,0.00,,-RA,0.00,679.00,VWS V14.01,2013-03-04 20:32:00,
2013-03-04 14:33:00,78.0,60.0,29.81,SW,214,18.2,33.8,54,0.00,,-RA,0.00,673.00,VWS V14.01,2013-03-04 20:33:00,
2013-03-04 14:34:00,77.9,59.9,29.81,South,183,9.1,18.2,54,0.00,,-RA,0.00,679.00,VWS V14.01,2013-03-04 20:34:00,
2013-03-04 14:35:00,77.8,60.4,29.81,SE,146,19.5,28.6,55,0.00,,-RA,0.00,677.00,VWS V14.01,2013-03-04 20:35:00,
2013-03-04 14:36:00,77.8,60.4,29.81,SE,146,19.5,28.6,55,0.00,,-RA,0.00,677.00,VWS V14.01,2013-03-04 20:36:00,
2013-03-04 14:37:00,77.8,60.4,29.81,SSE,165,14.3,22.1,55,0.00,,-RA,0.00,677.00,VWS V14.01,2013-03-04 20:37:00,
2013-03-04 14:38:00,77.8,60.4,29.81,South,186,15.6,28.6,55,0.00,,-RA,0.00,673.00,VWS V14.01,2013-03-04 20:38:00,
2013-03-04 14:39:00,77.8,60.4,29.81,South,183,15.6,22.1,55,0.00,,-RA,0.00,671.00,VWS V14.01,2013-03-04 20:39:00,
2013-03-04 14:40:00,77.9,60.5,29.81,WSW,258,18.2,29.9,55,0.00,,-RA,0.00,671.00,VWS V14.01,2013-03-04 20:40:00,
2013-03-04 14:41:00,77.9,60.5,29.81,WSW,258,18.2,29.9,55,0.00,,-RA,0.00,671.00,VWS V14.01,2013-03-04 20:41:00,
2013-03-04 14:42:00,77.9,59.9,29.81,South,191,19.5,19.5,54,0.00,,-RA,0.00,671.00,VWS V14.01,2013-03-04 20:42:00,
2013-03-04 14:43:00,78.0,60.0,29.81,South,188,19.5,31.2,54,0.00,,-RA,0.00,663.00,VWS V14.01,2013-03-04 20:43:00,
2013-03-04 14:44:00,78.1,60.1,29.81,SSE,165,11.7,26.0,54,0.00,,-RA,0.00,661.00,VWS V14.01,2013-03-04 20:44:00,
2013-03-04 14:45:00,78.2,60.2,29.81,SSE,164,19.5,19.5,54,0.00,,-RA,0.00,647.00,VWS V14.01,2013-03-04 20:45:00,
2013-03-04 14:46:00,78.2,60.2,29.81,SSE,164,19.5,19.5,54,0.00,,-RA,0.00,647.00,VWS V14.01,2013-03-04 20:46:00,
2013-03-04 14:47:00,78.2,60.7,29.81,South,169,26.0,26.0,55,0.00,,-RA,0.00,645.00,VWS V14.01,2013-03-04 20:47:00,
2013-03-04 14:48:00,78.1,60.1,29.81,SSW,193,20.8,35.1,54,0.00,,-RA,0.00,647.00,VWS V14.01,2013-03-04 20:48:00,
2013-03-04 14:49:00,78.0,60.0,29.81,South,171,15.6,35.1,54,0.00,,-RA,0.00,642.00,VWS V14.01,2013-03-04 20:49:00,
2013-03-04 14:50:00,77.7,60.3,29.81,SSE,161,28.6,32.5,55,0.00,,-RA,0.00,638.00,VWS V14.01,2013-03-04 20:50:00,
2013-03-04 14:51:00,77.7,60.3,29.81,SSE,161,28.6,32.5,55,0.00,,-RA,0.00,638.00,VWS V14.01,2013-03-04 20:51:00,
2013-03-04 14:52:00,77.6,60.2,29.81,South,191,16.9,29.9,55,0.00,,-RA,0.00,638.00,VWS V14.01,2013-03-04 20:52:00,
2013-03-04 14:53:00,77.5,60.1,29.81,SSE,166,23.4,27.3,55,0.00,,-RA,0.00,635.00,VWS V14.01,2013-03-04 20:53:00,
2013-03-04 14:54:00,77.4,60.5,29.81,South,171,22.1,29.9,56,0.00,,-RA,0.00,629.00,VWS V14.01,2013-03-04 20:54:00,
2013-03-04 14:55:00,77.4,60.5,29.81,SSE,159,19.5,27.3,56,0.00,,-RA,0.00,628.00,VWS V14.01,2013-03-04 20:55:00,
2013-03-04 14:56:00,77.4,60.5,29.81,SSE,159,19.5,27.3,56,0.00,,-RA,0.00,628.00,VWS V14.01,2013-03-04 20:56:00,
2013-03-04 14:57:00,77.4,60.5,29.81,South,179,16.9,23.4,56,0.00,,-RA,0.00,624.00,VWS V14.01,2013-03-04 20:57:00,
2013-03-04 14:58:00,77.5,60.6,29.81,SSE,156,16.9,28.6,56,0.00,,-RA,0.00,626.00,VWS V14.01,2013-03-04 20:58:00,
2013-03-04 14:59:00,77.5,60.1,29.80,South,181,20.8,20.8,55,0.00,,-RA,0.00,626.00,VWS V14.01,2013-03-04 20:59:00,
2013-03-04 15:00:00,77.4,60.5,29.80,South,183,27.3,32.5,56,0.00,,-RA,0.00,617.00,VWS V14.01,2013-03-04 21:00:00,
2013-03-04 15:01:00,77.4,60.5,29.80,South,183,27.3,32.5,56,0.00,,-RA,0.00,617.00,VWS V14.01,2013-03-04 21:01:00,
2013-03-04 15:02:00,77.3,60.4,29.80,South,170,22.1,27.3,56,0.00,,-RA,0.00,617.00,VWS V14.01,2013-03-04 21:02:00,
2013-03-04 15:03:00,77.3,60.4,29.80,South,175,16.9,28.6,56,0.00,,-RA,0.00,610.00,VWS V14.01,2013-03-04 21:03:00,
2013-03-04 15:04:00,77.2,60.3,29.80,South,180,15.6,26.0,56,0.00,,-RA,0.00,610.00,VWS V14.01,2013-03-04 21:04:00,
2013-03-04 15:05:00,77.2,60.8,29.80,SSW,200,18.2,24.7,57,0.00,,-RA,0.00,601.00,VWS V14.01,2013-03-04 21:05:00,
2013-03-04 15:06:00,77.1,60.2,29.80,South,189,24.7,26.0,56,0.00,,-RA,0.00,601.00,VWS V14.01,2013-03-04 21:06:00,
2013-03-04 15:07:00,77.2,60.3,29.80,SE,139,9.1,27.3,56,0.00,,-RA,0.00,598.00,VWS V14.01,2013-03-04 21:07:00,
2013-03-04 15:08:00,77.2,60.8,29.80,South,170,26.0,26.0,57,0.00,,-RA,0.00,601.00,VWS V14.01,2013-03-04 21:08:00,
2013-03-04 15:09:00,77.2,60.8,29.80,South,179,14.3,26.0,57,0.00,,-RA,0.00,594.00,VWS V14.01,2013-03-04 21:09:00,
2013-03-04 15:10:00,77.1,60.2,29.81,South,177,16.9,31.2,56,0.00,,-RA,0.00,592.00,VWS V14.01,2013-03-04 21:10:00,
2013-03-04 15:11:00,77.1,60.2,29.81,South,177,16.9,31.2,56,0.00,,-RA,0.00,592.00,VWS V14.01,2013-03-04 21:11:00,
2013-03-04 15:12:00,77.0,60.6,29.81,SSE,164,26.0,26.0,57,0.00,,-RA,0.00,592.00,VWS V14.01,2013-03-04 21:12:00,
2013-03-04 15:13:00,77.0,60.6,29.81,SSE,166,19.5,29.9,57,0.00,,-RA,0.00,587.00,VWS V14.01,2013-03-04 21:13:00,
2013-03-04 15:14:00,77.0,60.6,29.81,South,173,19.5,28.6,57,0.00,,-RA,0.00,585.00,VWS V14.01,2013-03-04 21:14:00,
2013-03-04 15:15:00,76.9,60.5,29.81,South,189,32.5,32.5,57,0.00,,-RA,0.00,580.00,VWS V14.01,2013-03-04 21:15:00,
2013-03-04 15:16:00,76.9,60.5,29.81,SSE,164,15.6,27.3,57,0.00,,-RA,0.00,580.00,VWS V14.01,2013-03-04 21:16:00,
2013-03-04 15:17:00,76.8,60.4,29.81,South,191,26.0,32.5,57,0.00,,-RA,0.00,575.00,VWS V14.01,2013-03-04 21:17:00,
2013-03-04 15:18:00,76.8,60.4,29.81,SSE,158,10.4,31.2,57,0.00,,-RA,0.00,571.00,VWS V14.01,2013-03-04 21:18:00,
2013-03-04 15:19:00,76.7,60.3,29.81,SSW,194,15.6,24.7,57,0.00,,-RA,0.00,570.00,VWS V14.01,2013-03-04 21:19:00,
2013-03-04 15:20:00,76.8,60.4,29.81,South,174,14.3,16.9,57,0.00,,-RA,0.00,571.00,VWS V14.01,2013-03-04 21:20:00,
2013-03-04 15:21:00,76.8,60.4,29.81,South,185,16.9,27.3,57,0.00,,-RA,0.00,571.00,VWS V14.01,2013-03-04 21:21:00,
2013-03-04 15:22:00,76.8,60.4,29.81,SSE,159,9.1,22.1,57,0.00,,-RA,0.00,568.00,VWS V14.01,2013-03-04 21:22:00,
2013-03-04 15:23:00,76.8,60.4,29.81,South,173,18.2,18.2,57,0.00,,-RA,0.00,561.00,VWS V14.01,2013-03-04 21:23:00,
2013-03-04 15:24:00,76.9,60.5,29.81,South,183,20.8,31.2,57,0.00,,-RA,0.00,557.00,VWS V14.01,2013-03-04 21:24:00,
2013-03-04 15:25:00,76.9,60.5,29.80,SSE,154,11.7,13.0,57,0.00,,-RA,0.00,541.00,VWS V14.01,2013-03-04 21:25:00,
2013-03-04 15:26:00,76.8,60.4,29.80,South,189,13.0,26.0,57,0.00,,-RA,0.00,552.00,VWS V14.01,2013-03-04 21:26:00,
2013-03-04 15:27:00,76.8,60.4,29.80,SSW,193,29.9,29.9,57,0.00,,-RA,0.00,545.00,VWS V14.01,2013-03-04 21:27:00,
2013-03-04 15:28:00,76.7,60.3,29.80,SE,144,29.9,31.2,57,0.00,,-RA,0.00,550.00,VWS V14.01,2013-03-04 21:28:00,
2013-03-04 15:29:00,76.6,60.2,29.80,South,179,11.7,32.5,57,0.00,,-RA,0.00,540.00,VWS V14.01,2013-03-04 21:29:00,
2013-03-04 15:30:00,76.3,60.0,29.80,SSW,196,16.9,16.9,57,0.00,,-RA,0.00,538.00,VWS V14.01,2013-03-04 21:30:00,
2013-03-04 15:31:00,76.3,60.0,29.80,South,183,14.3,29.9,57,0.00,,-RA,0.00,538.00,VWS V14.01,2013-03-04 21:31:00,
2013-03-04 15:32:00,76.2,60.4,29.80,South,172,22.1,23.4,58,0.00,,-RA,0.00,534.00,VWS V14.01,2013-03-04 21:32:00,
2013-03-04 15:33:00,76.2,60.4,29.80,SSW,197,6.5,22.1,58,0.00,,-RA,0.00,529.00,VWS V14.01,2013-03-04 21:33:00,
2013-03-04 15:34:00,76.2,60.4,29.80,South,180,9.1,24.7,58,0.00,,-RA,0.00,527.00,VWS V14.01,2013-03-04 21:34:00,
2013-03-04 15:35:00,76.1,60.3,29.80,SSE,160,15.6,15.6,58,0.00,,-RA,0.00,522.00,VWS V14.01,2013-03-04 21:35:00,
2013-03-04 15:36:00,76.1,60.3,29.80,SE,143,14.3,24.7,58,0.00,,-RA,0.00,522.00,VWS V14.01,2013-03-04 21:36:00,
2013-03-04 15:37:00,76.1,60.3,29.80,South,181,15.6,33.8,58,0.00,,-RA,0.00,520.00,VWS V14.01,2013-03-04 21:37:00,
2013-03-04 15:38:00,76.1,60.3,29.80,South,184,18.2,23.4,58,0.00,,-RA,0.00,515.00,VWS V14.01,2013-03-04 21:38:00,
2013-03-04 15:39:00,76.1,60.3,29.80,South,188,18.2,23.4,58,0.00,,-RA,0.00,513.00,VWS V14.01,2013-03-04 21:39:00,
2013-03-04 15:40:00,76.1,60.3,29.80,SSW,202,29.9,29.9,58,0.00,,-RA,0.00,508.00,VWS V14.01,2013-03-04 21:40:00,
2013-03-04 15:41:00,76.1,60.3,29.80,South,170,13.0,23.4,58,0.00,,-RA,0.00,508.00,VWS V14.01,2013-03-04 21:41:00,
2013-03-04 15:42:00,76.1,60.3,29.80,SSE,154,20.8,36.4,58,0.00,,-RA,0.00,508.00,VWS V14.01,2013-03-04 21:42:00,
2013-03-04 15:43:00,76.1,60.3,29.80,South,177,13.0,27.3,58,0.00,,-RA,0.00,510.00,VWS V14.01,2013-03-04 21:43:00,
2013-03-04 15:44:00,76.1,60.3,29.80,South,181,19.5,19.5,58,0.00,,-RA,0.00,506.00,VWS V14.01,2013-03-04 21:44:00,
2013-03-04 15:45:00,76.1,60.8,29.80,SE,131,22.1,22.1,59,0.00,,-RA,0.00,506.00,VWS V14.01,2013-03-04 21:45:00,
2013-03-04 15:46:00,76.1,60.8,29.80,South,180,11.7,24.7,59,0.00,,-RA,0.00,506.00,VWS V14.01,2013-03-04 21:46:00,
2013-03-04 15:47:00,76.2,60.8,29.80,South,191,22.1,24.7,59,0.00,,-RA,0.00,427.00,VWS V14.01,2013-03-04 21:47:00,
2013-03-04 15:48:00,76.2,60.8,29.80,SSW,204,16.9,35.1,59,0.00,,-RA,0.00,492.00,VWS V14.01,2013-03-04 21:48:00,
2013-03-04 15:49:00,76.2,60.4,29.80,SSW,198,18.2,29.9,58,0.00,,-RA,0.00,489.00,VWS V14.01,2013-03-04 21:49:00,
2013-03-04 15:50:00,76.1,60.3,29.80,South,177,15.6,18.2,58,0.00,,-RA,0.00,471.00,VWS V14.01,2013-03-04 21:50:00,
2013-03-04 15:51:00,76.1,60.3,29.80,SSW,200,16.9,29.9,58,0.00,,-RA,0.00,471.00,VWS V14.01,2013-03-04 21:51:00,
2013-03-04 15:52:00,76.0,60.2,29.80,SSE,162,24.7,24.7,58,0.00,,-RA,0.00,473.00,VWS V14.01,2013-03-04 21:52:00,
2013-03-04 15:53:00,76.0,60.7,29.80,SSW,194,14.3,24.7,59,0.00,,-RA,0.00,475.00,VWS V14.01,2013-03-04 21:53:00,
2013-03-04 15:54:00,76.0,60.2,29.80,South,185,15.6,32.5,58,0.00,,-RA,0.00,466.00,VWS V14.01,2013-03-04 21:54:00,
2013-03-04 15:55:00,76.0,60.2,29.80,South,175,23.4,33.8,58,0.00,,-RA,0.00,461.00,VWS V14.01,2013-03-04 21:55:00,
2013-03-04 15:56:00,76.0,60.2,29.80,South,189,33.8,35.1,58,0.00,,-RA,0.00,461.00,VWS V14.01,2013-03-04 21:56:00,
2013-03-04 15:57:00,76.0,60.2,29.80,South,185,20.8,33.8,58,0.00,,-RA,0.00,432.00,VWS V14.01,2013-03-04 21:57:00,
2013-03-04 15:58:00,76.0,60.2,29.80,South,180,18.2,26.0,58,0.00,,-RA,0.00,422.00,VWS V14.01,2013-03-04 21:58:00,
2013-03-04 15:59:00,75.9,60.1,29.80,SSW,212,23.4,27.3,58,0.00,,-RA,0.00,457.00,VWS V14.01,2013-03-04 21:59:00,
2013-03-04 16:00:00,75.7,59.9,29.79,SSW,206,13.0,13.0,58,0.00,,-RA,0.00,450.00,VWS V14.01,2013-03-04 22:00:00,
2013-03-04 16:01:00,75.8,60.0,29.80,SSE,164,13.0,18.2,58,0.00,,-RA,0.00,441.00,VWS V14.01,2013-03-04 22:01:00,
2013-03-04 16:02:00,75.7,60.4,29.79,South,190,10.4,18.2,59,0.00,,-RA,0.00,455.00,VWS V14.01,2013-03-04 22:02:00,
2013-03-04 16:03:00,75.7,60.4,29.79,South,191,14.3,28.6,59,0.00,,-RA,0.00,454.00,VWS V14.01,2013-03-04 22:03:00,
2013-03-04 16:04:00,75.7,60.4,29.79,South,175,23.4,31.2,59,0.00,,-RA,0.00,450.00,VWS V14.01,2013-03-04 22:04:00,
2013-03-04 16:05:00,75.7,60.4,29.79,SSE,162,13.0,15.6,59,0.00,,-RA,0.00,443.00,VWS V14.01,2013-03-04 22:05:00,
2013-03-04 16:06:00,75.7,60.4,29.79,South,179,11.7,22.1,59,0.00,,-RA,0.00,439.00,VWS V14.01,2013-03-04 22:06:00,
2013-03-04 16:07:00,75.7,60.4,29.79,SSE,166,19.5,20.8,59,0.00,,-RA,0.00,439.00,VWS V14.01,2013-03-04 22:07:00,
2013-03-04 16:08:00,75.7,60.4,29.79,SSE,147,19.5,28.6,59,0.00,,-RA,0.00,436.00,VWS V14.01,2013-03-04 22:08:00,
2013-03-04 16:09:00,75.6,60.3,29.80,SSE,168,19.5,26.0,59,0.00,,-RA,0.00,438.00,VWS V14.01,2013-03-04 22:09:00,
2013-03-04 16:10:00,75.4,60.1,29.79,SSE,154,16.9,22.1,59,0.00,,-RA,0.00,413.00,VWS V14.01,2013-03-04 22:10:00,
2013-03-04 16:11:00,75.4,60.1,29.79,South,172,15.6,32.5,59,0.00,,-RA,0.00,415.00,VWS V14.01,2013-03-04 22:11:00,
2013-03-04 16:12:00,75.3,60.0,29.79,SSE,161,16.9,31.2,59,0.00,,-RA,0.00,413.00,VWS V14.01,2013-03-04 22:12:00,
2013-03-04 16:13:00,75.3,60.0,29.79,SSW,194,9.1,33.8,59,0.00,,-RA,0.00,410.00,VWS V14.01,2013-03-04 22:13:00,
2013-03-04 16:14:00,75.2,59.9,29.79,SSW,199,11.7,33.8,59,0.00,,-RA,0.00,411.00,VWS V14.01,2013-03-04 22:14:00,
2013-03-04 16:15:00,75.1,60.3,29.79,SSE,162,22.1,24.7,60,0.00,,-RA,0.00,399.00,VWS V14.01,2013-03-04 22:15:00,
2013-03-04 16:16:00,75.1,60.3,29.79,South,184,24.7,24.7,60,0.00,,-RA,0.00,399.00,VWS V14.01,2013-03-04 22:16:00,
2013-03-04 16:17:00,75.0,60.2,29.79,South,174,23.4,27.3,60,0.00,,-RA,0.00,394.00,VWS V14.01,2013-03-04 22:17:00,
2013-03-04 16:18:00,75.0,60.2,29.79,South,183,27.3,27.3,60,0.00,,-RA,0.00,357.00,VWS V14.01,2013-03-04 22:18:00,
2013-03-04 16:19:00,74.9,60.1,29.79,South,172,16.9,27.3,60,0.00,,-RA,0.00,357.00,VWS V14.01,2013-03-04 22:19:00,
2013-03-04 16:20:00,74.9,60.1,29.79,South,189,36.4,36.4,60,0.00,,-RA,0.00,360.00,VWS V14.01,2013-03-04 22:20:00,
2013-03-04 16:21:00,74.9,60.1,29.79,South,169,24.7,28.6,60,0.00,,-RA,0.00,360.00,VWS V14.01,2013-03-04 22:21:00,
2013-03-04 16:22:00,74.8,60.0,29.79,SSW,201,14.3,36.4,60,0.00,,-RA,0.00,373.00,VWS V14.01,2013-03-04 22:22:00,
2013-03-04 16:23:00,74.8,60.0,29.79,SSW,192,10.4,31.2,60,0.00,,-RA,0.00,353.00,VWS V14.01,2013-03-04 22:23:00,
2013-03-04 16:24:00,74.7,59.9,29.79,SSW,196,16.9,31.2,60,0.00,,-RA,0.00,346.00,VWS V14.01,2013-03-04 22:24:00,
2013-03-04 16:25:00,74.6,59.8,29.79,SSW,195,16.9,24.7,60,0.00,,-RA,0.00,348.00,VWS V14.01,2013-03-04 22:25:00,
2013-03-04 16:26:00,74.6,59.8,29.79,South,181,19.5,29.9,60,0.00,,-RA,0.00,348.00,VWS V14.01,2013-03-04 22:26:00,
2013-03-04 16:27:00,74.6,59.8,29.79,South,177,10.4,24.7,60,0.00,,-RA,0.00,341.00,VWS V14.01,2013-03-04 22:27:00,
2013-03-04 16:28:00,74.5,59.7,29.79,South,183,20.8,27.3,60,0.00,,-RA,0.00,378.00,VWS V14.01,2013-03-04 22:28:00,
2013-03-04 16:29:00,74.4,59.6,29.79,SSE,167,16.9,26.0,60,0.00,,-RA,0.00,364.00,VWS V14.01,2013-03-04 22:29:00,
2013-03-04 16:30:00,74.3,60.0,29.79,South,186,14.3,19.5,61,0.00,,-RA,0.00,357.00,VWS V14.01,2013-03-04 22:30:00,
2013-03-04 16:31:00,74.3,60.0,29.79,South,175,13.0,27.3,61,0.00,,-RA,0.00,357.00,VWS V14.01,2013-03-04 22:31:00,
2013-03-04 16:32:00,74.3,60.0,29.79,SSE,160,22.1,27.3,61,0.00,,-RA,0.00,343.00,VWS V14.01,2013-03-04 22:32:00,
2013-03-04 16:33:00,74.2,59.9,29.79,South,185,11.7,27.3,61,0.00,,-RA,0.00,251.00,VWS V14.01,2013-03-04 22:33:00,
2013-03-04 16:34:00,74.1,60.3,29.80,SSE,167,16.9,24.7,62,0.00,,-RA,0.00,338.00,VWS V14.01,2013-03-04 22:34:00,
2013-03-04 16:35:00,74.0,59.7,29.79,SSE,159,18.2,18.2,61,0.00,,-RA,0.00,267.00,VWS V14.01,2013-03-04 22:35:00,
2013-03-04 16:36:00,74.1,59.8,29.79,SSE,162,18.2,23.4,61,0.00,,-RA,0.00,341.00,VWS V14.01,2013-03-04 22:36:00,
2013-03-04 16:37:00,74.0,60.2,29.79,South,172,19.5,23.4,62,0.00,,-RA,0.00,355.00,VWS V14.01,2013-03-04 22:37:00,
2013-03-04 16:38:00,74.0,60.2,29.80,SSW,206,16.9,22.1,62,0.00,,-RA,0.00,355.00,VWS V14.01,2013-03-04 22:38:00,
2013-03-04 16:39:00,74.0,60.2,29.80,South,175,23.4,31.2,62,0.00,,-RA,0.00,355.00,VWS V14.01,2013-03-04 22:39:00,
2013-03-04 16:40:00,73.9,59.6,29.80,SSW,202,27.3,27.3,61,0.00,,-RA,0.00,323.00,VWS V14.01,2013-03-04 22:40:00,
2013-03-04 16:41:00,74.0,59.7,29.79,South,179,24.7,27.3,61,0.00,,-RA,0.00,334.00,VWS V14.01,2013-03-04 22:41:00,
2013-03-04 16:42:00,73.9,60.1,29.80,SSW,192,24.7,27.3,62,0.00,,-RA,0.00,323.00,VWS V14.01,2013-03-04 22:42:00,
2013-03-04 16:43:00,73.8,60.0,29.79,SSW,194,28.6,28.6,62,0.00,,-RA,0.00,315.00,VWS V14.01,2013-03-04 22:43:00,
2013-03-04 16:44:00,73.8,60.0,29.79,SSW,195,22.1,28.6,62,0.00,,-RA,0.00,308.00,VWS V14.01,2013-03-04 22:44:00,
2013-03-04 16:45:00,73.8,60.0,29.79,SSW,204,14.3,14.3,62,0.00,,-RA,0.00,299.00,VWS V14.01,2013-03-04 22:45:00,
2013-03-04 16:46:00,73.8,60.0,29.79,South,191,11.7,22.1,62,0.00,,-RA,0.00,301.00,VWS V14.01,2013-03-04 22:46:00,
2013-03-04 16:47:00,73.9,60.5,29.79,South,191,24.7,24.7,63,0.00,,-RA,0.00,299.00,VWS V14.01,2013-03-04 22:47:00,
2013-03-04 16:48:00,73.8,60.0,29.79,South,187,20.8,36.4,62,0.00,,-RA,0.00,299.00,VWS V14.01,2013-03-04 22:48:00,
2013-03-04 16:49:00,73.9,60.1,29.79,SW,222,15.6,33.8,62,0.00,,-RA,0.00,292.00,VWS V14.01,2013-03-04 22:49:00,
2013-03-04 16:50:00,73.8,60.0,29.79,South,181,16.9,26.0,62,0.00,,-RA,0.00,274.00,VWS V14.01,2013-03-04 22:50:00,
2013-03-04 16:51:00,73.8,60.0,29.79,South,181,15.6,29.9,62,0.00,,-RA,0.00,274.00,VWS V14.01,2013-03-04 22:51:00,
2013-03-04 16:52:00,73.8,60.0,29.79,South,179,18.2,26.0,62,0.00,,-RA,0.00,274.00,VWS V14.01,2013-03-04 22:52:00,
2013-03-04 16:53:00,73.8,60.0,29.80,SSW,194,27.3,28.6,62,0.00,,-RA,0.00,269.00,VWS V14.01,2013-03-04 22:53:00,
2013-03-04 16:54:00,73.8,60.0,29.79,South,191,24.7,27.3,62,0.00,,-RA,0.00,262.00,VWS V14.01,2013-03-04 22:54:00,
2013-03-04 16:55:00,73.6,59.8,29.79,SSW,209,26.0,31.2,62,0.00,,-RA,0.00,255.00,VWS V14.01,2013-03-04 22:55:00,
2013-03-04 16:56:00,73.7,59.9,29.80,South,183,10.4,26.0,62,0.00,,-RA,0.00,255.00,VWS V14.01,2013-03-04 22:56:00,
2013-03-04 16:57:00,73.6,59.8,29.79,SSW,193,18.2,31.2,62,0.00,,-RA,0.00,255.00,VWS V14.01,2013-03-04 22:57:00,
2013-03-04 16:58:00,73.5,59.7,29.80,SSE,167,19.5,26.0,62,0.00,,-RA,0.00,250.00,VWS V14.01,2013-03-04 22:58:00,
2013-03-04 16:59:00,73.5,60.2,29.80,SW,216,11.7,19.5,63,0.00,,-RA,0.00,246.00,VWS V14.01,2013-03-04 22:59:00,
2013-03-04 17:00:00,73.4,60.0,29.80,SSW,194,9.1,22.1,63,0.00,,-RA,0.00,241.00,VWS V14.01,2013-03-04 23:00:00,
2013-03-04 17:01:00,73.4,60.0,29.80,South,187,11.7,24.7,63,0.00,,-RA,0.00,241.00,VWS V14.01,2013-03-04 23:01:00,
2013-03-04 17:02:00,73.4,60.0,29.80,South,187,14.3,22.1,63,0.00,,-RA,0.00,236.00,VWS V14.01,2013-03-04 23:02:00,
2013-03-04 17:03:00,73.4,60.0,29.79,South,187,14.3,29.9,63,0.00,,-RA,0.00,230.00,VWS V14.01,2013-03-04 23:03:00,
2013-03-04 17:04:00,73.4,60.0,29.80,South,191,16.9,22.1,63,0.00,,-RA,0.00,232.00,VWS V14.01,2013-03-04 23:04:00,
2013-03-04 17:05:00,73.4,60.0,29.80,SSE,164,22.1,24.7,63,0.00,,-RA,0.00,221.00,VWS V14.01,2013-03-04 23:05:00,
2013-03-04 17:06:00,73.4,60.0,29.80,South,189,23.4,28.6,63,0.00,,-RA,0.00,221.00,VWS V14.01,2013-03-04 23:06:00,
2013-03-04 17:07:00,73.4,60.0,29.80,South,175,19.5,27.3,63,0.00,,-RA,0.00,213.00,VWS V14.01,2013-03-04 23:07:00,
2013-03-04 17:08:00,73.4,60.0,29.80,South,177,22.1,27.3,63,0.00,,-RA,0.00,213.00,VWS V14.01,2013-03-04 23:08:00,
2013-03-04 17:09:00,73.3,60.0,29.80,South,185,22.1,28.6,63,0.00,,-RA,0.00,211.00,VWS V14.01,2013-03-04 23:09:00,
2013-03-04 17:10:00,73.2,60.3,29.79,SSE,168,13.0,16.9,64,0.00,,-RA,0.00,200.00,VWS V14.01,2013-03-04 23:10:00,
2013-03-04 17:11:00,73.2,60.3,29.79,South,170,14.3,28.6,64,0.00,,-RA,0.00,197.00,VWS V14.01,2013-03-04 23:11:00,
2013-03-04 17:12:00,73.2,60.3,29.79,SSE,158,20.8,20.8,64,0.00,,-RA,0.00,197.00,VWS V14.01,2013-03-04 23:12:00,
2013-03-04 17:13:00,73.1,60.2,29.79,SSE,168,16.9,23.4,64,0.00,,-RA,0.00,197.00,VWS V14.01,2013-03-04 23:13:00,
2013-03-04 17:14:00,73.0,60.1,29.79,SSE,157,16.9,22.1,64,0.00,,-RA,0.00,190.00,VWS V14.01,2013-03-04 23:14:00,
2013-03-04 17:15:00,72.9,60.0,29.80,South,176,20.8,23.4,64,0.00,,-RA,0.00,183.00,VWS V14.01,2013-03-04 23:15:00,
2013-03-04 17:16:00,72.9,60.0,29.80,SE,146,13.0,24.7,64,0.00,,-RA,0.00,190.00,VWS V14.01,2013-03-04 23:16:00,
2013-03-04 17:17:00,72.8,59.9,29.80,SSW,196,26.0,33.8,64,0.00,,-RA,0.00,183.00,VWS V14.01,2013-03-04 23:17:00,
2013-03-04 17:18:00,72.7,59.8,29.80,South,191,7.8,26.0,64,0.00,,-RA,0.00,179.00,VWS V14.01,2013-03-04 23:18:00,
2013-03-04 17:19:00,72.7,60.3,29.80,SSW,203,11.7,20.8,65,0.00,,-RA,0.00,174.00,VWS V14.01,2013-03-04 23:19:00,
2013-03-04 17:20:00,72.5,60.1,29.80,South,170,14.3,20.8,65,0.00,,-RA,0.00,165.00,VWS V14.01,2013-03-04 23:20:00,
2013-03-04 17:21:00,72.5,60.1,29.80,SSE,165,16.9,27.3,65,0.00,,-RA,0.00,167.00,VWS V14.01,2013-03-04 23:21:00,
2013-03-04 17:22:00,72.5,60.1,29.80,South,174,28.6,28.6,65,0.00,,-RA,0.00,165.00,VWS V14.01,2013-03-04 23:22:00,
2013-03-04 17:23:00,72.4,60.0,29.80,South,174,23.4,29.9,65,0.00,,-RA,0.00,160.00,VWS V14.01,2013-03-04 23:23:00,
2013-03-04 17:24:00,72.4,60.0,29.80,South,176,13.0,26.0,65,0.00,,-RA,0.00,155.00,VWS V14.01,2013-03-04 23:24:00,
2013-03-04 17:25:00,72.3,59.9,29.80,South,169,16.9,19.5,65,0.00,,-RA,0.00,77.00,VWS V14.01,2013-03-04 23:25:00,
2013-03-04 17:26:00,72.3,59.9,29.80,South,182,18.2,26.0,65,0.00,,-RA,0.00,111.00,VWS V14.01,2013-03-04 23:26:00,
2013-03-04 17:27:00,72.3,59.9,29.80,SSW,192,9.1,19.5,65,0.00,,-RA,0.00,77.00,VWS V14.01,2013-03-04 23:27:00,
2013-03-04 17:28:00,72.2,59.8,29.80,SSE,147,16.9,22.1,65,0.00,,-RA,0.00,70.00,VWS V14.01,2013-03-04 23:28:00,
2013-03-04 17:29:00,72.2,59.8,29.80,South,185,15.6,26.0,65,0.00,,-RA,0.00,46.00,VWS V14.01,2013-03-04 23:29:00,
2013-03-04 17:30:00,72.1,59.7,29.80,SSW,213,15.6,18.2,65,0.00,,-RA,0.00,70.00,VWS V14.01,2013-03-04 23:30:00,
2013-03-04 17:31:00,72.1,59.7,29.80,South,171,11.7,23.4,65,0.00,,-RA,0.00,70.00,VWS V14.01,2013-03-04 23:31:00,
2013-03-04 17:32:00,72.0,59.6,29.80,South,191,19.5,28.6,65,0.00,,-RA,0.00,72.00,VWS V14.01,2013-03-04 23:32:00,
2013-03-04 17:33:00,72.0,59.6,29.80,SSW,195,23.4,29.9,65,0.00,,-RA,0.00,77.00,VWS V14.01,2013-03-04 23:33:00,
2013-03-04 17:34:00,71.9,59.5,29.80,South,173,23.4,36.4,65,0.00,,-RA,0.00,77.00,VWS V14.01,2013-03-04 23:34:00,
2013-03-04 17:35:00,71.7,59.8,29.80,SSW,193,16.9,35.1,66,0.00,,-RA,0.00,107.00,VWS V14.01,2013-03-04 23:35:00,
2013-03-04 17:36:00,71.7,59.8,29.80,SSW,206,35.1,35.1,66,0.00,,-RA,0.00,107.00,VWS V14.01,2013-03-04 23:36:00,
2013-03-04 17:37:00,71.6,59.7,29.80,South,176,15.6,35.1,66,0.00,,-RA,0.00,109.00,VWS V14.01,2013-03-04 23:37:00,
2013-03-04 17:38:00,71.6,59.7,29.80,SSW,204,19.5,33.8,66,0.00,,-RA,0.00,109.00,VWS V14.01,2013-03-04 23:38:00,
2013-03-04 17:39:00,71.5,59.6,29.80,South,189,22.1,32.5,66,0.00,,-RA,0.00,105.00,VWS V14.01,2013-03-04 23:39:00,
2013-03-04 17:40:00,71.4,59.5,29.80,South,178,22.1,24.7,66,0.00,,-RA,0.00,97.00,VWS V14.01,2013-03-04 23:40:00,
2013-03-04 17:41:00,71.4,59.5,29.79,South,173,18.2,20.8,66,0.00,,-RA,0.00,97.00,VWS V14.01,2013-03-04 23:41:00,
2013-03-04 17:42:00,71.4,59.5,29.80,South,183,15.6,27.3,66,0.00,,-RA,0.00,93.00,VWS V14.01,2013-03-04 23:42:00,
2013-03-04 17:43:00,71.3,59.4,29.80,South,187,32.5,32.5,66,0.00,,-RA,0.00,84.00,VWS V14.01,2013-03-04 23:43:00,
2013-03-04 17:44:00,71.3,59.4,29.80,South,172,24.7,32.5,66,0.00,,-RA,0.00,70.00,VWS V14.01,2013-03-04 23:44:00,
2013-03-04 17:45:00,71.2,59.7,29.80,SSW,199,16.9,20.8,67,0.00,,-RA,0.00,44.00,VWS V14.01,2013-03-04 23:45:00,
2013-03-04 17:46:00,71.2,59.7,29.80,SW,220,9.1,35.1,67,0.00,,-RA,0.00,51.00,VWS V14.01,2013-03-04 23:46:00,
2013-03-04 17:47:00,71.1,59.6,29.80,SSW,197,19.5,24.7,67,0.00,,-RA,0.00,40.00,VWS V14.01,2013-03-04 23:47:00,
2013-03-04 17:48:00,71.1,59.6,29.80,South,191,14.3,32.5,67,0.00,,-RA,0.00,40.00,VWS V14.01,2013-03-04 23:48:00,
2013-03-04 17:49:00,71.0,59.5,29.80,SSW,195,11.7,18.2,67,0.00,,-RA,0.00,39.00,VWS V14.01,2013-03-04 23:49:00,
2013-03-04 17:50:00,70.9,59.4,29.80,SW,221,19.5,19.5,67,0.00,,-RA,0.00,39.00,VWS V14.01,2013-03-04 23:50:00,
2013-03-04 17:51:00,70.9,59.4,29.79,SSW,194,14.3,28.6,67,0.00,,-RA,0.00,44.00,VWS V14.01,2013-03-04 23:51:00,
2013-03-04 17:52:00,70.9,59.4,29.80,South,171,13.0,19.5,67,0.00,,-RA,0.00,39.00,VWS V14.01,2013-03-04 23:52:00,
2013-03-04 17:53:00,70.8,59.7,29.80,South,178,29.9,29.9,68,0.00,,-RA,0.00,33.00,VWS V14.01,2013-03-04 23:53:00,
2013-03-04 17:54:00,70.8,59.7,29.79,SSW,195,14.3,31.2,68,0.00,,-RA,0.00,32.00,VWS V14.01,2013-03-04 23:54:00,
2013-03-04 17:55:00,70.6,59.5,29.80,SSW,193,9.1,16.9,68,0.00,,-RA,0.00,30.00,VWS V14.01,2013-03-04 23:55:00,
2013-03-04 17:56:00,70.7,59.6,29.80,South,191,14.3,22.1,68,0.00,,-RA,0.00,32.00,VWS V14.01,2013-03-04 23:56:00,
2013-03-04 17:57:00,70.6,59.5,29.80,SSE,167,10.4,19.5,68,0.00,,-RA,0.00,30.00,VWS V14.01,2013-03-04 23:57:00,
2013-03-04 17:58:00,70.5,59.4,29.80,South,173,16.9,16.9,68,0.00,,-RA,0.00,28.00,VWS V14.01,2013-03-04 23:58:00,
2013-03-04 17:59:00,70.5,59.4,29.80,SSE,168,3.9,16.9,68,0.00,,-RA,0.00,30.00,VWS V14.01,2013-03-04 23:59:00,
2013-03-04 18:00:00,70.4,59.8,29.80,South,175,19.5,19.5,69,0.00,,-RA,0.00,23.00,VWS V14.01,2013-03-05 00:00:00,
2013-03-04 18:01:00,70.4,59.3,29.80,South,186,13.0,23.4,68,0.00,,-RA,0.00,25.00,VWS V14.01,2013-03-05 00:01:00,
2013-03-04 18:02:00,70.3,59.7,29.80,SSE,166,14.3,20.8,69,0.00,,-RA,0.00,23.00,VWS V14.01,2013-03-05 00:02:00,
2013-03-04 18:03:00,70.3,59.7,29.80,South,185,15.6,32.5,69,0.00,,-RA,0.00,19.00,VWS V14.01,2013-03-05 00:03:00,
2013-03-04 18:04:00,70.2,59.6,29.80,South,184,20.8,20.8,69,0.00,,-RA,0.00,18.00,VWS V14.01,2013-03-05 00:04:00,
2013-03-04 18:05:00,70.1,59.9,29.80,SSE,167,13.0,16.9,70,0.00,,-RA,0.00,12.00,VWS V14.01,2013-03-05 00:05:00,
2013-03-04 18:06:00,70.1,59.9,29.80,South,172,13.0,33.8,70,0.00,,-RA,0.00,14.00,VWS V14.01,2013-03-05 00:06:00,
2013-03-04 18:07:00,70.0,59.8,29.80,South,183,19.5,19.5,70,0.00,,-RA,0.00,12.00,VWS V14.01,2013-03-05 00:07:00,
2013-03-04 18:08:00,69.9,59.7,29.80,South,186,18.2,32.5,70,0.00,,-RA,0.00,12.00,VWS V14.01,2013-03-05 00:08:00,
2013-03-04 18:09:00,69.9,59.7,29.79,South,174,18.2,28.6,70,0.00,,-RA,0.00,11.00,VWS V14.01,2013-03-05 00:09:00,
2013-03-04 18:10:00,69.7,59.5,29.79,South,177,13.0,27.3,70,0.00,,-RA,0.00,11.00,VWS V14.01,2013-03-05 00:10:00,
2013-03-04 18:11:00,69.8,59.6,29.79,South,179,27.3,27.3,70,0.00,,-RA,0.00,11.00,VWS V14.01,2013-03-05 00:11:00,
2013-03-04 18:12:00,69.7,59.5,29.79,South,175,19.5,27.3,70,0.00,,-RA,0.00,11.00,VWS V14.01,2013-03-05 00:12:00,
2013-03-04 18:13:00,69.7,59.9,29.79,South,185,16.9,22.1,71,0.00,,-RA,0.00,11.00,VWS V14.01,2013-03-05 00:13:00,
2013-03-04 18:14:00,69.6,59.8,29.79,South,182,19.5,24.7,71,0.00,,-RA,0.00,9.00,VWS V14.01,2013-03-05 00:14:00,
2013-03-04 18:15:00,69.4,59.6,29.79,South,169,16.9,26.0,71,0.00,,-RA,0.00,9.00,VWS V14.01,2013-03-05 00:15:00,
2013-03-04 18:16:00,69.5,59.7,29.79,SSE,163,13.0,23.4,71,0.00,,-RA,0.00,9.00,VWS V14.01,2013-03-05 00:16:00,
2013-03-04 18:17:00,69.4,59.6,29.79,SSE,158,11.7,26.0,71,0.00,,-RA,0.00,7.00,VWS V14.01,2013-03-05 00:17:00,
2013-03-04 18:18:00,69.4,59.6,29.79,SSE,167,16.9,24.7,71,0.00,,-RA,0.00,7.00,VWS V14.01,2013-03-05 00:18:00,
2013-03-04 18:19:00,69.3,59.5,29.79,South,178,14.3,22.1,71,0.00,,-RA,0.00,7.00,VWS V14.01,2013-03-05 00:19:00,
2013-03-04 18:20:00,69.1,59.7,29.79,SSW,195,23.4,23.4,72,0.00,,-RA,0.00,5.00,VWS V14.01,2013-03-05 00:20:00,
2013-03-04 18:21:00,69.2,59.8,29.79,SSW,192,15.6,26.0,72,0.00,,-RA,0.00,5.00,VWS V14.01,2013-03-05 00:21:00,
2013-03-04 18:22:00,69.1,59.7,29.79,SSE,165,7.8,23.4,72,0.00,,-RA,0.00,0.00,VWS V14.01,2013-03-05 00:22:00,
2013-03-04 18:23:00,69.0,59.6,29.79,South,183,16.9,16.9,72,0.00,,-RA,0.00,0.00,VWS V14.01,2013-03-05 00:23:00,
2013-03-04 18:24:00,69.0,59.6,29.79,South,182,15.6,19.5,72,0.00,,-RA,0.00,0.00,VWS V14.01,2013-03-05 00:24:00,
2013-03-04 18:25:00,68.9,59.5,29.79,SSE,164,16.9,23.4,72,0.00,,-RA,0.00,0.00,VWS V14.01,2013-03-05 00:25:00,
2013-03-04 18:26:00,68.9,59.5,29.79,South,187,18.2,23.4,72,0.00,,-RA,0.00,0.00,VWS V14.01,2013-03-05 00:26:00,
2013-03-04 18:27:00,68.9,59.9,29.79,SSE,162,15.6,23.4,73,0.00,,-RA,0.00,0.00,VWS V14.01,2013-03-05 00:27:00,
2013-03-04 18:28:00,68.8,59.8,29.79,SE,145,13.0,15.6,73,0.00,,-RA,0.00,0.00,VWS V14.01,2013-03-05 00:28:00,
2013-03-04 18:29:00,68.7,59.7,29.79,SSW,198,23.4,23.4,73,0.00,,-RA,0.00,0.00,VWS V14.01,2013-03-05 00:29:00,
2013-03-04 18:30:00,68.7,59.7,29.79,SSE,166,11.7,23.4,73,0.00,,-RA,0.00,0.00,VWS V14.01,2013-03-05 00:30:00,
2013-03-04 18:31:00,68.6,59.6,29.79,South,184,18.2,18.2,73,0.00,,-RA,0.00,0.00,VWS V14.01,2013-03-05 00:31:00,
2013-03-04 18:32:00,68.6,59.6,29.79,South,185,13.0,20.8,73,0.00,,-RA,0.00,0.00,VWS V14.01,2013-03-05 00:32:00,
2013-03-04 18:33:00,68.6,59.6,29.79,SSE,167,20.8,22.1,73,0.00,,-RA,0.00,0.00,VWS V14.01,2013-03-05 00:33:00,
2013-03-04 18:34:00,68.5,59.9,29.79,SSE,162,7.8,22.1,74,0.00,,-RA,0.00,0.00,VWS V14.01,2013-03-05 00:34:00,
2013-03-04 18:35:00,68.5,59.9,29.79,SSE,160,19.5,23.4,74,0.00,,-RA,0.00,0.00,VWS V14.01,2013-03-05 00:35:00,
2013-03-04 18:36:00,68.4,59.8,29.79,SSE,164,13.0,22.1,74,0.00,,-RA,0.00,0.00,VWS V14.01,2013-03-05 00:36:00,
2013-03-04 18:37:00,68.4,59.8,29.79,SSE,158,13.0,22.1,74,0.00,,-RA,0.00,0.00,VWS V14.01,2013-03-05 00:37:00,
2013-03-04 18:38:00,68.3,59.7,29.79,South,171,9.1,15.6,74,0.00,,-RA,0.00,0.00,VWS V14.01,2013-03-05 00:38:00,
2013-03-04 18:39:00,68.3,59.7,29.79,SSE,150,18.2,22.1,74,0.00,,-RA,0.00,0.00,VWS V14.01,2013-03-05 00:39:00,
2013-03-04 18:40:00,68.3,59.7,29.79,South,185,14.3,23.4,74,0.00,,-RA,0.00,0.00,VWS V14.01,2013-03-05 00:40:00,
2013-03-04 18:41:00,68.2,59.6,29.79,South,172,16.9,27.3,74,0.00,,-RA,0.00,0.00,VWS V14.01,2013-03-05 00:41:00,
2013-03-04 18:42:00,68.2,59.6,29.79,South,189,15.6,27.3,74,0.00,,-RA,0.00,0.00,VWS V14.01,2013-03-05 00:42:00,
2013-03-04 18:43:00,68.1,59.9,29.79,SSE,167,14.3,26.0,75,0.00,,-RA,0.00,0.00,VWS V14.01,2013-03-05 00:43:00,
2013-03-04 18:44:00,68.1,59.9,29.79,South,173,14.3,22.1,75,0.00,,-RA,0.00,0.00,VWS V14.01,2013-03-05 00:44:00,
2013-03-04 18:45:00,68.1,59.9,29.79,SSE,162,7.8,18.2,75,0.00,,-RA,0.00,0.00,VWS V14.01,2013-03-05 00:45:00,
2013-03-04 18:46:00,68.0,59.8,29.80,South,171,13.0,16.9,75,0.00,,-RA,0.00,0.00,VWS V14.01,2013-03-05 00:46:00,
2013-03-04 18:47:00,68.0,59.8,29.80,SSE,168,6.5,16.9,75,0.00,,-RA,0.00,0.00,VWS V14.01,2013-03-05 00:47:00,
2013-03-04 18:48:00,68.0,59.8,29.80,South,171,3.9,14.3,75,0.00,,-RA,0.00,0.00,VWS V14.01,2013-03-05 00:48:00,
2013-03-04 18:49:00,67.9,59.7,29.80,South,175,11.7,13.0,75,0.00,,-RA,0.00,0.00,VWS V14.01,2013-03-05 00:49:00,
2013-03-04 18:50:00,67.9,59.7,29.80,South,190,18.2,24.7,75,0.00,,-RA,0.00,0.00,VWS V14.01,2013-03-05 00:50:00,
2013-03-04 18:51:00,67.8,59.6,29.80,SSE,165,6.5,18.2,75,0.00,,-RA,0.00,0.00,VWS V14.01,2013-03-05 00:51:00,
2013-03-04 18:52:00,67.8,59.6,29.80,South,189,22.1,22.1,75,0.00,,-RA,0.00,0.00,VWS V14.01,2013-03-05 00:52:00,
2013-03-04 18:53:00,67.8,60.0,29.80,South,181,11.7,22.1,76,0.00,,-RA,0.00,0.00,VWS V14.01,2013-03-05 00:53:00,
2013-03-04 18:54:00,67.8,60.0,29.80,South,177,6.5,15.6,76,0.00,,-RA,0.00,0.00,VWS V14.01,2013-03-05 00:54:00,
2013-03-04 18:55:00,67.7,59.9,29.80,South,178,18.2,22.1,76,0.00,,-RA,0.00,0.00,VWS V14.01,2013-03-05 00:55:00,
2013-03-04 18:56:00,67.6,59.8,29.80,South,185,9.1,18.2,76,0.00,,-RA,0.00,0.00,VWS V14.01,2013-03-05 00:56:00,
2013-03-04 18:57:00,67.6,59.8,29.80,South,169,9.1,18.2,76,0.00,,-RA,0.00,0.00,VWS V14.01,2013-03-05 00:57:00,
2013-03-04 18:58:00,67.6,59.8,29.80,South,189,9.1,16.9,76,0.00,,-RA,0.00,0.00,VWS V14.01,2013-03-05 00:58:00,
2013-03-04 18:59:00,67.5,59.7,29.80,SSE,164,5.2,18.2,76,0.00,,-RA,0.00,0.00,VWS V14.01,2013-03-05 00:59:00,
2013-03-04 19:00:00,67.5,59.7,29.80,South,186,10.4,13.0,76,0.00,,-RA,0.00,0.00,VWS V14.01,2013-03-05 01:00:00,
2013-03-04 19:01:00,67.4,59.6,29.80,South,184,6.5,7.8,76,0.00,,-RA,0.00,0.00,VWS V14.01,2013-03-05 01:01:00,
2013-03-04 19:02:00,67.4,59.6,29.80,South,187,7.8,11.7,76,0.00,,-RA,0.00,0.00,VWS V14.01,2013-03-05 01:02:00,
2013-03-04 19:03:00,67.4,59.6,29.80,South,175,6.5,15.6,76,0.00,,-RA,0.00,0.00,VWS V14.01,2013-03-05 01:03:00,
2013-03-04 19:04:00,67.4,59.6,29.80,South,174,6.5,13.0,76,0.00,,-RA,0.00,0.00,VWS V14.01,2013-03-05 01:04:00,
2013-03-04 19:05:00,67.3,59.5,29.80,SSE,167,16.9,16.9,76,0.00,,-RA,0.00,0.00,VWS V14.01,2013-03-05 01:05:00,
2013-03-04 19:06:00,67.3,59.8,29.80,South,176,6.5,18.2,77,0.00,,-RA,0.00,0.00,VWS V14.01,2013-03-05 01:06:00,
2013-03-04 19:07:00,67.3,59.8,29.80,South,177,6.5,18.2,77,0.00,,-RA,0.00,0.00,VWS V14.01,2013-03-05 01:07:00,
2013-03-04 19:08:00,67.2,59.8,29.80,South,170,3.9,18.2,77,0.00,,-RA,0.00,0.00,VWS V14.01,2013-03-05 01:08:00,
2013-03-04 19:09:00,67.2,59.8,29.80,South,189,18.2,18.2,77,0.00,,-RA,0.00,0.00,VWS V14.01,2013-03-05 01:09:00,
2013-03-04 19:10:00,67.2,59.8,29.80,South,176,9.1,18.2,77,0.00,,-RA,0.00,0.00,VWS V14.01,2013-03-05 01:10:00,
2013-03-04 19:11:00,67.1,59.7,29.80,SSW,193,9.1,16.9,77,0.00,,-RA,0.00,0.00,VWS V14.01,2013-03-05 01:11:00,
2013-03-04 19:12:00,67.1,59.7,29.80,South,171,7.8,16.9,77,0.00,,-RA,0.00,0.00,VWS V14.01,2013-03-05 01:12:00,
2013-03-04 19:13:00,67.1,59.7,29.80,South,179,13.0,16.9,77,0.00,,-RA,0.00,0.00,VWS V14.01,2013-03-05 01:13:00,
2013-03-04 19:14:00,67.1,59.7,29.80,South,175,6.5,15.6,77,0.00,,-RA,0.00,0.00,VWS V14.01,2013-03-05 01:14:00,
2013-03-04 19:15:00,67.0,59.9,29.80,SSE,165,16.9,20.8,78,0.00,,-RA,0.00,0.00,VWS V14.01,2013-03-05 01:15:00,
2013-03-04 19:16:00,66.9,59.5,29.80,South,174,14.3,20.8,77,0.00,,-RA,0.00,0.00,VWS V14.01,2013-03-05 01:16:00,
2013-03-04 19:17:00,66.9,59.5,29.80,South,177,5.2,20.8,77,0.00,,-RA,0.00,0.00,VWS V14.01,2013-03-05 01:17:00,
2013-03-04 19:18:00,66.9,59.8,29.80,SSW,202,7.8,16.9,78,0.00,,-RA,0.00,0.00,VWS V14.01,2013-03-05 01:18:00,
2013-03-04 19:19:00,66.9,59.8,29.80,SSE,152,15.6,20.8,78,0.00,,-RA,0.00,0.00,VWS V14.01,2013-03-05 01:19:00,
2013-03-04 19:20:00,66.8,59.7,29.80,SSE,163,7.8,23.4,78,0.00,,-RA,0.00,0.00,VWS V14.01,2013-03-05 01:20:00,
2013-03-04 19:21:00,66.8,59.7,29.80,South,184,13.0,22.1,78,0.00,,-RA,0.00,0.00,VWS V14.01,2013-03-05 01:21:00,
2013-03-04 19:22:00,66.8,59.7,29.80,South,189,20.8,22.1,78,0.00,,-RA,0.00,0.00,VWS V14.01,2013-03-05 01:22:00,
2013-03-04 19:23:00,66.7,59.6,29.80,SSE,164,11.7,20.8,78,0.00,,-RA,0.00,0.00,VWS V14.01,2013-03-05 01:23:00,
2013-03-04 19:24:00,66.7,59.6,29.80,South,172,22.1,22.1,78,0.00,,-RA,0.00,0.00,VWS V14.01,2013-03-05 01:24:00,
2013-03-04 19:25:00,66.7,60.0,29.80,South,171,13.0,22.1,79,0.00,,-RA,0.00,0.00,VWS V14.01,2013-03-05 01:25:00,
2013-03-04 19:26:00,66.7,60.0,29.80,South,177,14.3,16.9,79,0.00,,-RA,0.00,0.00,VWS V14.01,2013-03-05 01:26:00,
2013-03-04 19:27:00,66.7,60.0,29.80,SSE,166,13.0,16.9,79,0.00,,-RA,0.00,0.00,VWS V14.01,2013-03-05 01:27:00,
2013-03-04 19:28:00,66.6,59.9,29.80,SSW,210,11.7,19.5,79,0.00,,-RA,0.00,0.00,VWS V14.01,2013-03-05 01:28:00,
2013-03-04 19:29:00,66.6,59.9,29.80,South,171,16.9,24.7,79,0.00,,-RA,0.00,0.00,VWS V14.01,2013-03-05 01:29:00,
2013-03-04 19:30:00,66.5,59.8,29.80,SSW,195,14.3,19.5,79,0.00,,-RA,0.00,0.00,VWS V14.01,2013-03-05 01:30:00,
2013-03-04 19:31:00,66.5,59.8,29.80,SSW,193,16.9,16.9,79,0.00,,-RA,0.00,0.00,VWS V14.01,2013-03-05 01:31:00,
2013-03-04 19:32:00,66.5,59.8,29.80,South,187,16.9,16.9,79,0.00,,-RA,0.00,0.00,VWS V14.01,2013-03-05 01:32:00,
2013-03-04 19:33:00,66.5,59.8,29.80,South,183,7.8,16.9,79,0.00,,-RA,0.00,0.00,VWS V14.01,2013-03-05 01:33:00,
2013-03-04 19:34:00,66.5,60.2,29.80,SSE,168,20.8,23.4,80,0.00,,-RA,0.00,0.00,VWS V14.01,2013-03-05 01:34:00,
2013-03-04 19:35:00,66.4,60.0,29.80,South,175,7.8,20.8,80,0.00,,-RA,0.00,0.00,VWS V14.01,2013-03-05 01:35:00,
2013-03-04 19:36:00,66.4,60.0,29.80,SSW,202,11.7,18.2,80,0.00,,-RA,0.00,0.00,VWS V14.01,2013-03-05 01:36:00,
2013-03-04 19:37:00,66.4,60.0,29.80,SSW,202,11.7,18.2,80,0.00,,-RA,0.00,0.00,VWS V14.01,2013-03-05 01:37:00,
2013-03-04 19:38:00,66.3,60.0,29.80,SSE,161,14.3,20.8,80,0.00,,-RA,0.00,0.00,VWS V14.01,2013-03-05 01:38:00,
2013-03-04 19:39:00,66.3,60.0,29.80,South,189,9.1,14.3,80,0.00,,-RA,0.00,0.00,VWS V14.01,2013-03-05 01:39:00,
2013-03-04 19:40:00,66.3,60.0,29.80,SSW,196,10.4,19.5,80,0.00,,-RA,0.00,0.00,VWS V14.01,2013-03-05 01:40:00,
2013-03-04 19:41:00,66.3,60.0,29.80,South,179,5.2,19.5,80,0.00,,-RA,0.00,0.00,VWS V14.01,2013-03-05 01:41:00,
2013-03-04 19:42:00,66.3,60.0,29.80,South,179,6.5,19.5,80,0.00,,-RA,0.00,0.00,VWS V14.01,2013-03-05 01:42:00,
2013-03-04 19:43:00,66.3,60.0,29.80,South,181,9.1,14.3,80,0.00,,-RA,0.00,0.00,VWS V14.01,2013-03-05 01:43:00,
2013-03-04 19:44:00,66.2,59.9,29.80,SSW,196,16.9,18.2,80,0.00,,-RA,0.00,0.00,VWS V14.01,2013-03-05 01:44:00,
2013-03-04 19:45:00,66.2,59.9,29.80,South,184,16.9,24.7,80,0.00,,-RA,0.00,0.00,VWS V14.01,2013-03-05 01:45:00,
2013-03-04 19:46:00,66.2,59.9,29.80,SSE,163,13.0,16.9,80,0.00,,-RA,0.00,0.00,VWS V14.01,2013-03-05 01:46:00,
2013-03-04 19:47:00,66.2,59.9,29.80,SSE,163,13.0,16.9,80,0.00,,-RA,0.00,0.00,VWS V14.01,2013-03-05 01:47:00,
2013-03-04 19:48:00,66.2,60.2,29.80,South,187,14.3,15.6,81,0.00,,-RA,0.00,0.00,VWS V14.01,2013-03-05 01:48:00,
2013-03-04 19:49:00,66.1,60.1,29.80,South,169,3.9,16.9,81,0.00,,-RA,0.00,0.00,VWS V14.01,2013-03-05 01:49:00,
2013-03-04 19:50:00,66.1,60.1,29.80,South,181,13.0,19.5,81,0.00,,-RA,0.00,0.00,VWS V14.01,2013-03-05 01:50:00,
2013-03-04 19:51:00,66.1,60.1,29.80,South,185,9.1,26.0,81,0.00,,-RA,0.00,0.00,VWS V14.01,2013-03-05 01:51:00,
2013-03-04 19:52:00,66.1,60.1,29.80,South,185,9.1,26.0,81,0.00,,-RA,0.00,0.00,VWS V14.01,2013-03-05 01:52:00,
2013-03-04 19:53:00,66.1,60.1,29.81,SSW,206,7.8,15.6,81,0.00,,-RA,0.00,0.00,VWS V14.01,2013-03-05 01:53:00,
2013-03-04 19:54:00,66.1,60.1,29.81,South,183,19.5,27.3,81,0.00,,-RA,0.00,0.00,VWS V14.01,2013-03-05 01:54:00,
2013-03-04 19:55:00,66.0,60.0,29.81,South,187,13.0,27.3,81,0.00,,-RA,0.00,0.00,VWS V14.01,2013-03-05 01:55:00,
2013-03-04 19:56:00,66.1,60.5,29.81,South,191,15.6,22.1,82,0.00,,-RA,0.00,0.00,VWS V14.01,2013-03-05 01:56:00,
2013-03-04 19:57:00,66.1,60.5,29.81,South,191,15.6,22.1,82,0.00,,-RA,0.00,0.00,VWS V14.01,2013-03-05 01:57:00,
2013-03-04 19:58:00,66.0,60.3,29.81,South,185,13.0,16.9,82,0.00,,-RA,0.00,0.00,VWS V14.01,2013-03-05 01:58:00,
2013-03-04 19:59:00,66.0,60.3,29.80,South,183,3.9,18.2,82,0.00,,-RA,0.00,0.00,VWS V14.01,2013-03-05 01:59:00,
2013-03-04 20:00:00,66.0,60.3,29.81,South,181,18.2,18.2,82,0.00,,-RA,0.00,0.00,VWS V14.01,2013-03-05 02:00:00,
2013-03-04 20:01:00,66.0,60.3,29.80,South,181,9.1,14.3,82,0.00,,-RA,0.00,0.00,VWS V14.01,2013-03-05 02:01:00,
2013-03-04 20:02:00,66.0,60.3,29.80,South,181,9.1,14.3,82,0.00,,-RA,0.00,0.00,VWS V14.01,2013-03-05 02:02:00,
2013-03-04 20:03:00,66.0,60.3,29.80,South,182,3.9,14.3,82,0.00,,-RA,0.00,0.00,VWS V14.01,2013-03-05 02:03:00,
2013-03-04 20:04:00,65.9,60.3,29.80,SSW,200,16.9,19.5,82,0.00,,-RA,0.00,0.00,VWS V14.01,2013-03-05 02:04:00,
2013-03-04 20:05:00,65.9,60.3,29.81,South,187,15.6,23.4,82,0.00,,-RA,0.00,0.00,VWS V14.01,2013-03-05 02:05:00,
2013-03-04 20:06:00,65.9,60.3,29.80,SSW,194,19.5,19.5,82,0.00,,-RA,0.00,0.00,VWS V14.01,2013-03-05 02:06:00,
2013-03-04 20:07:00,65.9,60.3,29.80,SSW,194,19.5,19.5,82,0.00,,-RA,0.00,0.00,VWS V14.01,2013-03-05 02:07:00,
2013-03-04 20:08:00,65.9,60.3,29.80,South,187,13.0,19.5,82,0.00,,-RA,0.00,0.00,VWS V14.01,2013-03-05 02:08:00,
2013-03-04 20:09:00,65.9,60.3,29.81,South,184,9.1,16.9,82,0.00,,-RA,0.00,0.00,VWS V14.01,2013-03-05 02:09:00,
2013-03-04 20:10:00,65.8,60.2,29.81,SSW,195,14.3,15.6,82,0.00,,-RA,0.00,0.00,VWS V14.01,2013-03-05 02:10:00,
2013-03-04 20:11:00,65.8,60.2,29.81,SSW,199,9.1,13.0,82,0.00,,-RA,0.00,0.00,VWS V14.01,2013-03-05 02:11:00,
2013-03-04 20:12:00,65.8,60.2,29.81,SSW,198,13.0,13.0,82,0.00,,-RA,0.00,0.00,VWS V14.01,2013-03-05 02:12:00,
2013-03-04 20:13:00,65.8,60.2,29.81,South,182,14.3,19.5,82,0.00,,-RA,0.00,0.00,VWS V14.01,2013-03-05 02:13:00,
2013-03-04 20:14:00,65.8,60.2,29.80,South,179,11.7,14.3,82,0.00,,-RA,0.00,0.00,VWS V14.01,2013-03-05 02:14:00,
2013-03-04 20:15:00,65.8,60.2,29.80,South,183,19.5,19.5,82,0.00,,-RA,0.00,0.00,VWS V14.01,2013-03-05 02:15:00,
2013-03-04 20:16:00,65.7,60.4,29.80,South,191,24.7,26.0,83,0.00,,-RA,0.00,0.00,VWS V14.01,2013-03-05 02:16:00,
2013-03-04 20:17:00,65.7,60.4,29.80,South,191,24.7,26.0,83,0.00,,-RA,0.00,0.00,VWS V14.01,2013-03-05 02:17:00,
2013-03-04 20:18:00,65.7,60.4,29.80,South,177,9.1,24.7,83,0.00,,-RA,0.00,0.00,VWS V14.01,2013-03-05 02:18:00,
2013-03-04 20:19:00,65.7,60.4,29.80,SSE,163,7.8,14.3,83,0.00,,-RA,0.00,0.00,VWS V14.01,2013-03-05 02:19:00,
2013-03-04 20:20:00,65.7,60.4,29.80,SSW,202,16.9,26.0,83,0.00,,-RA,0.00,0.00,VWS V14.01,2013-03-05 02:20:00,
2013-03-04 20:21:00,65.7,60.4,29.80,SSW,195,7.8,18.2,83,0.00,,-RA,0.00,0.00,VWS V14.01,2013-03-05 02:21:00,
2013-03-04 20:22:00,65.7,60.4,29.80,SSW,195,7.8,18.2,83,0.00,,-RA,0.00,0.00,VWS V14.01,2013-03-05 02:22:00,
2013-03-04 20:23:00,65.7,60.4,29.81,South,181,6.5,13.0,83,0.00,,-RA,0.00,0.00,VWS V14.01,2013-03-05 02:23:00,
2013-03-04 20:24:00,65.6,60.3,29.81,SSW,202,11.7,18.2,83,0.00,,-RA,0.00,0.00,VWS V14.01,2013-03-05 02:24:00,
2013-03-04 20:25:00,65.6,60.3,29.80,South,184,11.7,18.2,83,0.00,,-RA,0.00,0.00,VWS V14.01,2013-03-05 02:25:00,
2013-03-04 20:26:00,65.6,60.6,29.81,South,180,7.8,20.8,84,0.00,,-RA,0.00,0.00,VWS V14.01,2013-03-05 02:26:00,
2013-03-04 20:27:00,65.6,60.3,29.81,South,185,20.8,22.1,83,0.00,,-RA,0.00,0.00,VWS V14.01,2013-03-05 02:27:00,
2013-03-04 20:28:00,65.6,60.6,29.81,SSW,193,15.6,20.8,84,0.00,,-RA,0.00,0.00,VWS V14.01,2013-03-05 02:28:00,
2013-03-04 20:29:00,65.6,60.6,29.81,South,183,10.4,15.6,84,0.00,,-RA,0.00,0.00,VWS V14.01,2013-03-05 02:29:00,
2013-03-04 20:30:00,65.6,60.6,29.81,South,181,11.7,15.6,84,0.00,,-RA,0.00,0.00,VWS V14.01,2013-03-05 02:30:00,
2013-03-04 20:31:00,65.6,60.6,29.81,SSW,203,23.4,23.4,84,0.00,,-RA,0.00,0.00,VWS V14.01,2013-03-05 02:31:00,
2013-03-04 20:32:00,65.6,60.6,29.81,South,175,15.6,18.2,84,0.00,,-RA,0.00,0.00,VWS V14.01,2013-03-05 02:32:00,
2013-03-04 20:33:00,65.6,60.6,29.81,SSE,158,13.0,24.7,84,0.00,,-RA,0.00,0.00,VWS V14.01,2013-03-05 02:33:00,
2013-03-04 20:34:00,65.6,60.6,29.81,South,185,23.4,24.7,84,0.00,,-RA,0.00,0.00,VWS V14.01,2013-03-05 02:34:00,
2013-03-04 20:35:00,65.5,60.5,29.81,South,170,18.2,24.7,84,0.00,,-RA,0.00,0.00,VWS V14.01,2013-03-05 02:35:00,
2013-03-04 20:36:00,65.5,60.5,29.81,South,187,14.3,14.3,84,0.00,,-RA,0.00,0.00,VWS V14.01,2013-03-05 02:36:00,
2013-03-04 20:37:00,65.5,60.5,29.80,South,182,7.8,19.5,84,0.00,,-RA,0.00,0.00,VWS V14.01,2013-03-05 02:37:00,
2013-03-04 20:38:00,65.5,60.5,29.81,South,189,7.8,14.3,84,0.00,,-RA,0.00,0.00,VWS V14.01,2013-03-05 02:38:00,
2013-03-04 20:39:00,65.5,60.5,29.81,SSW,201,15.6,22.1,84,0.00,,-RA,0.00,0.00,VWS V14.01,2013-03-05 02:39:00,
2013-03-04 20:40:00,65.5,60.5,29.81,South,191,10.4,15.6,84,0.00,,-RA,0.00,0.00,VWS V14.01,2013-03-05 02:40:00,
2013-03-04 20:41:00,65.4,60.5,29.81,SSE,152,9.1,11.7,84,0.00,,-RA,0.00,0.00,VWS V14.01,2013-03-05 02:41:00,
2013-03-04 20:42:00,65.4,60.5,29.81,South,179,10.4,16.9,84,0.00,,-RA,0.00,0.00,VWS V14.01,2013-03-05 02:42:00,
2013-03-04 20:43:00,65.4,60.5,29.81,SSW,193,20.8,20.8,84,0.00,,-RA,0.00,0.00,VWS V14.01,2013-03-05 02:43:00,
2013-03-04 20:44:00,65.4,60.5,29.81,South,191,15.6,22.1,84,0.00,,-RA,0.00,0.00,VWS V14.01,2013-03-05 02:44:00,
2013-03-04 20:45:00,65.4,60.5,29.81,South,170,9.1,22.1,84,0.00,,-RA,0.00,0.00,VWS V14.01,2013-03-05 02:45:00,
2013-03-04 20:46:00,65.4,60.5,29.81,South,179,9.1,9.1,84,0.00,,-RA,0.00,0.00,VWS V14.01,2013-03-05 02:46:00,
2013-03-04 20:47:00,65.4,60.5,29.81,South,182,7.8,22.1,84,0.00,,-RA,0.00,0.00,VWS V14.01,2013-03-05 02:47:00,
2013-03-04 20:48:00,65.4,60.5,29.81,South,179,15.6,16.9,84,0.00,,-RA,0.00,0.00,VWS V14.01,2013-03-05 02:48:00,
2013-03-04 20:49:00,65.4,60.5,29.81,SSW,197,16.9,22.1,84,0.00,,-RA,0.00,0.00,VWS V14.01,2013-03-05 02:49:00,
2013-03-04 20:50:00,65.4,60.8,29.81,SSE,168,6.5,20.8,85,0.00,,-RA,0.00,0.00,VWS V14.01,2013-03-05 02:50:00,
2013-03-04 20:51:00,65.3,60.7,29.81,SSE,166,9.1,13.0,85,0.00,,-RA,0.00,0.00,VWS V14.01,2013-03-05 02:51:00,
2013-03-04 20:52:00,65.4,60.8,29.81,South,170,9.1,15.6,85,0.00,,-RA,0.00,0.00,VWS V14.01,2013-03-05 02:52:00,
2013-03-04 20:53:00,65.3,60.7,29.81,South,179,11.7,14.3,85,0.00,,-RA,0.00,0.00,VWS V14.01,2013-03-05 02:53:00,
2013-03-04 20:54:00,65.3,60.7,29.81,SSE,156,15.6,15.6,85,0.00,,-RA,0.00,0.00,VWS V14.01,2013-03-05 02:54:00,
2013-03-04 20:55:00,65.3,60.7,29.81,South,190,16.9,24.7,85,0.00,,-RA,0.00,0.00,VWS V14.01,2013-03-05 02:55:00,
2013-03-04 20:56:00,65.3,60.7,29.81,SSW,197,11.7,16.9,85,0.00,,-RA,0.00,0.00,VWS V14.01,2013-03-05 02:56:00,
2013-03-04 20:57:00,65.3,60.7,29.81,SSE,160,13.0,20.8,85,0.00,,-RA,0.00,0.00,VWS V14.01,2013-03-05 02:57:00,
2013-03-04 20:58:00,65.3,60.7,29.81,SSE,152,11.7,19.5,85,0.00,,-RA,0.00,0.00,VWS V14.01,2013-03-05 02:58:00,
2013-03-04 20:59:00,65.3,60.7,29.81,South,183,9.1,16.9,85,0.00,,-RA,0.00,0.00,VWS V14.01,2013-03-05 02:59:00,
2013-03-04 21:00:00,65.3,60.7,29.81,South,187,15.6,19.5,85,0.00,,-RA,0.00,0.00,VWS V14.01,2013-03-05 03:00:00,
2013-03-04 21:01:00,65.3,60.7,29.81,SSE,168,3.9,7.8,85,0.00,,-RA,0.00,0.00,VWS V14.01,2013-03-05 03:01:00,
2013-03-04 21:02:00,65.2,60.6,29.81,SSE,168,7.8,18.2,85,0.00,,-RA,0.00,0.00,VWS V14.01,2013-03-05 03:02:00,
2013-03-04 21:03:00,65.3,60.7,29.81,South,188,9.1,20.8,85,0.00,,-RA,0.00,0.00,VWS V14.01,2013-03-05 03:03:00,
2013-03-04 21:04:00,65.3,60.7,29.81,South,176,18.2,19.5,85,0.00,,-RA,0.00,0.00,VWS V14.01,2013-03-05 03:04:00,
2013-03-04 21:05:00,65.3,60.7,29.81,South,170,19.5,20.8,85,0.00,,-RA,0.00,0.00,VWS V14.01,2013-03-05 03:05:00,
2013-03-04 21:06:00,65.2,60.6,29.81,South,182,20.8,20.8,85,0.00,,-RA,0.00,0.00,VWS V14.01,2013-03-05 03:06:00,
2013-03-04 21:07:00,65.2,60.6,29.81,South,181,14.3,16.9,85,0.00,,-RA,0.00,0.00,VWS V14.01,2013-03-05 03:07:00,
2013-03-04 21:08:00,65.2,60.6,29.81,SSE,163,14.3,23.4,85,0.00,,-RA,0.00,0.00,VWS V14.01,2013-03-05 03:08:00,
2013-03-04 21:09:00,65.2,60.9,29.81,SSE,157,20.8,20.8,86,0.00,,-RA,0.00,0.00,VWS V14.01,2013-03-05 03:09:00,
2013-03-04 21:10:00,65.2,60.9,29.81,South,188,13.0,28.6,86,0.00,,-RA,0.00,0.00,VWS V14.01,2013-03-05 03:10:00,
2013-03-04 21:11:00,65.2,60.9,29.81,South,185,11.7,11.7,86,0.00,,-RA,0.00,0.00,VWS V14.01,2013-03-05 03:11:00,
2013-03-04 21:12:00,65.2,60.9,29.81,South,178,11.7,18.2,86,0.00,,-RA,0.00,0.00,VWS V14.01,2013-03-05 03:12:00,
2013-03-04 21:13:00,65.2,60.9,29.81,South,175,10.4,14.3,86,0.00,,-RA,0.00,0.00,VWS V14.01,2013-03-05 03:13:00,
2013-03-04 21:14:00,65.2,60.9,29.81,SSW,196,9.1,10.4,86,0.00,,-RA,0.00,0.00,VWS V14.01,2013-03-05 03:14:00,
2013-03-04 21:15:00,65.2,60.9,29.81,South,191,13.0,19.5,86,0.00,,-RA,0.00,0.00,VWS V14.01,2013-03-05 03:15:00,
2013-03-04 21:16:00,65.2,60.9,29.81,SSE,166,15.6,20.8,86,0.00,,-RA,0.00,0.00,VWS V14.01,2013-03-05 03:16:00,
2013-03-04 21:17:00,65.2,60.9,29.81,SSE,165,13.0,15.6,86,0.00,,-RA,0.00,0.00,VWS V14.01,2013-03-05 03:17:00,
2013-03-04 21:18:00,65.2,60.9,29.81,SSE,168,7.8,20.8,86,0.00,,-RA,0.00,0.00,VWS V14.01,2013-03-05 03:18:00,
2013-03-04 21:19:00,65.2,60.9,29.81,South,187,11.7,13.0,86,0.00,,-RA,0.00,0.00,VWS V14.01,2013-03-05 03:19:00,
2013-03-04 21:20:00,65.2,60.9,29.81,SSE,155,9.1,13.0,86,0.00,,-RA,0.00,0.00,VWS V14.01,2013-03-05 03:20:00,
2013-03-04 21:21:00,65.2,60.9,29.81,South,175,10.4,16.9,86,0.00,,-RA,0.00,0.00,VWS V14.01,2013-03-05 03:21:00,
2013-03-04 21:22:00,65.2,60.9,29.81,SSW,195,16.9,16.9,86,0.00,,-RA,0.00,0.00,VWS V14.01,2013-03-05 03:22:00,
2013-03-04 21:23:00,65.2,60.9,29.81,South,175,22.1,22.1,86,0.00,,-RA,0.00,0.00,VWS V14.01,2013-03-05 03:23:00,
2013-03-04 21:24:00,65.2,60.9,29.81,SW,221,22.1,24.7,86,0.00,,-RA,0.00,0.00,VWS V14.01,2013-03-05 03:24:00,
2013-03-04 21:25:00,65.2,60.9,29.81,South,182,16.9,26.0,86,0.00,,-RA,0.00,0.00,VWS V14.01,2013-03-05 03:25:00,
2013-03-04 21:26:00,65.2,60.9,29.81,South,181,6.5,20.8,86,0.00,,-RA,0.00,0.00,VWS V14.01,2013-03-05 03:26:00,
2013-03-04 21:27:00,65.2,60.9,29.81,SSW,193,20.8,20.8,86,0.00,,-RA,0.00,0.00,VWS V14.01,2013-03-05 03:27:00,
2013-03-04 21:28:00,65.2,60.9,29.81,SSW,195,14.3,20.8,86,0.00,,-RA,0.00,0.00,VWS V14.01,2013-03-05 03:28:00,
2013-03-04 21:29:00,65.2,60.9,29.81,SSW,197,18.2,24.7,86,0.00,,-RA,0.00,0.00,VWS V14.01,2013-03-05 03:29:00,
2013-03-04 21:30:00,65.2,60.9,29.81,South,176,13.0,19.5,86,0.00,,-RA,0.00,0.00,VWS V14.01,2013-03-05 03:30:00,
2013-03-04 21:31:00,65.2,60.9,29.81,South,188,18.2,18.2,86,0.00,,-RA,0.00,0.00,VWS V14.01,2013-03-05 03:31:00,
2013-03-04 21:32:00,65.2,60.9,29.81,SSW,197,11.7,23.4,86,0.00,,-RA,0.00,0.00,VWS V14.01,2013-03-05 03:32:00,
2013-03-04 21:33:00,65.2,60.9,29.81,SSE,168,11.7,18.2,86,0.00,,-RA,0.00,0.00,VWS V14.01,2013-03-05 03:33:00,
2013-03-04 21:34:00,65.2,60.9,29.81,South,186,19.5,19.5,86,0.00,,-RA,0.00,0.00,VWS V14.01,2013-03-05 03:34:00,
2013-03-04 21:35:00,65.2,60.9,29.81,SSW,193,16.9,20.8,86,0.00,,-RA,0.00,0.00,VWS V14.01,2013-03-05 03:35:00,
2013-03-04 21:36:00,65.2,60.9,29.81,SSE,167,18.2,19.5,86,0.00,,-RA,0.00,0.00,VWS V14.01,2013-03-05 03:36:00,
2013-03-04 21:37:00,65.1,60.8,29.81,South,178,15.6,16.9,86,0.00,,-RA,0.00,0.00,VWS V14.01,2013-03-05 03:37:00,
2013-03-04 21:38:00,65.2,60.9,29.81,South,172,9.1,19.5,86,0.00,,-RA,0.00,0.00,VWS V14.01,2013-03-05 03:38:00,
2013-03-04 21:39:00,65.2,60.9,29.81,SSE,166,13.0,22.1,86,0.00,,-RA,0.00,0.00,VWS V14.01,2013-03-05 03:39:00,
2013-03-04 21:40:00,65.2,60.9,29.81,South,181,6.5,20.8,86,0.00,,-RA,0.00,0.00,VWS V14.01,2013-03-05 03:40:00,
2013-03-04 21:41:00,65.2,60.9,29.81,SSW,195,20.8,23.4,86,0.00,,-RA,0.00,0.00,VWS V14.01,2013-03-05 03:41:00,
2013-03-04 21:42:00,65.2,60.9,29.81,SSW,194,16.9,16.9,86,0.00,,-RA,0.00,0.00,VWS V14.01,2013-03-05 03:42:00,
2013-03-04 21:43:00,65.2,60.9,29.81,SSW,195,16.9,23.4,86,0.00,,-RA,0.00,0.00,VWS V14.01,2013-03-05 03:43:00,
2013-03-04 21:44:00,65.2,61.2,29.81,South,185,3.9,19.5,87,0.00,,-RA,0.00,0.00,VWS V14.01,2013-03-05 03:44:00,
2013-03-04 21:45:00,65.2,61.2,29.81,South,172,18.2,20.8,87,0.00,,-RA,0.00,0.00,VWS V14.01,2013-03-05 03:45:00,
2013-03-04 21:46:00,65.2,61.2,29.81,SSE,168,14.3,15.6,87,0.00,,-RA,0.00,0.00,VWS V14.01,2013-03-05 03:46:00,
2013-03-04 21:47:00,65.2,61.2,29.81,South,191,11.7,20.8,87,0.00,,-RA,0.00,0.00,VWS V14.01,2013-03-05 03:47:00,
2013-03-04 21:48:00,65.2,61.2,29.81,SSW,192,11.7,18.2,87,0.00,,-RA,0.00,0.00,VWS V14.01,2013-03-05 03:48:00,
2013-03-04 21:49:00,65.2,61.2,29.81,South,182,15.6,28.6,87,0.00,,-RA,0.00,0.00,VWS V14.01,2013-03-05 03:49:00,
2013-03-04 21:50:00,65.2,61.2,29.82,SSW,207,7.8,19.5,87,0.00,,-RA,0.00,0.00,VWS V14.01,2013-03-05 03:50:00,
2013-03-04 21:51:00,65.2,61.2,29.82,SSE,163,15.6,18.2,87,0.00,,-RA,0.00,0.00,VWS V14.01,2013-03-05 03:51:00,
2013-03-04 21:52:00,65.2,61.2,29.82,SSW,196,14.3,28.6,87,0.00,,-RA,0.00,0.00,VWS V14.01,2013-03-05 03:52:00,
2013-03-04 21:53:00,65.2,61.2,29.82,South,169,13.0,18.2,87,0.00,,-RA,0.00,0.00,VWS V14.01,2013-03-05 03:53:00,
2013-03-04 21:54:00,65.2,61.2,29.82,SSE,165,11.7,26.0,87,0.00,,-RA,0.00,0.00,VWS V14.01,2013-03-05 03:54:00,
2013-03-04 21:55:00,65.2,61.2,29.82,South,174,7.8,26.0,87,0.00,,-RA,0.00,0.00,VWS V14.01,2013-03-05 03:55:00,
2013-03-04 21:56:00,65.3,61.3,29.82,SSW,202,13.0,16.9,87,0.00,,-RA,0.00,0.00,VWS V14.01,2013-03-05 03:56:00,
2013-03-04 21:57:00,65.2,61.2,29.82,South,189,16.9,16.9,87,0.00,,-RA,0.00,0.00,VWS V14.01,2013-03-05 03:57:00,
2013-03-04 21:58:00,65.2,61.2,29.82,South,183,9.1,16.9,87,0.00,,-RA,0.00,0.00,VWS V14.01,2013-03-05 03:58:00,
2013-03-04 21:59:00,65.2,61.2,29.82,SSW,197,9.1,22.1,87,0.00,,-RA,0.00,0.00,VWS V14.01,2013-03-05 03:59:00,
2013-03-04 22:00:00,65.2,61.2,29.81,South,175,15.6,18.2,87,0.00,,-RA,0.00,0.00,VWS V14.01,2013-03-05 04:00:00,
2013-03-04 22:01:00,65.3,61.3,29.81,South,186,14.3,14.3,87,0.00,,-RA,0.00,0.00,VWS V14.01,2013-03-05 04:01:00,
2013-03-04 22:02:00,65.2,61.2,29.81,South,181,6.5,18.2,87,0.00,,-RA,0.00,0.00,VWS V14.01,2013-03-05 04:02:00,
2013-03-04 22:03:00,65.3,61.3,29.81,South,185,22.1,22.1,87,0.00,,-RA,0.00,0.00,VWS V14.01,2013-03-05 04:03:00,
2013-03-04 22:04:00,65.3,61.3,29.81,SSW,197,9.1,22.1,87,0.00,,-RA,0.00,0.00,VWS V14.01,2013-03-05 04:04:00,
2013-03-04 22:05:00,65.3,61.3,29.81,South,189,9.1,20.8,87,0.00,,-RA,0.00,0.00,VWS V14.01,2013-03-05 04:05:00,
2013-03-04 22:06:00,65.3,61.3,29.81,SSE,160,9.1,16.9,87,0.00,,-RA,0.00,0.00,VWS V14.01,2013-03-05 04:06:00,
2013-03-04 22:07:00,65.3,61.3,29.81,SSW,194,16.9,23.4,87,0.00,,-RA,0.00,0.00,VWS V14.01,2013-03-05 04:07:00,
2013-03-04 22:08:00,65.3,61.3,29.81,South,172,11.7,23.4,87,0.00,,-RA,0.00,0.00,VWS V14.01,2013-03-05 04:08:00,
2013-03-04 22:09:00,65.3,61.3,29.81,South,175,15.6,15.6,87,0.00,,-RA,0.00,0.00,VWS V14.01,2013-03-05 04:09:00,
2013-03-04 22:10:00,65.3,61.3,29.81,SSW,206,23.4,23.4,87,0.00,,-RA,0.00,0.00,VWS V14.01,2013-03-05 04:10:00,
2013-03-04 22:11:00,65.3,61.3,29.81,SSE,164,14.3,24.7,87,0.00,,-RA,0.00,0.00,VWS V14.01,2013-03-05 04:11:00,
2013-03-04 22:12:00,65.3,61.3,29.81,South,191,20.8,20.8,87,0.00,,-RA,0.00,0.00,VWS V14.01,2013-03-05 04:12:00,
2013-03-04 22:13:00,65.3,61.3,29.81,South,176,18.2,20.8,87,0.00,,-RA,0.00,0.00,VWS V14.01,2013-03-05 04:13:00,
2013-03-04 22:14:00,65.3,61.3,29.81,South,185,11.7,19.5,87,0.00,,-RA,0.00,0.00,VWS V14.01,2013-03-05 04:14:00,
2013-03-04 22:15:00,65.3,61.3,29.81,South,175,13.0,16.9,87,0.00,,-RA,0.00,0.00,VWS V14.01,2013-03-05 04:15:00,
2013-03-04 22:16:00,65.3,61.3,29.81,South,191,20.8,20.8,87,0.00,,-RA,0.00,0.00,VWS V14.01,2013-03-05 04:16:00,
2013-03-04 22:17:00,65.3,61.3,29.81,South,179,11.7,15.6,87,0.00,,-RA,0.00,0.00,VWS V14.01,2013-03-05 04:17:00,
2013-03-04 22:18:00,65.3,61.3,29.81,South,185,6.5,15.6,87,0.00,,-RA,0.00,0.00,VWS V14.01,2013-03-05 04:18:00,
2013-03-04 22:19:00,65.3,61.3,29.81,South,171,15.6,22.1,87,0.00,,-RA,0.00,0.00,VWS V14.01,2013-03-05 04:19:00,
2013-03-04 22:20:00,65.3,61.3,29.81,South,190,10.4,24.7,87,0.00,,-RA,0.00,0.00,VWS V14.01,2013-03-05 04:20:00,
2013-03-04 22:21:00,65.3,61.3,29.81,South,176,19.5,23.4,87,0.00,,-RA,0.00,0.00,VWS V14.01,2013-03-05 04:21:00,
2013-03-04 22:22:00,65.3,61.3,29.81,South,186,16.9,20.8,87,0.00,,-RA,0.00,0.00,VWS V14.01,2013-03-05 04:22:00,
2013-03-04 22:23:00,65.4,61.4,29.81,South,181,14.3,20.8,87,0.00,,-RA,0.00,0.00,VWS V14.01,2013-03-05 04:23:00,
2013-03-04 22:24:00,65.3,61.3,29.81,South,183,10.4,16.9,87,0.00,,-RA,0.00,0.00,VWS V14.01,2013-03-05 04:24:00,
2013-03-04 22:25:00,65.4,61.4,29.81,South,174,13.0,20.8,87,0.00,,-RA,0.00,0.00,VWS V14.01,2013-03-05 04:25:00,
2013-03-04 22:26:00,65.4,61.4,29.81,SSW,194,19.5,22.1,87,0.00,,-RA,0.00,0.00,VWS V14.01,2013-03-05 04:26:00,
2013-03-04 22:27:00,65.4,61.4,29.82,SSE,168,10.4,23.4,87,0.00,,-RA,0.00,0.00,VWS V14.01,2013-03-05 04:27:00,
2013-03-04 22:28:00,65.4,61.4,29.82,South,177,22.1,23.4,87,0.00,,-RA,0.00,0.00,VWS V14.01,2013-03-05 04:28:00,
2013-03-04 22:29:00,65.3,61.3,29.82,South,182,11.7,27.3,87,0.00,,-RA,0.00,0.00,VWS V14.01,2013-03-05 04:29:00,
2013-03-04 22:30:00,65.4,61.4,29.82,South,181,19.5,23.4,87,0.00,,-RA,0.00,0.00,VWS V14.01,2013-03-05 04:30:00,
2013-03-04 22:31:00,65.4,61.4,29.82,South,185,16.9,27.3,87,0.00,,-RA,0.00,0.00,VWS V14.01,2013-03-05 04:31:00,
2013-03-04 22:32:00,65.4,61.4,29.82,South,175,15.6,18.2,87,0.00,,-RA,0.00,0.00,VWS V14.01,2013-03-05 04:32:00,
2013-03-04 22:33:00,65.4,61.4,29.82,South,170,22.1,22.1,87,0.00,,-RA,0.00,0.00,VWS V14.01,2013-03-05 04:33:00,
2013-03-04 22:34:00,65.4,61.4,29.82,South,191,13.0,22.1,87,0.00,,-RA,0.00,0.00,VWS V14.01,2013-03-05 04:34:00,
2013-03-04 22:35:00,65.4,61.4,29.82,South,191,16.9,36.4,87,0.00,,-RA,0.00,0.00,VWS V14.01,2013-03-05 04:35:00,
2013-03-04 22:36:00,65.4,61.4,29.82,South,179,7.8,29.9,87,0.00,,-RA,0.00,0.00,VWS V14.01,2013-03-05 04:36:00,
2013-03-04 22:37:00,65.4,61.4,29.82,SSW,196,16.9,18.2,87,0.00,,-RA,0.00,0.00,VWS V14.01,2013-03-05 04:37:00,
2013-03-04 22:38:00,65.4,61.4,29.82,South,182,19.5,23.4,87,0.00,,-RA,0.00,0.00,VWS V14.01,2013-03-05 04:38:00,
2013-03-04 22:39:00,65.4,61.4,29.82,South,170,16.9,20.8,87,0.00,,-RA,0.00,0.00,VWS V14.01,2013-03-05 04:39:00,
2013-03-04 22:40:00,65.4,61.4,29.82,SSE,161,11.7,16.9,87,0.00,,-RA,0.00,0.00,VWS V14.01,2013-03-05 04:40:00,
2013-03-04 22:41:00,65.5,61.5,29.82,South,180,10.4,14.3,87,0.00,,-RA,0.00,0.00,VWS V14.01,2013-03-05 04:41:00,
2013-03-04 22:42:00,65.4,61.4,29.82,SSW,210,11.7,22.1,87,0.00,,-RA,0.00,0.00,VWS V14.01,2013-03-05 04:42:00,
2013-03-04 22:43:00,65.4,61.4,29.82,SSE,166,13.0,22.1,87,0.00,,-RA,0.00,0.00,VWS V14.01,2013-03-05 04:43:00,
2013-03-04 22:44:00,65.5,61.5,29.82,South,181,9.1,22.1,87,0.00,,-RA,0.00,0.00,VWS V14.01,2013-03-05 04:44:00,
2013-03-04 22:45:00,65.4,61.4,29.82,SSE,168,6.5,15.6,87,0.00,,-RA,0.00,0.00,VWS V14.01,2013-03-05 04:45:00,
2013-03-04 22:46:00,65.4,61.4,29.82,SSW,203,14.3,20.8,87,0.00,,-RA,0.00,0.00,VWS V14.01,2013-03-05 04:46:00,
2013-03-04 22:47:00,65.4,61.4,29.82,SW,217,18.2,20.8,87,0.00,,-RA,0.00,0.00,VWS V14.01,2013-03-05 04:47:00,
2013-03-04 22:48:00,65.4,61.4,29.82,South,182,9.1,22.1,87,0.00,,-RA,0.00,0.00,VWS V14.01,2013-03-05 04:48:00,
2013-03-04 22:49:00,65.4,61.4,29.82,South,191,9.1,19.5,87,0.00,,-RA,0.00,0.00,VWS V14.01,2013-03-05 04:49:00,
2013-03-04 22:50:00,65.4,61.4,29.82,South,187,15.6,20.8,87,0.00,,-RA,0.00,0.00,VWS V14.01,2013-03-05 04:50:00,
2013-03-04 22:51:00,65.4,61.4,29.82,South,181,13.0,19.5,87,0.00,,-RA,0.00,0.00,VWS V14.01,2013-03-05 04:51:00,
2013-03-04 22:52:00,65.4,61.4,29.82,South,181,16.9,27.3,87,0.00,,-RA,0.00,0.00,VWS V14.01,2013-03-05 04:52:00,
2013-03-04 22:53:00,65.4,61.4,29.82,South,177,14.3,27.3,87,0.00,,-RA,0.00,0.00,VWS V14.01,2013-03-05 04:53:00,
2013-03-04 22:54:00,65.4,61.4,29.82,SSE,164,11.7,14.3,87,0.00,,-RA,0.00,0.00,VWS V14.01,2013-03-05 04:54:00,
2013-03-04 22:55:00,65.4,61.4,29.82,South,171,14.3,23.4,87,0.00,,-RA,0.00,0.00,VWS V14.01,2013-03-05 04:55:00,
2013-03-04 22:56:00,65.4,61.4,29.82,SSW,195,10.4,20.8,87,0.00,,-RA,0.00,0.00,VWS V14.01,2013-03-05 04:56:00,
2013-03-04 22:57:00,65.4,61.4,29.82,South,186,13.0,16.9,87,0.00,,-RA,0.00,0.00,VWS V14.01,2013-03-05 04:57:00,
2013-03-04 22:58:00,65.4,61.4,29.82,South,182,13.0,16.9,87,0.00,,-RA,0.00,0.00,VWS V14.01,2013-03-05 04:58:00,
2013-03-04 22:59:00,65.4,61.4,29.82,SSE,166,18.2,18.2,87,0.00,,-RA,0.00,0.00,VWS V14.01,2013-03-05 04:59:00,
2013-03-04 23:00:00,65.4,61.4,29.82,South,181,18.2,23.4,87,0.00,,-RA,0.00,0.00,VWS V14.01,2013-03-05 05:00:00,
2013-03-04 23:01:00,65.4,61.4,29.82,South,183,27.3,27.3,87,0.00,,-RA,0.00,0.00,VWS V14.01,2013-03-05 05:01:00,
2013-03-04 23:02:00,65.4,61.4,29.82,South,188,14.3,20.8,87,0.00,,-RA,0.00,0.00,VWS V14.01,2013-03-05 05:02:00,
2013-03-04 23:03:00,65.4,61.4,29.82,SSE,163,14.3,20.8,87,0.00,,-RA,0.00,0.00,VWS V14.01,2013-03-05 05:03:00,
2013-03-04 23:04:00,65.4,61.4,29.81,South,184,14.3,28.6,87,0.00,,-RA,0.00,0.00,VWS V14.01,2013-03-05 05:04:00,
2013-03-04 23:05:00,65.4,61.4,29.82,South,183,9.1,20.8,87,0.00,,-RA,0.00,0.00,VWS V14.01,2013-03-05 05:05:00,
2013-03-04 23:06:00,65.4,61.4,29.81,SSE,158,11.7,22.1,87,0.00,,-RA,0.00,0.00,VWS V14.01,2013-03-05 05:06:00,
2013-03-04 23:07:00,65.4,61.4,29.81,South,189,18.2,18.2,87,0.00,,-RA,0.00,0.00,VWS V14.01,2013-03-05 05:07:00,
2013-03-04 23:08:00,65.4,61.4,29.81,South,189,18.2,18.2,87,0.00,,-RA,0.00,0.00,VWS V14.01,2013-03-05 05:08:00,
2013-03-04 23:09:00,65.4,61.4,29.81,SSW,210,18.2,24.7,87,0.00,,-RA,0.00,0.00,VWS V14.01,2013-03-05 05:09:00,
2013-03-04 23:10:00,65.4,61.4,29.81,South,175,13.0,24.7,87,0.00,,-RA,0.00,0.00,VWS V14.01,2013-03-05 05:10:00,
2013-03-04 23:11:00,65.4,61.4,29.81,SSW,204,18.2,20.8,87,0.00,,-RA,0.00,0.00,VWS V14.01,2013-03-05 05:11:00,
2013-03-04 23:12:00,65.4,61.4,29.81,SSW,198,5.2,19.5,87,0.00,,-RA,0.00,0.00,VWS V14.01,2013-03-05 05:12:00,
2013-03-04 23:13:00,65.4,61.4,29.81,SSW,198,5.2,19.5,87,0.00,,-RA,0.00,0.00,VWS V14.01,2013-03-05 05:13:00,
2013-03-04 23:14:00,65.4,61.4,29.81,SE,141,16.9,23.4,87,0.00,,-RA,0.00,0.00,VWS V14.01,2013-03-05 05:14:00,
2013-03-04 23:15:00,65.4,61.4,29.81,SSW,198,26.0,26.0,87,0.00,,-RA,0.00,0.00,VWS V14.01,2013-03-05 05:15:00,
2013-03-04 23:16:00,65.4,61.4,29.81,South,177,16.9,26.0,87,0.00,,-RA,0.00,0.00,VWS V14.01,2013-03-05 05:16:00,
2013-03-04 23:17:00,65.4,61.4,29.81,SSW,193,28.6,28.6,87,0.00,,-RA,0.00,0.00,VWS V14.01,2013-03-05 05:17:00,
2013-03-04 23:18:00,65.4,61.4,29.81,SSW,193,28.6,28.6,87,0.00,,-RA,0.00,0.00,VWS V14.01,2013-03-05 05:18:00,
2013-03-04 23:19:00,65.4,61.4,29.81,South,178,24.7,40.3,87,0.00,,-RA,0.00,0.00,VWS V14.01,2013-03-05 05:19:00,
2013-03-04 23:20:00,65.4,61.4,29.81,SSW,198,18.2,31.2,87,0.00,,-RA,0.00,0.00,VWS V14.01,2013-03-05 05:20:00,
2013-03-04 23:21:00,65.4,61.4,29.81,South,179,24.7,27.3,87,0.00,,-RA,0.00,0.00,VWS V14.01,2013-03-05 05:21:00,
2013-03-04 23:22:00,65.4,61.4,29.81,South,179,27.3,31.2,87,0.00,,-RA,0.00,0.00,VWS V14.01,2013-03-05 05:22:00,
2013-03-04 23:23:00,65.4,61.4,29.81,South,179,27.3,31.2,87,0.00,,-RA,0.00,0.00,VWS V14.01,2013-03-05 05:23:00,
2013-03-04 23:24:00,65.5,61.5,29.81,South,189,26.0,27.3,87,0.00,,-RA,0.00,0.00,VWS V14.01,2013-03-05 05:24:00,
2013-03-04 23:25:00,65.5,61.5,29.81,SSW,192,18.2,32.5,87,0.00,,-RA,0.00,0.00,VWS V14.01,2013-03-05 05:25:00,
2013-03-04 23:26:00,65.5,61.5,29.81,South,184,24.7,28.6,87,0.00,,-RA,0.00,0.00,VWS V14.01,2013-03-05 05:26:00,
2013-03-04 23:27:00,65.5,61.5,29.81,South,185,16.9,27.3,87,0.00,,-RA,0.00,0.00,VWS V14.01,2013-03-05 05:27:00,
2013-03-04 23:28:00,65.5,61.5,29.81,South,185,16.9,27.3,87,0.00,,-RA,0.00,0.00,VWS V14.01,2013-03-05 05:28:00,
2013-03-04 23:29:00,65.5,61.5,29.81,South,191,18.2,19.5,87,0.00,,-RA,0.00,0.00,VWS V14.01,2013-03-05 05:29:00,
2013-03-04 23:30:00,65.6,61.6,29.81,SSW,193,16.9,24.7,87,0.00,,-RA,0.00,0.00,VWS V14.01,2013-03-05 05:30:00,
2013-03-04 23:31:00,65.6,61.3,29.81,SSW,196,24.7,26.0,86,0.00,,-RA,0.00,0.00,VWS V14.01,2013-03-05 05:31:00,
2013-03-04 23:32:00,65.6,61.3,29.81,SSE,168,10.4,26.0,86,0.00,,-RA,0.00,0.00,VWS V14.01,2013-03-05 05:32:00,
2013-03-04 23:33:00,65.6,61.3,29.81,SSE,168,10.4,26.0,86,0.00,,-RA,0.00,0.00,VWS V14.01,2013-03-05 05:33:00,
2013-03-04 23:34:00,65.6,61.3,29.81,SSW,200,7.8,18.2,86,0.00,,-RA,0.00,0.00,VWS V14.01,2013-03-05 05:34:00,
2013-03-04 23:35:00,65.6,61.3,29.81,SSW,202,23.4,27.3,86,0.00,,-RA,0.00,0.00,VWS V14.01,2013-03-05 05:35:00,
2013-03-04 23:36:00,65.6,61.3,29.81,SSE,158,9.1,29.9,86,0.00,,-RA,0.00,0.00,VWS V14.01,2013-03-05 05:36:00,
2013-03-04 23:37:00,65.6,61.3,29.81,South,179,14.3,28.6,86,0.00,,-RA,0.00,0.00,VWS V14.01,2013-03-05 05:37:00,
2013-03-04 23:38:00,65.6,61.3,29.81,South,179,14.3,28.6,86,0.00,,-RA,0.00,0.00,VWS V14.01,2013-03-05 05:38:00,
2013-03-04 23:39:00,65.6,61.3,29.81,SSW,195,13.0,15.6,86,0.00,,-RA,0.00,0.00,VWS V14.01,2013-03-05 05:39:00,
2013-03-04 23:40:00,65.6,61.3,29.81,South,183,18.2,18.2,86,0.00,,-RA,0.00,0.00,VWS V14.01,2013-03-05 05:40:00,
2013-03-04 23:41:00,65.6,61.3,29.81,South,189,14.3,19.5,86,0.00,,-RA,0.00,0.00,VWS V14.01,2013-03-05 05:41:00,
2013-03-04 23:42:00,65.6,61.3,29.81,South,183,14.3,14.3,86,0.00,,-RA,0.00,0.00,VWS V14.01,2013-03-05 05:42:00,
2013-03-04 23:43:00,65.6,61.3,29.81,SSW,208,7.8,16.9,86,0.00,,-RA,0.00,0.00,VWS V14.01,2013-03-05 05:43:00,
2013-03-04 23:44:00,65.6,61.3,29.81,South,185,22.1,23.4,86,0.00,,-RA,0.00,0.00,VWS V14.01,2013-03-05 05:44:00,
2013-03-04 23:45:00,65.6,61.3,29.81,SSW,195,6.5,22.1,86,0.00,,-RA,0.00,0.00,VWS V14.01,2013-03-05 05:45:00,
2013-03-04 23:46:00,65.6,61.3,29.81,SSW,194,9.1,13.0,86,0.00,,-RA,0.00,0.00,VWS V14.01,2013-03-05 05:46:00,
2013-03-04 23:47:00,65.6,61.3,29.82,South,180,20.8,20.8,86,0.00,,-RA,0.00,0.00,VWS V14.01,2013-03-05 05:47:00,
2013-03-04 23:48:00,65.6,61.3,29.82,South,184,11.7,19.5,86,0.00,,-RA,0.00,0.00,VWS V14.01,2013-03-05 05:48:00,
2013-03-04 23:49:00,65.6,61.3,29.81,South,190,14.3,26.0,86,0.00,,-RA,0.00,0.00,VWS V14.01,2013-03-05 05:49:00,
2013-03-04 23:50:00,65.6,61.3,29.81,SSE,167,18.2,18.2,86,0.00,,-RA,0.00,0.00,VWS V14.01,2013-03-05 05:50:00,
2013-03-04 23:51:00,65.6,61.3,29.81,South,191,27.3,32.5,86,0.00,,-RA,0.00,0.00,VWS V14.01,2013-03-05 05:51:00,
2013-03-04 23:52:00,65.6,61.3,29.82,SSW,198,33.8,33.8,86,0.00,,-RA,0.00,0.00,VWS V14.01,2013-03-05 05:52:00,
2013-03-04 23:53:00,65.6,61.3,29.81,SSW,211,11.7,27.3,86,0.00,,-RA,0.00,0.00,VWS V14.01,2013-03-05 05:53:00,
2013-03-04 23:54:00,65.6,61.3,29.81,SSW,197,19.5,33.8,86,0.00,,-RA,0.00,0.00,VWS V14.01,2013-03-05 05:54:00,
2013-03-04 23:55:00,65.7,61.4,29.82,South,191,19.5,28.6,86,0.00,,-RA,0.00,0.00,VWS V14.01,2013-03-05 05:55:00,
2013-03-04 23:56:00,65.6,61.3,29.81,South,189,23.4,23.4,86,0.00,,-RA,0.00,0.00,VWS V14.01,2013-03-05 05:56:00,
2013-03-04 23:57:00,65.7,61.4,29.82,SSW,194,14.3,14.3,86,0.00,,-RA,0.00,0.00,VWS V14.01,2013-03-05 05:57:00,
2013-03-04 23:58:00,65.7,61.4,29.81,South,185,11.7,20.8,86,0.00,,-RA,0.00,0.00,VWS V14.01,2013-03-05 05:58:00,
2013-03-04 23:59:00,65.7,61.4,29.81,SSW,201,15.6,27.3,86,0.00,,-RA,0.00,0.00,VWS V14.01,2013-03-05 05:59:00,